[[{"header":{"parameterUnit":"m.s-1","parameterCategory":1,"la1":30.6,"la2":28.766,"lo1":-90.7593,"lo2":-88.6598,"dy":0.0162,"dx":0.0183,"nx":116,"ny":114,"refTime":"2023-03-04T06:00:00:Z","depth":0,"parameterNumber":2,"parameterNumberName":"U-component_of_WINDS"},"data":[0.0,0.0,0.0,0.0,0.0,0.0,0.0,0.0,0.0,0.0,0.0,0.0,0.0,0.0,0.0,0.0,0.0,0.0,0.0,0.0,0.0,0.0,0.0,0.0,0.0,0.0,0.0,0.0,0.0,0.0,0.0,0.0,0.0,0.0,0.0,0.0,0.0,0.0,0.0,0.0,0.0,0.0,0.0,0.0,0.0,0.0,0.0,0.0,0.0,0.0,0.0,0.0,0.0,0.0,0.0,0.0,0.0,0.0,0.0,0.0,0.0,0.0,0.0,0.0,0.0,0.0,0.0,0.0,0.0,0.0,0.0,0.0,0.0,0.0,0.0,0.0,0.0,0.0,0.0,0.0,0.0,0.0,0.0,0.0,0.0,0.0,0.0,0.0,0.0,0.0,0.0,0.0,0.0,0.0,0.0,0.0,0.0,0.0,0.0,0.0,0.0,0.0,0.0,0.0,0.0,0.0,0.0,0.0,0.0,0.0,0.0,0.0,0.0,0.0,0.0,0.0,0.0,0.0,0.0,0.0,0.0,0.0,0.0,0.0,0.0,0.0,0.0,0.0,0.0,0.0,0.0,0.0,0.0,0.0,0.0,0.0,0.0,0.0,0.0,0.0,0.0,0.0,0.0,0.0,0.0,0.0,0.0,0.0,0.0,0.0,0.0,0.0,0.0,0.0,0.0,0.0,0.0,0.0,0.0,0.0,0.0,0.0,0.0,0.0,0.0,0.0,0.0,0.0,0.0,0.0,0.0,0.0,0.0,0.0,0.0,0.0,0.0,0.0,0.0,0.0,0.0,0.0,0.0,0.0,0.0,0.0,0.0,0.0,0.0,0.0,0.0,0.0,0.0,0.0,0.0,0.0,0.0,0.0,0.0,0.0,0.0,0.0,0.0,0.0,0.0,0.0,0.0,0.0,0.0,0.0,0.0,0.0,0.0,0.0,0.0,0.0,0.0,0.0,0.0,0.0,0.0,0.0,0.0,0.0,0.0,0.0,0.0,0.0,0.0,0.0,0.0,0.0,0.0,0.0,0.0,0.0,0.0,0.0,0.0,0.0,0.0,0.0,0.0,0.0,0.0,0.0,0.0,0.0,0.0,0.0,0.0,0.0,0.0,0.0,0.0,0.0,0.0,0.0,0.0,0.0,0.0,0.0,0.0,0.0,0.0,0.0,0.0,0.0,0.0,0.0,0.0,0.0,0.0,0.0,0.0,0.0,0.0,0.0,0.0,0.0,0.0,0.0,0.0,0.0,0.0,0.0,0.0,0.0,0.0,0.0,0.0,0.0,0.0,0.0,0.0,0.0,0.0,0.0,0.0,0.0,0.0,0.0,0.0,0.0,0.0,0.0,0.0,0.0,0.0,0.0,0.0,0.0,0.0,0.0,0.0,0.0,0.0,0.0,0.0,0.0,0.0,0.0,0.0,0.0,0.0,0.0,0.0,0.0,0.0,0.0,0.0,0.0,0.0,0.0,0.0,0.0,0.0,0.0,0.0,0.0,0.0,0.0,0.0,0.0,0.0,0.0,0.0,0.0,0.0,0.0,0.0,0.0,0.0,0.0,0.0,0.0,0.0,0.0,0.0,0.0,0.0,0.0,0.0,0.0,0.0,0.0,0.0,0.0,0.0,0.0,0.0,0.0,0.0,0.0,0.0,0.0,0.0,0.0,0.0,0.0,0.0,0.0,0.0,0.0,0.0,0.0,0.0,0.0,0.0,0.0,0.0,0.0,0.0,0.0,0.0,0.0,0.0,0.0,0.0,0.0,0.0,0.0,0.0,0.0,0.0,0.0,0.0,0.0,0.0,0.0,0.0,0.0,0.0,0.0,0.0,0.0,0.0,0.0,0.0,0.0,0.0,0.0,0.0,0.0,0.0,0.0,0.0,0.0,0.0,0.0,0.0,0.0,0.0,0.0,0.0,0.0,0.0,0.0,0.0,0.0,0.0,0.0,0.0,0.0,0.0,0.0,0.0,0.0,0.0,0.0,0.0,0.0,0.0,0.0,0.0,0.0,0.0,0.0,0.0,0.0,0.0,0.0,0.0,0.0,0.0,0.0,0.0,0.0,0.0,0.0,0.0,0.0,0.0,0.0,0.0,0.0,0.0,0.0,0.0,0.0,0.0,0.0,0.0,0.0,0.0,0.0,0.0,0.0,0.0,0.0,0.0,0.0,0.0,0.0,0.0,0.0,0.0,0.0,0.0,0.0,0.0,0.0,0.0,0.0,0.0,0.0,0.0,0.0,0.0,0.0,0.0,0.0,0.0,0.0,0.0,0.0,0.0,0.0,0.0,0.0,0.0,0.0,0.0,0.0,0.0,0.0,0.0,0.0,0.0,0.0,0.0,0.0,0.0,0.0,0.0,0.0,0.0,0.0,0.0,0.0,0.0,0.0,0.0,0.0,0.0,0.0,0.0,0.0,0.0,0.0,0.0,0.0,0.0,0.0,0.0,0.0,0.0,0.0,0.0,0.0,0.0,0.0,0.0,0.0,0.0,0.0,0.0,0.0,0.0,0.0,0.0,0.0,0.0,0.0,0.0,0.0,0.0,0.0,0.0,0.0,0.0,0.0,0.0,0.0,0.0,0.0,0.0,0.0,0.0,0.0,0.0,0.0,0.0,0.0,0.0,0.0,0.0,0.0,0.0,0.0,0.0,0.0,0.0,0.0,0.0,0.0,0.0,0.0,0.0,0.0,0.0,0.0,0.0,0.0,0.0,0.0,0.0,0.0,0.0,0.0,0.0,0.0,0.0,0.0,0.0,0.0,0.0,0.0,0.0,0.0,0.0,0.0,0.0,0.0,0.0,0.0,0.0,0.0,0.0,0.0,0.0,0.0,0.0,0.0,0.0,0.0,0.0,0.0,0.0,0.0,0.0,0.0,0.0,0.0,0.0,0.0,0.0,0.0,0.0,0.0,0.0,0.0,0.0,0.0,0.0,0.0,0.0,0.0,0.0,0.0,0.0,0.0,0.0,0.0,0.0,0.0,0.0,0.0,0.0,0.0,0.0,0.0,0.0,0.0,0.0,0.0,0.0,0.0,0.0,0.0,0.0,0.0,0.0,0.0,0.0,0.0,0.0,0.0,0.0,0.0,0.0,0.0,0.0,0.0,0.0,0.0,0.0,0.0,0.0,0.0,0.0,0.0,0.0,0.0,0.0,0.0,0.0,0.0,0.0,0.0,0.0,0.0,0.0,0.0,0.0,0.0,0.0,0.0,0.0,0.0,0.0,0.0,0.0,0.0,0.0,0.0,0.0,0.0,0.0,0.0,0.0,0.0,0.0,0.0,0.0,0.0,0.0,0.0,0.0,0.0,0.0,0.0,0.0,0.0,0.0,0.0,0.0,0.0,0.0,0.0,0.0,0.0,0.0,0.0,0.0,0.0,0.0,0.0,0.0,0.0,0.0,0.0,0.0,0.0,0.0,0.0,0.0,0.0,0.0,0.0,0.0,0.0,0.0,0.0,0.0,0.0,0.0,0.0,0.0,0.0,0.0,0.0,0.0,0.0,0.0,0.0,0.0,0.0,0.0,0.0,0.0,0.0,0.0,0.0,0.0,0.0,0.0,0.0,0.0,0.0,0.0,0.0,0.0,0.0,0.0,0.0,0.0,0.0,0.0,0.0,0.0,0.0,0.0,0.0,0.0,0.0,0.0,0.0,0.0,0.0,0.0,0.0,0.0,0.0,0.0,0.0,0.0,0.0,0.0,0.0,0.0,0.0,0.0,0.0,0.0,0.0,0.0,0.0,0.0,0.0,0.0,0.0,0.0,0.0,0.0,0.0,0.0,0.0,0.0,0.0,0.0,0.0,0.0,0.0,0.0,0.0,0.0,0.0,0.0,0.0,0.0,0.0,0.0,0.0,0.0,0.0,0.0,0.0,0.0,0.0,0.0,0.0,0.0,0.0,0.0,0.0,0.0,0.0,0.0,0.0,0.0,0.0,0.0,0.0,0.0,0.0,0.0,0.0,0.0,0.0,0.0,0.0,0.0,0.0,0.0,0.0,0.0,0.0,0.0,0.0,0.0,0.0,0.0,0.0,0.0,0.0,0.0,0.0,0.0,0.0,0.0,0.0,0.0,0.0,0.0,0.0,0.0,0.0,0.0,0.0,0.0,0.0,0.0,0.0,0.0,0.0,0.0,0.0,0.0,0.0,0.0,0.0,0.0,0.0,0.0,0.0,0.0,0.0,0.0,0.0,0.0,0.0,0.0,0.0,0.0,0.0,0.0,0.0,0.0,0.0,0.0,0.0,0.0,0.0,0.0,0.0,0.0,0.0,0.0,0.0,0.0,0.0,0.0,0.0,0.0,0.0,0.0,0.0,0.0,0.0,0.0,0.0,0.0,0.0,0.0,0.0,0.0,0.0,0.0,0.0,0.0,0.0,0.0,0.0,0.0,0.0,0.0,0.0,0.0,0.0,0.0,0.0,0.0,0.0,0.0,0.0,0.0,0.0,0.0,0.0,0.0,0.0,0.0,0.0,0.0,0.0,0.0,0.0,0.0,0.0,0.0,0.0,0.0,0.0,0.0,0.0,0.0,0.0,0.0,0.0,0.0,0.0,0.0,0.0,0.0,0.0,0.0,0.0,0.0,0.0,0.0,0.0,0.0,0.0,0.0,0.0,0.0,0.0,0.0,0.0,0.0,0.0,0.0,0.0,0.0,0.0,0.0,0.0,0.0,0.0,0.0,0.0,0.0,0.0,0.0,0.0,0.0,0.0,0.0,0.0,0.0,0.0,0.0,0.0,0.0,0.0,0.0,0.0,0.0,0.0,0.0,0.0,0.0,0.0,0.0,0.0,0.0,0.0,0.0,0.0,0.0,0.0,0.0,0.0,0.0,0.0,0.0,0.0,0.0,0.0,0.0,0.0,0.0,0.0,0.0,0.0,0.0,0.0,0.0,0.0,0.0,0.0,0.0,0.0,0.0,0.0,0.0,0.0,0.0,0.0,0.0,0.0,0.0,0.0,0.0,0.0,0.0,0.0,0.0,0.0,0.0,0.0,0.0,0.0,0.0,0.0,0.0,0.0,0.0,0.0,0.0,0.0,0.0,0.0,0.0,0.0,0.0,0.0,0.0,0.0,0.0,0.0,0.0,0.0,0.0,0.0,0.0,0.0,0.0,0.0,0.0,0.0,0.0,0.0,0.0,0.0,0.0,0.0,0.0,0.0,0.0,0.0,0.0,0.0,0.0,0.0,0.0,0.0,0.0,0.0,0.0,0.0,0.0,0.0,0.0,0.0,0.0,0.0,0.0,0.0,0.0,0.0,0.0,0.0,0.0,0.0,0.0,0.0,0.0,0.0,0.0,0.0,0.0,0.0,0.0,0.0,0.0,0.0,0.0,0.0,0.0,0.0,0.0,0.0,0.0,0.0,0.0,0.0,0.0,0.0,0.0,0.0,0.0,0.0,0.0,0.0,0.0,0.0,0.0,0.0,0.0,0.0,0.0,0.0,0.0,0.0,0.0,0.0,0.0,0.0,0.0,0.0,0.0,0.0,0.0,0.0,0.0,0.0,0.0,0.0,0.0,0.0,0.0,0.0,0.0,0.0,0.0,0.0,0.0,0.0,0.0,0.0,0.0,0.0,0.0,0.0,0.0,0.0,0.0,0.0,0.0,0.0,0.0,0.0,0.0,0.0,0.0,0.0,0.0,0.0,0.0,0.0,0.0,0.0,0.0,0.0,0.0,0.0,0.0,0.0,0.0,0.0,0.0,0.0,0.0,0.0,0.0,0.0,0.0,0.0,0.0,0.0,0.0,0.0,0.0,0.0,0.0,0.0,0.0,0.0,0.0,0.0,0.0,0.0,0.0,0.0,0.0,0.0,0.0,0.0,0.0,0.0,0.0,0.0,0.0,0.0,0.0,0.0,0.0,0.0,0.0,0.0,0.0,0.0,0.0,0.0,0.0,0.0,0.0,0.0,0.0,0.0,0.0,0.0,0.0,0.0,0.0,0.0,0.0,0.0,0.0,0.0,0.0,0.0,0.0,0.0,0.0,0.0,0.0,0.0,0.0,0.0,0.0,0.0,0.0,0.0,0.0,0.0,0.0,0.0,0.0,0.0,0.0,0.0,0.0,0.0,0.0,0.0,0.0,0.0,-1.9344,0.0,0.0,0.0,0.0,0.0,0.0,0.0,0.0,0.0,0.0,0.0,0.0,0.0,0.0,0.0,0.0,0.0,0.0,0.0,0.0,0.0,0.0,0.0,0.0,0.0,0.0,0.0,0.0,0.0,0.0,0.0,0.0,0.0,0.0,0.0,0.0,0.0,0.0,0.0,-1.7892,-1.8574,-1.9516,-1.962,-1.9695,-1.9704,0.0,0.0,0.0,0.0,0.0,0.0,0.0,0.0,0.0,0.0,0.0,0.0,0.0,0.0,0.0,0.0,0.0,0.0,0.0,0.0,0.0,0.0,0.0,0.0,0.0,0.0,0.0,0.0,0.0,0.0,0.0,0.0,0.0,0.0,0.0,0.0,0.0,0.0,0.0,0.0,0.0,0.0,0.0,0.0,0.0,0.0,0.0,0.0,0.0,0.0,0.0,0.0,0.0,0.0,0.0,0.0,0.0,0.0,0.0,0.0,0.0,0.0,0.0,0.0,0.0,0.0,0.0,0.0,0.0,0.0,0.0,-2.121,0.0,0.0,0.0,0.0,0.0,0.0,0.0,0.0,0.0,0.0,0.0,0.0,0.0,0.0,0.0,0.0,0.0,0.0,0.0,0.0,0.0,0.0,0.0,0.0,-1.7744,-1.7591,-1.7744,-1.7775,0.0,0.0,0.0,0.0,0.0,0.0,0.0,-1.7703,-1.7971,-1.7514,-1.8546,-1.9391,-2.0049,-2.0617,-2.0886,-2.085,-1.9773,0.0,0.0,0.0,0.0,0.0,0.0,0.0,0.0,0.0,0.0,0.0,0.0,0.0,0.0,0.0,0.0,0.0,0.0,0.0,0.0,0.0,0.0,0.0,0.0,0.0,0.0,0.0,0.0,0.0,0.0,0.0,0.0,0.0,0.0,0.0,0.0,0.0,0.0,0.0,0.0,0.0,0.0,0.0,0.0,0.0,0.0,0.0,0.0,0.0,0.0,0.0,0.0,0.0,0.0,0.0,0.0,0.0,0.0,0.0,0.0,0.0,0.0,0.0,-2.2812,-2.3161,-2.3811,-2.3938,-2.3938,-2.3795,-2.3056,-2.209,-2.1018,0.0,0.0,0.0,0.0,0.0,0.0,0.0,0.0,0.0,0.0,0.0,0.0,0.0,0.0,0.0,0.0,0.0,0.0,0.0,0.0,0.0,0.0,-1.7,-1.6744,-1.598,-1.6653,-1.6849,0.0,0.0,0.0,0.0,0.0,0.0,-1.6118,-1.6482,-1.7094,-1.7924,-1.9895,-2.1445,-2.263,-2.2775,-2.3121,-2.3569,-2.1143,-2.0411,-2.096,0.0,0.0,0.0,0.0,0.0,0.0,0.0,0.0,0.0,0.0,0.0,0.0,0.0,0.0,0.0,0.0,0.0,0.0,0.0,0.0,0.0,0.0,0.0,0.0,0.0,0.0,0.0,0.0,0.0,0.0,0.0,0.0,0.0,0.0,0.0,0.0,0.0,0.0,0.0,0.0,0.0,-2.1449,-2.1542,0.0,0.0,0.0,0.0,0.0,0.0,0.0,0.0,0.0,0.0,0.0,0.0,0.0,0.0,-2.401,-2.4026,-2.4558,-2.5564,-2.562,-2.5849,-2.6255,-2.6898,-2.691,-2.6409,-2.6108,0.0,-2.1593,-2.1558,0.0,0.0,0.0,0.0,0.0,0.0,0.0,0.0,0.0,0.0,0.0,0.0,0.0,0.0,0.0,0.0,0.0,0.0,0.0,0.0,0.0,-1.6502,-1.6561,-1.6142,-1.7482,-1.7756,-1.6338,-1.6902,0.0,0.0,0.0,-1.5901,-1.5676,-1.6748,-1.8007,-1.9466,-2.0955,-2.2226,-2.3215,-2.3942,-2.4303,-2.4331,-2.3531,-2.2513,-2.1405,-2.1163,0.0,0.0,0.0,0.0,0.0,0.0,0.0,0.0,0.0,0.0,0.0,0.0,0.0,0.0,0.0,0.0,0.0,0.0,0.0,0.0,0.0,0.0,0.0,0.0,0.0,0.0,0.0,0.0,0.0,0.0,0.0,0.0,0.0,0.0,0.0,0.0,0.0,0.0,0.0,-2.1402,-2.1418,-2.1434,-2.1371,-2.134,0.0,0.0,0.0,0.0,0.0,0.0,0.0,0.0,0.0,-2.3454,-2.4118,-2.4785,-2.5394,-2.581,-2.649,-2.7376,-2.7581,-2.8041,-2.8765,-2.8724,-2.8688,-2.8636,-2.8459,-2.7519,-2.5866,-2.3146,-2.2105,-2.2102,0.0,0.0,0.0,0.0,-2.1528,-2.1827,0.0,0.0,0.0,0.0,0.0,0.0,0.0,0.0,0.0,0.0,0.0,0.0,-1.6024,-1.6808,-1.7305,-1.7395,-1.8767,-1.8953,-1.7335,-1.7674,0.0,0.0,-1.5989,-1.5942,-1.5546,-1.7389,-1.9164,-2.0834,-2.2203,-2.3248,-2.4003,-2.521,-2.5629,-2.5386,-2.5857,-2.476,-2.2582,-2.2482,-2.1713,-2.0597,0.0,0.0,0.0,0.0,0.0,0.0,0.0,0.0,0.0,0.0,0.0,0.0,0.0,0.0,0.0,0.0,0.0,0.0,0.0,0.0,0.0,0.0,0.0,0.0,0.0,0.0,0.0,0.0,0.0,0.0,0.0,0.0,0.0,0.0,0.0,0.0,0.0,-2.1549,-2.1566,-2.1341,-2.1471,-2.1503,0.0,0.0,0.0,0.0,0.0,0.0,-2.3154,-2.3543,-2.4286,-2.5454,-2.6269,-2.6957,-2.7488,-2.8114,-2.8882,-2.9754,-2.977,-3.0241,-3.1086,-3.0458,-3.0336,-3.061,-3.0323,-3.0115,-2.965,-2.5341,-2.3947,-2.4311,-2.2516,-2.2244,-2.2805,-2.2832,-2.3173,-2.363,0.0,0.0,0.0,0.0,0.0,0.0,0.0,0.0,0.0,0.0,0.0,-1.5963,-1.7169,-1.8429,-1.933,-1.9797,-2.0089,-1.9884,-1.9018,-1.7537,-1.6616,-1.6464,-1.5752,-1.5511,-1.5868,-1.8144,-2.0027,-2.1437,-2.3809,-2.5267,-2.5901,-2.7017,-2.7636,-2.7711,-2.7637,-2.6844,-2.5479,-2.376,-2.3032,-2.2878,-2.1203,0.0,0.0,0.0,0.0,0.0,0.0,0.0,0.0,0.0,0.0,0.0,0.0,0.0,0.0,0.0,0.0,0.0,0.0,0.0,0.0,0.0,0.0,0.0,0.0,0.0,0.0,0.0,0.0,0.0,0.0,0.0,0.0,0.0,0.0,0.0,0.0,0.0,0.0,-2.1374,-2.1924,0.0,0.0,0.0,0.0,-2.2345,-2.2993,-2.3963,-2.5263,-2.4788,-2.5694,-2.8409,-2.8336,-2.9258,-3.1288,-3.1625,-3.2322,-3.3435,-3.274,-3.2624,-3.304,-3.2509,-3.2252,-3.2225,-3.1601,-3.1308,-3.1082,-2.8243,-2.7014,-2.6714,-2.4792,-2.4112,-2.4287,-2.4912,-2.5173,-2.5281,0.0,0.0,0.0,0.0,0.0,0.0,0.0,0.0,-1.5651,-1.5462,-1.6073,-1.6868,-1.776,-1.9266,-2.046,-2.1103,-2.1578,-2.1257,-1.9909,-1.8728,-1.7702,-1.6859,-1.6,-1.6293,-1.7862,-1.9176,-2.1058,-2.3509,-2.5131,-2.6483,-2.7547,-2.8263,-2.8875,-2.938,-2.9049,-2.8832,-2.854,-2.6257,-2.4148,-2.2331,-2.194,-2.095,0.0,0.0,0.0,0.0,0.0,0.0,0.0,0.0,0.0,0.0,0.0,0.0,0.0,0.0,0.0,0.0,0.0,0.0,0.0,0.0,0.0,0.0,0.0,0.0,0.0,0.0,0.0,0.0,0.0,0.0,0.0,0.0,0.0,0.0,0.0,0.0,0.0,-2.4013,-2.4286,0.0,-2.4092,-2.4671,-2.4878,-2.4481,-2.5352,-2.6262,-2.7127,-2.7632,-2.8734,-3.0563,-3.1654,-3.22,-3.2237,-3.353,-3.4022,-3.3704,-3.3966,-3.4292,-3.4655,-3.405,-3.3902,-3.4112,-3.3754,-3.3881,-3.4207,-3.2266,-3.0592,-2.908,-2.7519,-2.7426,-2.8187,-2.8003,-2.8203,-2.8541,0.0,0.0,0.0,0.0,0.0,0.0,0.0,0.0,-1.5313,-1.5389,-1.6543,-1.7733,-1.8695,-2.0514,-2.2036,-2.3002,-2.2836,-2.2205,-2.1021,-1.9301,-1.7921,-1.7041,-1.6394,-1.7088,-1.9222,-2.0443,-2.2304,-2.49,-2.6353,-2.7535,-2.8405,-2.8889,-2.9481,-3.0113,-2.9999,-3.0182,-3.0489,-2.8842,-2.6387,-2.3629,-2.3179,-2.2416,-2.1386,0.0,0.0,0.0,0.0,0.0,0.0,0.0,0.0,0.0,0.0,0.0,0.0,0.0,0.0,0.0,0.0,0.0,0.0,0.0,0.0,0.0,0.0,0.0,0.0,0.0,0.0,0.0,0.0,0.0,0.0,0.0,0.0,0.0,0.0,0.0,-2.4977,-2.5875,-2.6393,-2.6568,-2.6325,-2.7042,-2.7352,-2.6953,-2.7715,-2.8672,-2.9728,-3.0033,-3.0966,-3.273,-3.3816,-3.41,-3.3559,-3.4881,-3.5128,-3.4341,-3.4643,-3.4889,-3.5151,-3.4772,-3.4596,-3.4636,-3.4748,-3.5103,-3.5488,-3.4275,-3.3303,-3.2373,-3.0394,-3.0152,-3.0911,-3.0676,-3.091,-3.1259,0.0,0.0,0.0,0.0,0.0,0.0,0.0,-1.5751,-1.5328,-1.5403,-1.6898,-1.8537,-2.0089,-2.2211,-2.4093,-2.5517,-2.3822,-2.2595,-2.2383,-1.9099,-1.7118,-1.7024,-1.696,-1.7875,-1.9869,-2.192,-2.3826,-2.5592,-2.7468,-2.8405,-2.8446,-2.8931,-2.9444,-3.0057,-3.0461,-3.0862,-3.1263,-3.1276,-2.9755,-2.7104,-2.4955,-2.4511,-2.4767,0.0,0.0,0.0,0.0,0.0,0.0,0.0,0.0,0.0,0.0,0.0,0.0,0.0,0.0,0.0,0.0,0.0,0.0,0.0,0.0,0.0,0.0,0.0,0.0,0.0,0.0,0.0,0.0,0.0,0.0,0.0,0.0,0.0,-2.3731,-2.5478,-2.6798,-2.6879,-2.8098,-2.8649,-2.7968,-2.8971,-2.9649,-2.9653,-3.0104,-3.1208,-3.3113,-3.1879,-3.2266,-3.489,-3.4706,-3.4851,-3.5362,-3.5678,-3.574,-3.5588,-3.4875,-3.457,-3.4595,-3.4791,-3.4493,-3.3858,-3.4573,-3.4877,-3.4829,-3.4098,-3.5038,-3.66,-3.338,-3.2147,-3.2261,-3.2878,-3.3194,-3.3208,0.0,0.0,0.0,0.0,0.0,0.0,0.0,-1.5429,-1.5458,-1.5925,-1.7516,-1.9435,-2.1559,-2.3247,-2.47,-2.5931,-2.3762,-2.2119,-2.164,-1.8487,-1.6781,-1.7125,-1.8831,-2.0614,-2.2446,-2.3664,-2.5395,-2.768,-2.8316,-2.8839,-2.9288,-2.9855,-3.0308,-3.0646,-3.0921,-3.1489,-3.2196,-3.1754,-3.1432,-3.0894,-2.8,-2.6126,-2.4928,0.0,0.0,0.0,0.0,0.0,0.0,0.0,0.0,0.0,0.0,0.0,0.0,0.0,0.0,0.0,0.0,0.0,0.0,0.0,0.0,0.0,0.0,0.0,0.0,0.0,0.0,0.0,0.0,0.0,0.0,0.0,0.0,-2.6678,-2.6658,-2.7595,-2.9053,-3.1112,-3.1493,-3.177,-3.2094,-3.2685,-3.302,-3.2921,-3.3752,-3.4702,-3.5735,-3.5554,-3.5723,-3.6474,-3.6599,-3.6104,-3.4906,-3.5692,-3.5935,-3.5604,-3.5791,-3.6163,-3.6695,-3.6729,-3.6638,-3.6456,-3.6671,-3.6754,-3.6737,-3.6539,-3.6803,-3.7157,-3.5438,-3.5364,-3.6231,-3.5953,-3.5519,-3.5053,0.0,0.0,0.0,0.0,0.0,0.0,0.0,-1.5503,-1.5531,-1.6077,-1.7982,-1.9912,-2.1591,-2.3158,-2.4341,-2.4964,-2.3134,-2.1567,-2.069,-1.8472,-1.7688,-1.8792,-2.0747,-2.2872,-2.5086,-2.587,-2.7201,-2.9177,-2.9099,-2.933,-2.9869,-3.0219,-3.0698,-3.1281,-3.1499,-3.212,-3.3024,-3.2777,-3.2986,-3.3237,-3.1156,-2.9462,-2.8,-2.6035,-2.5232,-2.5,-2.3853,-2.3749,-2.4021,-2.2808,0.0,0.0,0.0,0.0,0.0,0.0,0.0,0.0,0.0,0.0,0.0,0.0,0.0,0.0,0.0,0.0,0.0,0.0,0.0,0.0,0.0,0.0,0.0,0.0,-2.7721,-2.9388,-3.0609,-3.0898,-3.1812,-3.4055,-3.4662,-3.5,-3.5328,-3.5837,-3.6091,-3.5893,-3.6357,-3.6891,-3.7433,-3.7172,-3.7118,-3.7335,-3.7492,-3.7017,-3.5883,-3.6437,-3.658,-3.6231,-3.6547,-3.6928,-3.7336,-3.7636,-3.7619,0.0,-3.7653,-3.7786,-3.7769,-3.7453,-3.7711,0.0,0.0,0.0,0.0,0.0,-3.6859,-3.6275,0.0,0.0,0.0,0.0,0.0,0.0,0.0,-1.5724,-1.5577,-1.6043,-1.8219,-2.0039,-2.0837,-2.2377,-2.3357,-2.3391,-2.2118,-2.0824,-1.9655,-1.9046,-1.9554,-2.1366,-2.2853,-2.4898,-2.7584,-2.8183,-2.9,-3.0099,-2.9783,-2.9823,-3.0192,-3.0345,-3.0918,-3.1806,-3.2117,-3.2743,-3.3626,-3.3971,-3.423,-3.4404,-3.3974,-3.3299,-3.2193,-2.9318,-2.8666,-2.9104,-2.7769,-2.6665,-2.5867,-2.6062,0.0,0.0,0.0,0.0,0.0,0.0,0.0,0.0,0.0,0.0,0.0,0.0,0.0,0.0,0.0,0.0,0.0,0.0,0.0,0.0,0.0,0.0,0.0,0.0,-2.995,-3.2044,-3.4739,-3.4728,-3.4882,-3.6058,-3.7187,-3.7807,-3.7625,-3.8229,-3.8551,-3.8368,-3.8116,-3.816,-3.8625,0.0,0.0,0.0,0.0,-3.7732,-3.7509,-3.7509,-3.7411,-3.7235,-3.7235,-3.7268,-3.7367,-3.803,-3.798,-3.7384,-3.8046,-3.8328,-3.8278,-3.7632,-3.8138,-3.9236,-3.8254,-3.7875,-3.7893,-3.8004,-3.7666,-3.7169,0.0,0.0,0.0,0.0,0.0,0.0,0.0,-1.5551,-1.5593,-1.611,-1.7959,-1.9694,-2.0933,-2.1831,-2.2663,-2.333,-2.106,-1.9369,-1.8843,-2.046,-2.2068,-2.3463,-2.5796,-2.7673,-2.8973,-2.9281,-2.9638,-3.0099,-2.9985,-3.0049,-3.0318,-3.1302,-3.1736,-3.182,-3.2695,-3.3255,-3.3597,-3.3957,-3.4312,-3.4616,-3.4551,-3.3707,-3.2338,-3.0819,-3.0261,-3.0076,-2.8444,-2.8693,-2.9498,-2.7563,-2.7427,-2.7798,-2.6175,-2.5192,0.0,0.0,0.0,0.0,0.0,0.0,0.0,0.0,0.0,0.0,0.0,0.0,0.0,0.0,0.0,0.0,0.0,0.0,0.0,-3.115,-3.2999,-3.4801,-3.6227,-3.7317,-3.7785,-3.7425,-3.7644,-3.7928,-3.8204,-3.8552,-3.8932,-3.9393,-3.9109,-3.9269,-4.0041,-3.9681,0.0,-3.9092,-3.8841,-3.8334,-3.7526,-3.7509,-3.7661,-3.7996,0.0,0.0,-3.8884,-3.9033,-3.9017,-3.8884,-3.9033,-3.91,-3.9083,-3.8934,-3.9103,-3.9441,-3.9116,-3.899,-3.9006,-3.9033,-3.8947,-3.8848,0.0,0.0,0.0,0.0,0.0,0.0,0.0,-1.5802,-1.5728,-1.6236,-1.7345,-1.8552,-1.9725,-2.0086,-2.0433,-2.087,-1.9828,-1.9514,-2.0353,-2.2777,-2.4875,-2.6388,-2.8767,-3.0413,-3.1197,-3.0872,-3.0717,-3.0748,-3.012,-3.0021,-3.0466,-3.1088,-3.173,-3.2402,-3.2947,-3.3458,-3.4025,-3.4162,-3.4414,-3.4731,-3.5082,-3.47,-3.3841,-3.2969,-3.2638,-3.2569,-3.1977,-3.1943,-3.2048,-3.1047,-3.0449,-2.999,-2.8966,-2.8003,-2.6889,0.0,0.0,0.0,0.0,0.0,0.0,0.0,0.0,0.0,0.0,0.0,0.0,0.0,0.0,-2.7601,0.0,0.0,-3.2383,-3.3527,-3.5441,-3.7329,-3.8809,-3.9463,-3.9655,-3.9246,-3.9498,-3.9971,-4.0695,-4.0629,-4.0587,-4.0655,-4.0561,-4.0493,-4.0502,-4.0313,-4.0093,-3.9859,-3.9596,-3.9211,-3.8715,-3.8564,-3.8585,-3.8742,-3.8742,-3.8924,-3.9299,-3.9299,-3.9299,-3.9299,-3.9299,-3.9299,-3.9299,-3.9299,-3.9325,-3.9379,-3.9325,-3.9379,-3.9484,-3.9432,-3.9405,-3.9379,0.0,0.0,0.0,0.0,0.0,0.0,0.0,-1.6157,-1.5919,-1.6276,-1.6885,-1.755,-1.8302,-1.8367,-1.8281,-1.8064,-1.8994,-2.0342,-2.2099,-2.5022,-2.7437,-2.9146,-3.1294,-3.2663,-3.3128,-3.233,-3.179,-3.1575,-3.0712,-3.0623,-3.1188,-3.1285,-3.2027,-3.3255,-3.3199,-3.3597,-3.4366,-3.4414,-3.4563,-3.4798,-3.5444,-3.5576,-3.5352,-3.4791,-3.4852,-3.5247,-3.526,-3.4482,-3.3481,-3.3788,-3.2587,-3.096,-3.1092,-3.0372,-2.9004,-2.6562,-2.6175,0.0,0.0,0.0,0.0,0.0,0.0,0.0,0.0,0.0,-2.5419,-2.6828,-2.8359,-2.9732,-3.074,-3.2457,-3.4219,-3.5817,-3.7579,-3.9364,-4.1081,-4.1182,-4.1076,-4.1026,-4.1336,-4.1928,-4.279,-4.2624,-4.222,-4.1655,-4.1721,-4.142,-4.0544,-4.0387,-4.0313,-4.0263,-4.0079,-3.9926,-3.9824,-3.9616,-3.9458,-3.9299,-3.9352,-3.9379,-3.9379,-3.9432,-3.9458,-3.9458,-3.9458,-3.9458,-3.9458,-3.9405,-3.9379,-3.9379,-3.9325,-3.9432,-3.9599,-3.9484,-3.9475,-3.9448,0.0,0.0,0.0,0.0,0.0,0.0,0.0,0.0,-1.6041,-1.6046,-1.7137,-1.7837,-1.7633,-1.7992,-1.7837,-1.6874,-1.936,-2.1343,-2.223,-2.6072,-2.9043,-3.0613,-3.2611,-3.3668,-3.3633,-3.2939,-3.2454,-3.2192,-3.2661,-3.3017,-3.3288,-3.3675,-3.3965,-3.4143,-3.3922,-3.3922,-3.4153,-3.4501,-3.475,-3.4935,-3.5462,-3.5576,-3.5404,-3.5261,-3.5997,-3.685,-3.5085,-3.3908,-3.3145,-3.2534,-3.1785,-3.1172,-3.1701,-3.1769,-3.0998,-2.766,-2.6224,-2.51,-2.2183,-2.194,-2.2653,-2.3139,-2.4256,-2.5885,0.0,0.0,-3.0467,-3.1884,-3.3454,-3.4423,-3.3917,-3.5551,-3.7377,-3.8639,-3.9543,-4.0475,-4.1584,-4.2163,-4.2406,-4.2163,-4.175,-4.1682,-4.2064,-4.2646,-4.2624,-4.1664,-4.1704,-4.1427,-4.0544,-4.0485,-4.0362,-4.0121,-4.0213,-4.0028,-3.9554,-3.9642,-3.9547,-3.9299,-3.9547,-3.9651,-3.9651,-3.991,-4.0011,-4.0011,-4.0011,-4.0011,-3.9995,-3.9755,-3.9651,-3.9625,-3.9405,-3.9325,-3.9352,-3.9325,-3.9325,-3.9325,0.0,0.0,0.0,0.0,0.0,0.0,0.0,0.0,0.0,0.0,-1.6781,-1.7114,-1.7094,-1.7348,-1.7341,-1.6937,-1.9572,-2.173,-2.2808,-2.7312,-3.0354,-3.1284,-3.3383,-3.4307,-3.3838,-3.3108,-3.2851,-3.3058,-3.2911,-3.3155,-3.3777,-3.3991,-3.4416,-3.508,-3.5044,-3.519,-3.5449,-3.5608,-3.5688,-3.572,-3.6321,-3.6261,-3.5814,-3.5854,-3.5454,-3.4713,-3.3466,-3.251,0.0,-3.1518,-3.1214,-3.1109,-3.1796,-3.172,-3.0765,-2.7648,-2.6494,-2.5891,-2.4291,-2.3739,-2.3979,0.0,-2.6642,-2.7955,-2.982,-3.0955,-3.2017,-3.3372,-3.4899,-3.5991,-3.6058,-3.7382,-3.8644,0.0,-4.0635,-4.189,-4.2475,-4.2766,-4.3175,-4.385,-4.2649,-4.202,-4.2569,-4.3053,-4.3099,-4.2515,-4.2513,-4.2228,-4.1415,-4.104,-4.0697,-4.0345,-4.0313,-4.0138,-3.9858,-3.9755,-3.9729,-3.9781,-3.9884,-3.9918,-3.9935,-4.0062,-4.0096,-4.0096,-4.0096,-4.0096,-4.007,-3.9969,-3.9858,-3.9677,-3.9573,-3.9432,-3.9299,-3.9299,-3.9299,-3.9299,0.0,0.0,0.0,0.0,0.0,0.0,0.0,0.0,0.0,0.0,-1.7082,-1.7364,-1.7342,-1.718,-1.7083,-1.7117,-1.9479,-2.1569,-2.297,-2.7508,-3.0505,-3.131,-3.3393,-3.4316,-3.3864,-3.3298,-3.3199,-3.3631,-3.3288,-3.3601,-3.447,-3.4404,-3.4949,-3.5978,-3.5867,-3.5992,-3.6274,-3.6305,-3.6305,-3.6305,-3.6749,-3.6641,-3.6085,-3.5364,-3.3995,-3.2377,-3.1732,-3.075,-2.9707,-2.9513,-2.9448,-2.9561,-3.0312,-3.0312,-2.9496,-2.6938,-2.5756,-2.5283,-2.5292,-2.5158,-2.5524,-2.7646,-2.9205,-3.0503,-3.1621,-3.2943,-3.4152,-3.5046,-3.6324,-3.7335,-3.7566,-3.8472,-3.9325,-3.9684,-4.1468,-4.2935,-4.3259,-4.3442,-4.3655,-4.399,-4.2686,-4.1909,-4.2227,-4.3211,-4.361,-4.3088,-4.3095,-4.2681,-4.1636,-4.1181,-4.0769,-4.0395,-4.0362,-4.0263,-4.0096,-3.991,-3.991,-4.0096,-4.0171,-4.0196,-4.0196,-4.0271,-4.032,-4.032,-4.032,-4.032,-4.0296,-4.0246,-4.0113,-3.991,-3.9755,-3.9573,-3.9405,-3.9325,-3.9299,-3.9299,0.0,0.0,0.0,0.0,0.0,0.0,0.0,0.0,0.0,0.0,0.0,0.0,0.0,-1.784,-1.7265,-1.7191,-1.8993,-2.0795,-2.2329,-2.6106,-2.9013,-3.0658,-3.2421,-3.3466,-3.3694,-3.3555,-3.3555,-3.37,-3.4404,-3.5129,-3.5942,-3.5665,-3.6025,-3.6829,-3.6054,-3.5769,-3.5913,-3.6117,-3.629,-3.6399,-3.6334,-3.6298,-3.5976,-3.3198,-3.1609,-3.0787,-3.0176,-2.8611,-2.6717,-2.5985,-2.5759,-2.5888,-2.6636,-2.7284,-2.7401,-2.5444,-2.3374,0.0,0.0,0.0,-2.6909,-2.9238,-3.1788,-3.3947,-3.4693,-3.6599,-3.8201,-3.8092,-3.8775,-3.9197,-3.8489,-3.8799,-3.9624,-4.0923,-4.2236,-4.3259,-4.3816,-4.4331,-4.3812,-4.1574,-4.1256,-4.0937,0.0,-4.2897,-4.4168,-4.2988,-4.3105,-4.2425,-4.0637,-4.051,-4.0395,-4.0121,-4.0362,-4.0387,-4.0096,-4.0096,-4.0096,-4.0096,-4.0345,-4.0485,-4.051,-4.0752,-4.0888,-4.0888,-4.0888,-4.0888,-4.0864,-4.0607,-4.0468,-4.0419,-3.9893,-3.9703,-3.9651,-3.9405,-3.9299,-3.9299,0.0,0.0,0.0,0.0,0.0,0.0,0.0,0.0,0.0,0.0,0.0,0.0,0.0,0.0,0.0,0.0,-1.9332,-2.0745,-2.118,-2.5041,-2.7535,-2.7957,-3.0284,-3.1566,-3.1574,-3.2004,-3.2682,-3.3581,-3.3419,-3.4164,-3.5708,-3.5249,-3.5728,-3.7026,-3.6751,-3.6932,-3.7385,-3.6868,-3.6621,-3.6418,-3.5117,-3.4287,-3.3539,-3.0833,-2.8753,-2.7118,0.0,-2.5016,-2.4426,-2.4254,-2.4209,-2.4338,-2.5017,-2.51,0.0,-2.3547,0.0,0.0,0.0,0.0,-3.0119,-3.3176,-3.4743,-3.5776,-3.6872,-3.7806,-3.8262,-3.7693,-3.7085,-3.6427,-3.5671,-3.6241,-3.7114,-3.8112,-4.0429,-4.2352,-4.3073,-4.3185,-4.2945,-4.2323,-4.1597,0.0,0.0,0.0,0.0,-4.2693,-4.259,-4.2317,-4.1791,-4.1212,-4.0769,-4.0527,-4.06,-4.0534,-4.0387,-4.0362,-4.0444,-4.0631,-4.0728,-4.0752,-4.0776,-4.0847,-4.0912,-4.0912,-4.0912,-4.0912,-4.0894,-4.0799,-4.0655,-4.0468,-4.0296,-4.0121,-3.9944,-3.9841,-3.9833,-3.9781,0.0,0.0,0.0,0.0,0.0,0.0,0.0,0.0,0.0,0.0,0.0,0.0,0.0,0.0,0.0,0.0,0.0,-2.0055,-2.0221,-2.3194,-2.521,-2.5826,-2.778,-2.9004,-2.9345,-2.9824,-3.0441,-3.1203,-3.1222,-3.1966,-3.3421,-3.3462,-3.4161,-3.536,-3.5655,-3.608,-3.6502,-3.5952,-3.5491,-3.4941,-3.3117,-3.1919,-3.0947,-2.8179,-2.6249,0.0,-2.3058,-2.2482,-2.2533,-2.2634,-2.2685,-2.2799,-2.3219,-2.327,0.0,0.0,0.0,0.0,0.0,-3.093,-3.2708,-3.5706,-3.6728,-3.7208,-3.8084,-3.8351,-3.8197,-3.7441,-3.6173,-3.501,-3.443,-3.4788,-3.5326,-3.5701,-3.7862,-3.9901,-4.0972,-4.0981,-4.1146,-4.188,-4.1288,-4.1052,0.0,0.0,0.0,-4.2376,-4.2257,-4.2016,-4.178,-4.1259,-4.1002,-4.1091,-4.114,-4.1123,-4.105,-4.105,-4.0985,-4.0912,-4.0912,-4.0912,-4.0912,-4.0912,-4.0912,-4.0912,-4.0912,-4.0912,-4.0912,-4.0912,-4.0799,-4.0631,-4.0534,-4.0395,-4.0221,-4.0138,-4.0096,-4.0037,0.0,0.0,0.0,0.0,0.0,0.0,0.0,0.0,0.0,0.0,0.0,0.0,0.0,0.0,0.0,0.0,0.0,0.0,-1.9528,-2.0736,-2.2281,-2.4227,-2.4984,-2.5918,-2.7088,-2.7136,-2.7153,-2.7094,-2.8073,-2.8855,-2.9441,-3.0549,-3.1423,-3.2089,-3.2882,-3.3303,-3.3336,-3.3366,-3.2909,-3.2085,-3.0435,-2.9312,-2.832,-2.5351,-2.4127,-2.3765,-2.1789,-2.1103,-2.1103,-2.1183,0.0,0.0,0.0,0.0,0.0,0.0,0.0,-2.7806,-3.1241,-3.3096,-3.461,-3.6799,-3.7778,-3.8221,-3.8315,-3.8294,-3.8019,-3.7258,-3.5924,-3.4812,0.0,0.0,-3.4274,-3.4003,-3.5101,-3.6512,-3.8058,-3.8301,-3.8901,0.0,0.0,0.0,0.0,0.0,0.0,-4.2157,0.0,-4.1657,-4.0848,-4.0824,-4.1167,-4.1854,-4.2012,-4.205,-4.2016,-4.1964,-4.1602,-4.0912,-4.0912,-4.0912,-4.0912,-4.0912,-4.0912,-4.0912,-4.0912,-4.0912,-4.0912,-4.0912,-4.0912,-4.0871,-4.0631,-4.0534,-4.0485,-4.0221,-4.0121,-4.0096,0.0,0.0,0.0,0.0,0.0,0.0,0.0,0.0,0.0,0.0,0.0,0.0,0.0,0.0,0.0,0.0,0.0,0.0,-1.9183,-2.08,-2.1769,-2.1739,-2.2769,-2.3745,-2.4603,-2.5104,-2.5862,-2.6872,-2.6652,-2.7143,-2.8301,-2.8106,-2.8657,-2.9825,-3.0048,-3.0484,-3.0997,-3.031,-2.9929,-2.9608,-2.7566,-2.6594,-2.6153,-2.3837,-2.2911,-2.2697,-2.1569,-2.1135,-2.1103,0.0,0.0,0.0,0.0,-2.4176,-2.5913,0.0,0.0,-3.1209,-3.3721,-3.5386,-3.6702,-3.7857,-3.8234,-3.8206,-3.7684,-3.6772,-3.5717,-3.4693,-3.2521,-3.0841,0.0,0.0,0.0,-3.4671,-3.6888,0.0,-4.0498,-4.1147,0.0,-4.2144,0.0,-4.2582,-4.2677,-4.2014,0.0,0.0,-4.2368,-4.1978,-4.1973,-4.2358,-4.2664,-4.2911,-4.2904,-4.262,-4.2016,-4.1464,-4.1101,-4.0912,-4.0912,-4.0912,-4.0912,-4.0912,-4.0912,-4.0912,-4.0912,-4.0912,-4.0912,-4.0912,-4.0912,-4.0894,-4.0823,-4.0799,-4.0776,-4.0728,-4.0704,-4.0655,0.0,0.0,0.0,0.0,0.0,0.0,0.0,0.0,0.0,0.0,0.0,0.0,0.0,0.0,0.0,0.0,0.0,0.0,0.0,-2.0312,-2.1,-2.0891,-2.1529,-2.2186,-2.2801,-2.3178,-2.357,-2.3958,-2.4031,-2.4442,-2.5103,-2.5307,-2.5922,-2.6864,-2.7344,-2.78,-2.8184,-2.7659,-2.7238,0.0,0.0,-2.4243,-2.3799,-2.254,-2.2036,-2.1939,-2.1486,-2.1488,-2.1811,0.0,0.0,-2.4058,-2.5033,-2.6623,-2.8438,-3.0188,0.0,-3.3793,-3.5623,-3.6934,-3.789,-3.8294,-3.8165,-3.7663,-3.661,-3.5283,-3.3965,-3.2846,-3.0863,0.0,-3.0008,-3.1012,0.0,0.0,0.0,0.0,-3.974,-4.0333,-4.1076,0.0,-4.3119,0.0,-4.3426,-4.3013,-4.2871,0.0,-4.2587,-4.2365,-4.2766,-4.3079,-4.3427,-4.3806,-4.3723,-4.3465,-4.3017,-4.193,-4.1395,-4.1395,-4.105,-4.0912,-4.0912,-4.0912,-4.0912,-4.0912,0.0,-4.0912,-4.0912,-4.0912,-4.0912,-4.0912,-4.0912,-4.0912,-4.0912,-4.0912,-4.0912,-4.0847,0.0,0.0,0.0,0.0,0.0,0.0,0.0,0.0,0.0,0.0,0.0,0.0,0.0,0.0,0.0,0.0,0.0,0.0,0.0,0.0,-2.0406,-2.0988,-2.0911,-2.11,-2.1589,-2.1591,-2.1236,-2.0531,-2.1452,-2.1766,-2.1573,-2.2725,-2.3456,-2.3831,-2.4772,-2.5186,-2.5217,-2.5202,-2.4765,-2.4047,-2.3207,-2.2452,-2.1811,0.0,-2.1553,-2.1554,-2.1539,-2.1871,-2.2606,-2.426,-2.4885,-2.5363,-2.7474,-2.9259,-3.0982,-3.2935,-3.4441,-3.5752,-3.7096,-3.7922,-3.8391,-3.8391,-3.7792,-3.6805,-3.5364,-3.3834,-3.238,-3.1341,0.0,-2.9417,-3.0139,-3.1023,-3.1893,-3.2704,0.0,-3.4942,-3.8126,-3.8618,-3.9669,-4.2439,-4.3339,-4.3721,-4.3623,-4.3578,-4.3554,-4.3573,-4.3003,-4.2929,-4.3425,-4.3521,-4.3902,-4.4594,-4.4414,-4.4259,-4.4156,-4.2723,-4.1964,-4.1861,-4.1222,-4.0912,-4.0912,-4.0912,-4.0912,-4.0912,0.0,0.0,-4.0912,-4.0912,-4.0912,-4.0912,-4.0912,-4.0912,-4.0912,-4.0912,-4.0912,-4.0864,0.0,0.0,0.0,0.0,0.0,0.0,0.0,0.0,0.0,0.0,-1.8536,-1.82,0.0,0.0,0.0,0.0,0.0,0.0,0.0,0.0,0.0,-2.1086,-2.0458,-2.0421,-2.1106,-2.1019,-2.1204,-2.1711,-2.1788,-2.1825,-2.184,-2.2017,-2.2136,-2.2209,-2.2402,-2.2542,-2.2643,-2.2584,-2.258,-2.2553,-2.2281,-2.2101,-2.1969,-2.194,0.0,0.0,-2.1708,-2.1622,-2.2085,-2.5306,-2.7133,-2.8299,-2.9852,-3.2158,-3.4482,-3.5461,-3.6319,-3.7128,-3.7987,-3.8311,-3.8391,-3.8391,-3.7436,-3.6092,-3.4619,-3.2311,0.0,0.0,-2.8587,-2.8268,-2.8899,-3.0211,-3.2074,-3.4699,-3.5784,-3.7396,-4.0547,-4.1892,-4.2818,0.0,0.0,0.0,0.0,0.0,0.0,0.0,0.0,-4.416,-4.4273,-4.4759,-4.5096,-4.526,-4.4639,-4.4018,-4.3396,-4.2482,-4.1705,-4.1101,-4.0963,-4.0912,-4.0912,-4.0912,-4.0912,-4.0912,-4.0912,0.0,-4.0912,-4.0912,-4.0912,-4.0912,-4.0912,-4.0912,-4.0912,-4.0912,-4.0912,-4.0894,0.0,0.0,0.0,0.0,0.0,0.0,0.0,-1.863,-1.891,-1.9728,-1.9487,-1.9116,-1.8755,-1.8381,-1.8151,0.0,0.0,0.0,0.0,0.0,0.0,0.0,0.0,0.0,-2.1496,-2.1425,0.0,0.0,0.0,0.0,0.0,0.0,0.0,0.0,0.0,-2.1855,-2.1955,-2.1955,-2.2046,-2.22,-2.2163,-2.2147,0.0,0.0,0.0,0.0,0.0,-2.2044,-2.2648,-2.5049,-2.6983,-2.8867,-3.1679,-3.3727,-3.5318,-3.6486,-3.7036,-3.7441,-3.8197,-3.8391,-3.8391,-3.8391,-3.7048,-3.525,-3.342,0.0,0.0,0.0,-2.806,-2.863,-2.9303,-3.1008,0.0,-3.4767,-3.5747,-3.7236,-3.9978,-4.148,0.0,-4.3587,0.0,0.0,0.0,0.0,0.0,0.0,0.0,-4.4967,-4.4967,-4.5234,-4.5397,-4.5397,-4.4665,-4.4311,-4.4337,-4.2785,-4.2033,-4.2085,-4.1291,-4.0912,-4.0912,-4.0912,-4.0912,-4.0912,-4.0912,0.0,-4.0912,-4.0912,-4.0912,-4.0912,-4.0912,-4.0912,-4.0912,-4.0912,-4.1153,-4.1429,0.0,0.0,0.0,0.0,0.0,0.0,0.0,-1.9098,-1.9487,-2.0484,-2.0382,-2.0089,-1.9697,-1.8909,-1.8381,0.0,0.0,0.0,0.0,0.0,0.0,0.0,0.0,0.0,0.0,0.0,0.0,0.0,0.0,0.0,0.0,0.0,0.0,0.0,0.0,0.0,0.0,-2.1984,-2.2089,0.0,0.0,0.0,0.0,0.0,0.0,0.0,0.0,0.0,-2.3093,-2.4547,-2.604,-2.7947,-3.1642,-3.3695,-3.5013,-3.6249,-3.6923,-3.7413,-3.8197,-3.8363,-3.8363,-3.8391,-3.6632,-3.4415,-3.2465,-3.0281,0.0,-2.6993,-2.798,-2.9248,-2.9732,-3.1514,-3.321,0.0,-3.4765,-3.6129,-3.8811,-4.0331,-4.1771,0.0,0.0,0.0,0.0,0.0,0.0,0.0,0.0,0.0,-4.5397,-4.5397,-4.5397,-4.5397,-4.4665,-4.4578,-4.5156,-4.3216,-4.2499,-4.293,-4.1723,-4.105,-4.0912,-4.0912,-4.0912,-4.0912,-4.0912,0.0,0.0,-4.0912,-4.0912,-4.0912,-4.0912,-4.0912,-4.0912,-4.0912,-4.1378,-4.193,0.0,0.0,0.0,0.0,0.0,0.0,0.0,-1.9144,-1.9698,-2.1127,-2.0712,-2.0519,-2.1131,-1.9954,-1.9087,0.0,0.0,0.0,0.0,0.0,0.0,0.0,0.0,0.0,0.0,0.0,0.0,0.0,0.0,0.0,0.0,0.0,0.0,0.0,0.0,0.0,0.0,0.0,0.0,0.0,0.0,0.0,0.0,0.0,0.0,0.0,0.0,0.0,0.0,0.0,0.0,-2.5504,-2.7899,-3.1099,-3.4053,-3.4334,0.0,0.0,-3.8169,-3.8307,-3.8266,-3.8379,-3.6206,-3.3659,-3.2328,0.0,-2.8028,-2.6927,-2.8169,-2.9349,-2.9,-3.0238,-3.1795,-3.3263,-3.3505,-3.483,-3.8594,-4.0264,-4.1695,-4.3308,0.0,0.0,0.0,0.0,0.0,0.0,0.0,0.0,-4.5397,-4.5397,-4.5397,-4.5397,-4.4665,-4.4328,-4.4397,-4.3534,-4.2758,-4.212,-4.1981,-4.155,-4.0912,-4.0912,-4.0912,-4.0912,-4.0912,0.0,0.0,-4.0912,-4.0912,-4.0912,-4.0912,-4.0912,-4.0912,-4.0912,-4.1378,-4.1999,0.0,0.0,0.0,0.0,0.0,0.0,-1.9576,-1.9752,-2.0299,-2.1905,-2.1801,-2.1716,-2.2076,-2.0783,-1.9822,-1.9704,0.0,0.0,0.0,0.0,0.0,0.0,0.0,0.0,0.0,0.0,0.0,0.0,0.0,0.0,0.0,0.0,0.0,0.0,0.0,0.0,0.0,0.0,0.0,0.0,0.0,0.0,0.0,0.0,0.0,0.0,0.0,0.0,0.0,0.0,0.0,0.0,-2.4298,-2.6599,0.0,0.0,-3.4015,-3.5289,-3.7502,-3.8219,-3.8238,-3.7829,-3.5704,-3.337,-3.2001,0.0,-2.7901,-2.7742,-2.8663,-2.9659,-3.0149,-3.1127,-3.2039,-3.2528,-3.2632,0.0,-3.6521,-3.7735,-3.948,0.0,0.0,0.0,0.0,0.0,0.0,0.0,0.0,0.0,-4.5397,-4.5397,-4.5397,-4.5397,-4.4665,-4.4492,-4.4958,-4.3793,-4.3034,-4.2723,-4.224,-4.1619,-4.0912,-4.0912,-4.0912,-4.0912,-4.0912,0.0,0.0,-4.1567,-4.1861,-4.224,-4.1757,-4.1861,-4.2223,-4.174,-4.2344,-4.3327,0.0,0.0,0.0,0.0,0.0,-1.883,-2.0274,-2.0488,-2.0977,-2.2371,-2.246,-2.2446,-2.2569,-2.1571,-2.0858,-2.0777,-2.0658,0.0,0.0,0.0,0.0,0.0,0.0,0.0,0.0,0.0,-2.1812,-2.1812,0.0,0.0,0.0,0.0,0.0,0.0,0.0,0.0,0.0,0.0,0.0,0.0,0.0,0.0,0.0,0.0,0.0,0.0,0.0,0.0,0.0,0.0,0.0,0.0,-2.2272,-2.3543,-2.5957,-2.9762,-3.183,-3.3485,-3.6238,-3.7285,-3.7535,-3.7117,-3.4877,-3.2472,0.0,0.0,-2.7861,-2.8318,-2.9244,-3.0245,-3.1056,-3.1861,-3.2441,-3.2511,-3.2493,-3.3208,-3.5283,-3.6293,-3.7987,0.0,0.0,0.0,0.0,0.0,0.0,0.0,0.0,0.0,0.0,-4.5397,-4.5397,-4.5397,-4.4665,-4.4647,-4.5397,-4.3923,-4.3189,-4.3189,-4.2378,-4.1619,-4.0912,-4.0912,-4.0912,-4.0912,0.0,0.0,0.0,-4.2275,-4.2689,-4.3138,-4.2585,-4.2706,-4.3138,-4.2568,-4.3189,-4.4225,0.0,0.0,0.0,0.0,0.0,0.0,-2.0972,-2.1292,-2.1638,-2.232,-2.2391,-2.2419,-2.2501,-2.2377,-2.2321,-2.2374,-2.0381,0.0,0.0,0.0,0.0,0.0,0.0,0.0,0.0,0.0,-2.1812,-2.1812,-2.1812,-2.1812,0.0,0.0,0.0,0.0,0.0,0.0,0.0,0.0,0.0,0.0,0.0,0.0,0.0,0.0,0.0,0.0,0.0,0.0,0.0,0.0,0.0,0.0,0.0,-2.2835,-2.3836,-2.595,-2.909,-3.2326,-3.4286,-3.5317,-3.5892,-3.6222,-3.3491,-3.0681,0.0,0.0,-2.7913,-2.8318,-2.9877,-3.1177,-3.1194,-3.1861,-3.2651,-3.3371,-3.3332,-3.3781,-3.5463,-3.6783,0.0,0.0,0.0,0.0,0.0,0.0,0.0,0.0,0.0,0.0,0.0,-4.5397,-4.5397,-4.5397,-4.4665,-4.4647,-4.5397,-4.3923,-4.3189,-4.3189,-4.2378,-4.1619,-4.0912,-4.0912,-4.0912,0.0,0.0,0.0,0.0,-4.2861,-4.3189,-4.3189,-4.3189,-4.3189,-4.3189,-4.3189,-4.3655,-4.4311,0.0,0.0,0.0,0.0,0.0,0.0,0.0,-2.1253,-2.1538,-2.2289,-2.2391,-2.2419,-2.2501,-2.2017,-2.1874,-2.2357,-2.1718,0.0,0.0,0.0,0.0,0.0,0.0,0.0,0.0,0.0,-2.1811,-2.1869,-2.1955,-2.207,-2.2217,-2.2113,-2.2127,0.0,0.0,0.0,0.0,0.0,0.0,0.0,0.0,0.0,0.0,0.0,0.0,0.0,0.0,0.0,0.0,0.0,0.0,0.0,0.0,0.0,0.0,-2.3863,-2.6404,0.0,-3.1948,-3.2789,-3.3027,-3.3143,-3.1534,-2.9877,-2.9578,-2.8422,-2.7648,-2.8554,-2.9656,-3.0598,-3.1107,-3.1861,-3.2459,-3.2581,-3.2528,-3.3032,0.0,0.0,0.0,0.0,0.0,0.0,0.0,0.0,0.0,0.0,0.0,0.0,0.0,-4.5397,-4.5397,-4.5397,-4.4665,-4.4647,-4.5397,-4.3923,-4.3189,-4.3189,-4.2378,-4.1619,-4.0912,-4.0912,0.0,0.0,0.0,0.0,0.0,-4.3638,-4.4234,-4.4665,-4.4156,-4.4251,-4.4647,-4.4156,-4.4406,-4.5061,0.0,0.0,0.0,0.0,0.0,0.0,0.0,-2.1624,-2.1793,-2.2298,-2.2366,-2.2377,-2.2446,-2.2024,-2.1912,-2.2357,-2.2338,0.0,0.0,0.0,0.0,0.0,0.0,0.0,-2.1897,-2.184,-2.1869,-2.201,-2.2124,-2.2251,-2.2398,-2.2354,-2.2326,-2.2315,-2.2161,0.0,0.0,0.0,0.0,0.0,0.0,0.0,-2.2699,0.0,0.0,0.0,0.0,0.0,0.0,0.0,0.0,0.0,0.0,0.0,0.0,0.0,-2.4778,0.0,-2.9264,-3.008,-3.0361,-3.0365,-2.9234,0.0,0.0,-2.7656,-2.7405,-2.8627,-2.9755,-3.065,-3.1107,-3.1861,-3.2459,-3.2669,-3.2878,-3.3365,0.0,0.0,0.0,0.0,0.0,0.0,0.0,0.0,0.0,0.0,0.0,0.0,0.0,-4.5018,-4.4992,-4.4992,-4.4552,-4.4535,-4.4992,-4.3492,-4.2758,-4.2741,-4.1964,-4.1343,-4.0912,-4.0912,0.0,0.0,0.0,0.0,0.0,-4.4,-4.4734,-4.5345,-4.4889,-4.501,-4.5328,-4.4889,-4.501,-4.5397,0.0,0.0,0.0,0.0,0.0,0.0,0.0,-2.2296,-2.2296,-2.2296,-2.2296,-2.2324,-2.2394,-2.2338,-2.2324,-2.2394,0.0,0.0,0.0,0.0,0.0,0.0,0.0,0.0,-2.2068,-2.1897,-2.1955,-2.222,-2.234,-2.2446,-2.2521,-2.2674,-2.261,-2.2319,-2.2366,-2.2391,-2.2405,-2.2474,-2.2501,-2.2515,-2.2565,-2.2646,0.0,0.0,0.0,0.0,0.0,0.0,0.0,0.0,0.0,0.0,0.0,0.0,0.0,0.0,0.0,0.0,0.0,0.0,0.0,0.0,0.0,0.0,-2.6724,-2.6857,0.0,-2.8541,-3.0053,-3.1107,-3.1107,-3.1809,-3.2651,-3.3388,-3.4017,-3.4451,0.0,0.0,0.0,0.0,0.0,0.0,0.0,0.0,0.0,0.0,0.0,0.0,0.0,-4.4293,-4.4225,-4.4225,-4.4173,-4.4173,-4.4225,-4.2706,-4.1964,-4.1974,-4.1257,-4.0912,-4.0912,-4.0912,0.0,0.0,0.0,0.0,0.0,-4.4018,-4.4734,-4.5397,-4.5397,-4.5397,-4.5397,-4.5397,-4.5397,-4.5397,0.0,0.0,0.0,0.0,0.0,0.0,0.0,0.0,0.0,0.0,-2.2296,-2.231,-2.2324,-2.231,-2.231,0.0,0.0,0.0,0.0,0.0,0.0,0.0,0.0,0.0,-2.1869,-2.1969,-2.2139,-2.2354,-2.3038,-2.3485,-2.3688,-2.3433,-2.3352,-2.3384,-2.266,-2.2394,-2.2487,-2.2501,-2.2542,-2.2565,-2.2646,-2.2685,0.0,0.0,0.0,0.0,-2.2446,-2.2419,0.0,0.0,0.0,0.0,0.0,0.0,0.0,0.0,-2.3475,0.0,0.0,0.0,0.0,0.0,0.0,-2.6487,0.0,-2.7037,-2.728,-2.7855,-2.9246,-3.0369,-3.0369,-3.1475,-3.2634,-3.3371,-3.358,-3.4086,0.0,0.0,0.0,0.0,0.0,0.0,0.0,0.0,0.0,0.0,0.0,0.0,0.0,-4.3491,-4.3465,-4.3465,-4.2861,-4.2844,-4.3448,-4.193,-4.1447,-4.1974,-4.1257,-4.0912,-4.0912,-4.0912,0.0,0.0,0.0,0.0,-4.4052,-4.4225,-4.4734,-4.5397,-4.5397,-4.5397,-4.5397,-4.5397,-4.5397,-4.5397,0.0,0.0,0.0,0.0,0.0,0.0,0.0,0.0,0.0,0.0,0.0,-2.2296,-2.2296,-2.2296,0.0,0.0,0.0,0.0,0.0,0.0,0.0,0.0,0.0,-2.2027,-2.2118,-2.2254,-2.2416,-2.263,-2.3131,-2.3419,-2.3498,-2.3315,-2.3206,-2.3134,-2.2644,-2.2487,-2.2555,-2.2565,-2.2592,-2.2623,-2.2672,0.0,0.0,0.0,0.0,0.0,-2.2391,-2.2363,0.0,-2.2366,-2.2363,-2.2419,0.0,0.0,0.0,0.0,-2.3582,0.0,0.0,0.0,-2.4568,-2.5196,-2.5614,-2.5984,-2.6445,-2.6877,-2.7291,-2.7642,-2.8983,-3.0106,-3.0106,-3.137,-3.2634,-3.3389,-3.3774,0.0,0.0,0.0,0.0,0.0,0.0,0.0,0.0,0.0,0.0,0.0,0.0,0.0,0.0,-4.2753,-4.2704,-4.2654,-4.1912,-4.1878,-4.2637,-4.1498,-4.1101,-4.1498,-4.1101,-4.0912,-4.0912,-4.0912,-4.1119,0.0,0.0,0.0,-4.3276,-4.3638,-4.4242,-4.4941,-4.5259,-4.5397,-4.5397,-4.5397,-4.5397,-4.5397,0.0,0.0,0.0,0.0,0.0,0.0,0.0,0.0,0.0,0.0,0.0,0.0,0.0,0.0,0.0,0.0,0.0,0.0,0.0,0.0,0.0,0.0,-2.2257,-2.2271,-2.2511,-2.2588,-2.2734,-2.2902,-2.3171,-2.3254,-2.3132,-2.3159,-2.2909,-2.2432,-2.2565,-2.2632,-2.2619,-2.2659,-2.2659,-2.2619,-2.2672,0.0,0.0,0.0,0.0,0.0,0.0,0.0,0.0,-2.2377,-2.2366,-2.2366,-2.2542,0.0,0.0,0.0,0.0,0.0,-2.4308,-2.4261,-2.4365,-2.4365,-2.4846,-2.548,-2.6001,-2.6804,-2.7527,-2.7817,-2.9158,-3.0282,-3.0282,-3.144,0.0,0.0,0.0,0.0,0.0,0.0,0.0,0.0,0.0,0.0,0.0,0.0,0.0,0.0,0.0,0.0,0.0,-4.2077,-4.1957,-4.1843,-4.124,-4.1229,-4.1843,-4.1222,-4.0912,-4.0912,-4.0912,-4.0912,-4.0912,-4.0912,-4.0963,0.0,0.0,0.0,-4.224,-4.2792,-4.3517,-4.4363,-4.4992,-4.5294,-4.538,-4.5259,-4.5225,-4.5225,0.0,0.0,0.0,0.0,0.0,0.0,0.0,0.0,0.0,0.0,0.0,0.0,0.0,0.0,0.0,0.0,0.0,0.0,0.0,0.0,0.0,-2.2646,-2.2511,-2.248,-2.2571,-2.2708,-2.2812,-2.291,-2.4098,-2.4683,-2.4659,-2.4505,-2.375,-2.2565,-2.2777,-2.279,-2.2672,-2.2632,-2.2632,-2.2685,-2.2699,0.0,0.0,0.0,0.0,0.0,0.0,0.0,0.0,-2.2338,-2.2377,-2.2474,-2.2515,0.0,0.0,0.0,0.0,0.0,-2.3602,-2.4756,-2.5946,-2.5557,-2.6219,-2.6894,-2.6719,-2.766,-2.8596,-2.8704,-2.9948,-3.1019,0.0,-3.1774,-3.2634,0.0,0.0,0.0,0.0,0.0,0.0,0.0,0.0,0.0,0.0,0.0,0.0,0.0,0.0,0.0,0.0,0.0,-4.122,-4.1067,-4.1075,-4.1075,-4.1067,-4.0963,-4.0912,-4.0912,-4.0912,-4.0912,-4.0912,-4.0912,-4.1257,0.0,0.0,-4.1705,-4.2965,-4.2413,-4.3034,-4.4311,-4.4432,-4.4854,-4.5311,-4.4699,-4.4483,-4.4483,0.0,0.0,0.0,0.0,0.0,0.0,0.0,0.0,0.0,0.0,0.0,0.0,0.0,0.0,0.0,0.0,0.0,0.0,0.0,0.0,-2.2432,-2.2632,-2.2596,-2.2592,-2.2655,-2.285,-2.311,-2.3388,-2.3727,-2.4118,-2.451,-2.3984,-2.3404,-2.2816,-2.2764,-2.2725,-2.2699,-2.2619,-2.2619,-2.2646,0.0,0.0,0.0,0.0,0.0,0.0,0.0,0.0,0.0,0.0,-2.2446,-2.246,-2.2565,0.0,0.0,0.0,0.0,0.0,-2.3849,-2.492,-2.6118,-2.6536,-2.7448,-2.8167,-2.7756,-2.8551,-2.9414,-2.9529,-3.0422,-3.1317,0.0,0.0,-3.4161,-3.5723,0.0,0.0,0.0,0.0,0.0,0.0,0.0,0.0,0.0,0.0,0.0,0.0,0.0,0.0,0.0,0.0,-4.107,-4.1006,-4.1,-4.0959,-4.0912,-4.0912,-4.0912,-4.0912,-4.0912,-4.0912,-4.0912,-4.0912,-4.1084,-4.1395,0.0,-4.1309,-4.1964,-4.1999,-4.243,-4.3103,-4.3534,-4.3914,-4.4165,-4.3845,-4.3966,-4.4311,0.0,0.0,0.0,0.0,0.0,0.0,0.0,0.0,0.0,0.0,0.0,0.0,0.0,0.0,0.0,0.0,0.0,0.0,0.0,-2.2338,-2.2419,-2.2632,-2.2646,-2.2685,-2.2777,-2.3101,-2.3397,-2.3611,-2.3545,-2.3741,-2.4134,-2.3565,-2.321,-2.3045,-2.2889,-2.2799,-2.2751,-2.2712,-2.2659,-2.2609,0.0,0.0,0.0,0.0,0.0,0.0,0.0,0.0,0.0,0.0,0.0,0.0,0.0,0.0,0.0,-2.2685,-2.3017,-2.3443,-2.3769,-2.4762,-2.5859,-2.6554,-2.7706,-2.8699,-2.8903,-2.9691,-3.0554,-3.1056,-3.1756,0.0,0.0,-3.3898,0.0,0.0,0.0,0.0,0.0,0.0,0.0,0.0,0.0,0.0,0.0,0.0,0.0,0.0,0.0,0.0,0.0,0.0,-4.1087,-4.1047,-4.0982,-4.0935,-4.0912,-4.0912,-4.0912,-4.0912,-4.0912,-4.0912,-4.0912,-4.0912,-4.0912,-4.0912,-4.0912,-4.0912,-4.0946,-4.1516,-4.1836,-4.2068,-4.2689,-4.2913,-4.2913,-4.2913,-4.3276,-4.3793,0.0,0.0,0.0,0.0,0.0,0.0,0.0,0.0,0.0,0.0,0.0,0.0,0.0,0.0,0.0,0.0,0.0,0.0,0.0,-2.2419,-2.2515,-2.2777,-2.279,-2.2855,-2.2982,-2.3545,-2.358,-2.3052,-2.4448,-2.483,-2.4294,-2.4417,-2.401,-2.3205,-2.3424,-2.3295,-2.2893,-2.2957,-2.2829,-2.2623,-2.2659,0.0,0.0,0.0,0.0,0.0,0.0,0.0,0.0,0.0,0.0,0.0,0.0,0.0,-2.2542,-2.2659,-2.268,-2.2654,-2.2572,-2.4075,-2.5568,-2.4941,-2.6082,-2.7887,-3.0041,-3.1272,-3.2406,-3.4019,-3.4969,-3.5285,0.0,-3.4636,0.0,0.0,0.0,0.0,0.0,0.0,0.0,0.0,0.0,0.0,0.0,0.0,0.0,0.0,0.0,0.0,0.0,0.0,0.0,-4.0935,-4.1023,-4.1023,-4.0912,-4.0912,-4.0912,-4.0912,-4.0912,-4.0912,-4.0912,-4.0912,-4.0912,-4.0912,-4.0912,-4.0912,-4.0912,-4.0963,-4.1395,-4.2016,-4.2068,-4.2102,-4.2102,-4.2102,-4.2137,-4.2275,0.0,0.0,0.0,0.0,0.0,0.0,0.0,0.0,0.0,0.0,0.0,0.0,0.0,0.0,0.0,0.0,0.0,0.0,0.0,-2.2352,-2.2391,-2.2555,-2.2619,-2.2738,-2.2863,-2.3146,-2.3371,-2.3562,-2.4483,-2.461,-2.3995,-2.3977,-2.3749,-2.3313,-2.3247,-2.3077,-2.2842,-2.2777,-2.2699,-2.2592,-2.2565,-2.2582,0.0,0.0,0.0,0.0,0.0,0.0,0.0,0.0,-2.2609,-2.2569,-2.2579,-2.2579,-2.2552,-2.2565,-2.2542,-2.2576,-2.3022,-2.4377,-2.569,-2.5908,-2.6871,-2.8407,-3.0888,-3.2175,-3.3172,-3.4348,-3.5614,-3.6443,0.0,0.0,0.0,0.0,0.0,0.0,0.0,0.0,0.0,0.0,0.0,0.0,0.0,0.0,0.0,0.0,0.0,0.0,0.0,0.0,0.0,-4.1088,-4.1099,-4.1047,-4.0912,-4.0912,-4.0912,-4.0912,-4.0912,-4.0912,-4.0912,-4.0912,-4.0912,-4.0912,-4.0912,-4.0912,-4.0912,-4.0912,-4.1067,-4.1326,-4.1326,-4.1326,-4.1326,-4.1326,-4.1619,-4.205,0.0,0.0,0.0,0.0,0.0,0.0,0.0,0.0,0.0,0.0,0.0,0.0,0.0,0.0,0.0,0.0,0.0,0.0,-2.2296,-2.2282,-2.2324,-2.246,-2.2582,-2.2699,-2.2829,-2.2977,-2.3285,-2.3772,-2.4207,-2.4197,-2.3795,-2.3703,-2.3602,-2.351,-2.333,-2.3139,-2.2957,-2.2842,-2.2725,-2.2619,-2.2565,-2.2552,0.0,0.0,0.0,0.0,0.0,0.0,0.0,0.0,-2.2632,-2.2582,-2.2582,-2.2542,-2.2501,-2.2501,-2.2627,-2.2841,-2.3142,-2.4364,-2.5692,-2.6349,-2.7266,-2.8869,-3.2199,-3.3283,-3.4126,-3.5968,-3.6873,-3.7409,-3.7672,0.0,0.0,0.0,0.0,0.0,0.0,0.0,0.0,0.0,0.0,0.0,0.0,0.0,0.0,0.0,0.0,0.0,0.0,0.0,0.0,0.0,-4.1123,-4.1047,-4.0912,-4.0912,-4.0912,-4.0912,-4.0912,-4.0912,-4.0912,-4.0912,-4.0912,-4.0912,-4.0912,-4.0912,-4.0912,-4.0912,-4.0912,-4.0912,-4.0912,-4.0912,-4.0912,-4.0912,-4.1222,-4.1705,0.0,0.0,0.0,0.0,0.0,0.0,0.0,0.0,0.0,0.0,0.0,0.0,0.0,0.0,0.0,0.0,0.0,0.0,-2.2296,-2.2225,-2.2324,-2.2579,-2.2672,-2.2764,-2.2906,-2.323,-2.3447,-2.3504,-2.37,-2.3806,-2.3806,-2.3806,-2.3792,-2.3804,-2.3804,-2.3611,-2.3301,-2.3229,-2.302,-2.2712,-2.2699,-2.2699,-2.2699,0.0,0.0,0.0,0.0,0.0,0.0,0.0,-2.2623,-2.2501,-2.2501,-2.2405,-2.2338,-2.246,-2.303,-2.3426,-2.264,-2.3885,-2.5494,-2.5833,-2.6892,-2.9136,-3.4066,-3.4728,-3.5422,-3.946,-3.9115,-3.8357,-3.9143,-3.8673,0.0,0.0,0.0,0.0,0.0,0.0,0.0,0.0,0.0,0.0,0.0,0.0,0.0,0.0,0.0,0.0,0.0,0.0,0.0,0.0,-4.1093,-4.1029,-4.0912,-4.0894,-4.0894,-4.0912,-4.0912,-4.0912,-4.0912,-4.0912,-4.0912,-4.0912,-4.0912,-4.0912,-4.0912,-4.0912,-4.0912,-4.0912,-4.0912,-4.0912,-4.0912,-4.0912,-4.0912,-4.1015,0.0,0.0,0.0,0.0,0.0,0.0,0.0,0.0,0.0,0.0,0.0,0.0,0.0,0.0,0.0,0.0,0.0,0.0,-2.2432,-2.2592,-2.2725,-2.2816,-2.297,-2.3095,-2.318,-2.3504,-2.3693,-2.37,-2.3824,-2.3876,-2.3876,-2.3876,-2.3831,-2.3721,-2.3685,-2.3531,-2.3301,-2.3277,-2.3193,-2.308,-2.3502,-2.3662,-2.3661,0.0,0.0,0.0,0.0,0.0,0.0,0.0,0.0,0.0,-2.2515,-2.2474,-2.2548,-2.3102,-2.334,-2.3519,-2.4127,-2.5725,-2.7165,-2.6881,-2.9111,-3.201,-3.4446,-3.4273,-3.472,-3.872,-3.8768,-3.8357,-3.9143,0.0,0.0,0.0,0.0,0.0,0.0,0.0,0.0,0.0,0.0,0.0,0.0,0.0,0.0,0.0,0.0,0.0,0.0,0.0,0.0,0.0,-4.0762,-4.0654,-4.0894,-4.0429,-4.0429,-4.0912,-4.0912,-4.0912,-4.0912,-4.0912,-4.0912,-4.0912,-4.0912,-4.0912,-4.0912,-4.0912,-4.0912,-4.0912,-4.0912,-4.0912,-4.0912,-4.0912,-4.0912,-4.0929,0.0,0.0,0.0,0.0,0.0,0.0,0.0,0.0,0.0,0.0,-2.2542,-2.2501,0.0,0.0,0.0,0.0,0.0,0.0,0.0,-2.2816,-2.2952,-2.3089,-2.3193,-2.3319,-2.3486,-2.3682,-2.3771,-2.3806,-2.3896,-2.3927,-2.3907,-2.4224,-2.4153,-2.3797,-2.4035,-2.3889,-2.3452,-2.3424,-2.3502,-2.3618,-2.3933,-2.4184,-2.4389,0.0,0.0,0.0,0.0,0.0,0.0,0.0,0.0,0.0,-2.3002,-2.309,-2.3428,-2.3932,-2.423,-2.4637,-2.5614,-2.6948,-2.8169,-2.8508,-3.0523,-3.2881,-3.4647,-3.5766,0.0,0.0,-3.9437,-3.9224,-4.0056,0.0,0.0,0.0,0.0,0.0,0.0,0.0,0.0,0.0,0.0,0.0,0.0,0.0,0.0,0.0,0.0,0.0,0.0,0.0,0.0,0.0,-4.0311,-4.0361,-4.0516,-4.0095,-4.0251,-4.0982,-4.0935,-4.0912,-4.0912,-4.0912,-4.0912,-4.0912,-4.0912,-4.0912,-4.0912,-4.0912,-4.0912,-4.0912,-4.0912,-4.0912,-4.0912,-4.0912,-4.0912,-4.0912,0.0,0.0,0.0,0.0,0.0,0.0,0.0,0.0,0.0,0.0,-2.2487,-2.246,0.0,0.0,0.0,0.0,0.0,0.0,0.0,-2.2944,-2.3102,-2.3394,-2.3365,-2.3492,-2.3785,-2.3742,-2.3742,-2.3806,-2.3927,-2.3966,-2.3925,-2.4641,-2.4641,-2.4042,-2.4643,-2.4498,-2.3801,-2.3678,-2.3827,-2.415,-2.416,-2.449,-2.4962,-2.4979,0.0,0.0,0.0,0.0,0.0,0.0,0.0,0.0,-2.3816,-2.4069,-2.4645,-2.487,-2.5504,-2.6335,-2.7047,-2.7754,-2.8716,-3.0403,-3.1452,-3.2687,-3.5074,-3.8313,-4.0845,-4.0995,0.0,-4.0666,0.0,0.0,0.0,0.0,0.0,0.0,0.0,0.0,0.0,0.0,0.0,0.0,0.0,0.0,0.0,0.0,0.0,0.0,0.0,0.0,0.0,0.0,-3.9722,-4.0005,-3.9811,-3.9834,-4.0233,0.0,-4.0924,-4.0912,-4.0912,-4.0912,-4.0912,-4.0912,-4.0912,-4.0912,-4.0912,-4.0912,-4.0912,-4.0912,-4.0912,-4.0912,-4.0912,-4.0912,-4.0912,-4.0912,0.0,0.0,0.0,0.0,0.0,0.0,0.0,0.0,0.0,0.0,0.0,0.0,0.0,0.0,0.0,0.0,0.0,0.0,0.0,-2.3217,-2.3494,-2.3544,-2.3634,-2.3703,-2.3714,-2.3768,-2.381,-2.3886,-2.3907,-2.3917,-2.3907,-2.413,-2.4447,-2.4823,-2.44,-2.4392,-2.4689,-2.4032,-2.3815,-2.3981,-2.5069,-2.5511,-2.5654,-2.6707,-2.7051,0.0,0.0,0.0,0.0,0.0,0.0,0.0,-2.4471,-2.4552,-2.4821,-2.5605,-2.6249,-2.6938,-2.7937,-2.8645,-2.9541,-3.1216,-3.3299,-3.5429,-3.7452,-3.8328,-3.8883,-3.9363,-4.0358,0.0,0.0,0.0,0.0,0.0,0.0,0.0,0.0,0.0,0.0,0.0,0.0,0.0,0.0,0.0,0.0,0.0,0.0,0.0,0.0,0.0,0.0,-3.899,-3.8702,-3.873,-3.9032,-3.919,-3.9573,0.0,-4.0776,-4.1,-4.0912,-4.0912,-4.0912,-4.0912,-4.0912,-4.0912,-4.0912,-4.0912,-4.0912,-4.0912,-4.0912,-4.0912,-4.0912,-4.0912,-4.0912,-4.0912,0.0,0.0,0.0,0.0,0.0,0.0,0.0,0.0,0.0,0.0,0.0,0.0,0.0,0.0,0.0,0.0,0.0,0.0,0.0,0.0,-2.3652,-2.3652,-2.3754,-2.3782,-2.3753,-2.3782,-2.3831,-2.3847,-2.3886,-2.3886,-2.3865,-2.4286,-2.4496,-2.4532,-2.4548,-2.4535,-2.4458,-2.4057,-2.4038,-2.4332,-2.541,-2.5961,-2.6264,-2.7331,-2.7657,-2.7539,-2.743,0.0,0.0,0.0,0.0,0.0,0.0,0.0,-2.5872,-2.597,-2.6567,-2.7442,-2.8577,-2.923,-3.0128,-3.2391,0.0,-3.5876,-3.7674,-3.7575,-3.7468,-3.8659,0.0,0.0,0.0,0.0,0.0,0.0,0.0,0.0,0.0,0.0,0.0,0.0,0.0,0.0,0.0,0.0,0.0,0.0,0.0,0.0,0.0,-3.7877,-3.8023,-3.7952,-3.8003,-3.8157,-3.8407,-3.8531,-3.8897,-3.9516,-3.9839,-4.0107,-4.0359,-4.0722,-4.0912,-4.0912,-4.0912,-4.0912,-4.0912,-4.0912,-4.0912,-4.0912,-4.0912,-4.0912,-4.0912,-4.0912,-4.0912,-4.0912,0.0,0.0,0.0,0.0,0.0,0.0,0.0,0.0,0.0,0.0,0.0,0.0,0.0,0.0,0.0,0.0,0.0,0.0,0.0,0.0,0.0,-2.3721,-2.3771,-2.3806,-2.3816,-2.3816,-2.3816,-2.3816,-2.3993,-2.4065,-2.4013,-2.4704,-2.47,-2.4133,-2.5011,-2.4982,-2.4304,-2.4364,-2.461,-2.501,-2.5773,-2.633,-2.6794,-2.7575,-2.7818,-2.773,-2.7644,-2.7569,-2.7478,-2.726,0.0,0.0,0.0,0.0,-2.6779,-2.622,-2.6685,-2.762,-2.8785,-2.9506,-3.0612,-3.3254,-3.4347,0.0,-3.6908,-3.6559,-3.6329,-3.787,0.0,0.0,0.0,0.0,0.0,0.0,0.0,0.0,0.0,0.0,0.0,0.0,0.0,0.0,0.0,0.0,0.0,0.0,0.0,0.0,-3.7007,-3.7542,-3.7513,-3.6826,-3.7461,-3.7831,-3.7793,-3.795,-3.8314,-3.8926,-3.8847,-3.9052,-3.9526,-4.0204,-4.0584,-4.0705,-4.0705,-4.0705,-4.0705,-4.0843,-4.0825,-4.0722,-4.086,-4.0825,-4.0722,-4.086,-4.0912,-4.0912,0.0,0.0,0.0,0.0,0.0,0.0,0.0,0.0,0.0,0.0,-2.2636,-2.2712,0.0,0.0,0.0,0.0,0.0,0.0,0.0,0.0,0.0,-2.3774,-2.3795,-2.3827,-2.3886,-2.3886,-2.3886,-2.3886,-2.4534,-2.4857,-2.4846,-2.507,-2.5092,-2.4987,-2.5786,-2.6061,-2.5889,-2.5889,-2.5939,-2.6067,-2.6868,-2.7199,-2.7299,-2.8147,-2.8406,-2.8286,-2.8146,-2.8031,-2.7901,-2.7683,-2.7474,0.0,0.0,0.0,0.0,-2.6551,-2.674,-2.7012,-2.7998,-2.9438,-3.108,0.0,-3.3477,-3.4185,0.0,0.0,-3.5113,0.0,0.0,0.0,0.0,0.0,0.0,0.0,0.0,0.0,0.0,0.0,0.0,0.0,0.0,0.0,0.0,0.0,0.0,0.0,0.0,0.0,-3.7007,-3.7075,-3.7033,-3.6809,-3.7033,-3.7086,-3.6948,-3.7714,-3.8117,-3.8154,-3.8604,-3.8775,-3.8732,-3.8853,-3.925,-3.9853,-3.9853,-3.9853,-3.9905,-4.0618,-4.0498,-3.9922,-4.0636,-4.0457,-3.9939,-4.0653,-4.0912,-4.0912,0.0,0.0,0.0,0.0,0.0,0.0,0.0,0.0,0.0,0.0,0.0,-2.3593,0.0,0.0,0.0,0.0,0.0,0.0,0.0,0.0,0.0,-2.3847,-2.3816,-2.3827,-2.3896,-2.3847,-2.4055,-2.4526,-2.4871,-2.5277,-2.5679,-2.6229,-2.6222,-2.5731,-2.6127,-2.625,-2.6204,-2.6227,-2.6227,-2.6276,-2.7079,-2.7375,-2.7441,-2.8279,-2.8536,-2.8445,-2.8353,-2.8242,-2.8128,-2.7861,-2.776,-2.773,-2.7644,0.0,0.0,0.0,-2.6607,-2.6897,-2.8057,-2.9557,-3.1148,0.0,-3.299,-3.3464,-3.5256,0.0,-3.4287,0.0,0.0,0.0,0.0,0.0,0.0,0.0,0.0,0.0,0.0,0.0,0.0,0.0,0.0,0.0,0.0,0.0,0.0,0.0,0.0,-3.7007,-3.7007,-3.6888,-3.6866,-3.6908,-3.6849,-3.6849,-3.6908,-3.7284,-3.7416,-3.7286,-3.793,-3.8148,-3.7996,-3.7996,-3.8392,-3.9077,-3.9077,-3.9077,-3.9112,-3.9479,-3.941,-3.9146,-3.9922,-4.0008,-3.9802,-4.0601,-4.0912,-4.0912,0.0,0.0,0.0,0.0,0.0,0.0,0.0,0.0,0.0,0.0,0.0,0.0,0.0,0.0,0.0,0.0,0.0,0.0,0.0,0.0,0.0,0.0,-2.4026,-2.4124,-2.4184,-2.4345,-2.4712,-2.5298,-2.556,-2.5966,-2.653,-2.7381,-2.7423,-2.6808,-2.6855,-2.6746,-2.653,-2.6782,-2.6855,-2.6862,-2.7459,-2.7695,-2.7785,-2.8574,-2.8856,-2.8822,-2.8932,-2.8851,-2.8613,0.0,-2.8213,0.0,0.0,0.0,0.0,0.0,0.0,-2.6411,0.0,0.0,-3.0024,-3.1887,-3.224,-3.261,0.0,0.0,0.0,0.0,0.0,0.0,0.0,0.0,0.0,0.0,0.0,0.0,0.0,0.0,0.0,0.0,0.0,0.0,0.0,0.0,0.0,0.0,0.0,-3.6831,-3.6445,-3.6599,-3.6719,-3.6689,-3.6721,-3.6721,-3.6689,-3.6708,-3.6696,-3.6702,-3.7259,-3.7411,-3.7202,-3.7202,-3.7512,-3.8025,-3.8237,-3.8301,-3.8318,-3.8508,-3.8474,-3.8405,-3.9336,-3.9577,-3.9526,-4.0532,-4.0912,-4.0912,0.0,0.0,0.0,0.0,0.0,0.0,0.0,0.0,0.0,0.0,0.0,0.0,-2.3604,-2.3478,-2.3472,-2.3721,-2.3768,0.0,0.0,0.0,0.0,0.0,0.0,0.0,-2.4947,-2.5742,-2.6159,-2.6149,-2.6898,-2.7296,-2.7351,-2.8165,-2.8527,-2.8491,-2.8473,-2.8038,-2.7387,-2.8165,-2.8473,-2.8491,-2.8527,-2.8545,-2.8623,-2.9367,-2.9629,-2.971,-3.0349,-3.0176,0.0,0.0,0.0,0.0,-2.8273,-2.7441,-2.6443,0.0,0.0,0.0,-2.6352,-2.6465,0.0,-3.0058,-3.0817,-3.1386,0.0,0.0,0.0,0.0,0.0,0.0,0.0,0.0,0.0,0.0,0.0,0.0,0.0,0.0,0.0,0.0,0.0,0.0,0.0,0.0,0.0,0.0,0.0,-3.6357,-3.4899,-3.6081,-3.6499,-3.588,-3.6484,-3.6481,-3.5862,-3.5862,-3.6134,-3.6702,-3.6737,-3.6613,-3.6353,-3.6353,-3.6387,-3.6456,-3.7215,-3.7564,-3.7616,-3.8323,-3.818,-3.7702,-3.9129,-3.9267,-3.8836,-4.0359,-4.0912,-4.0912,0.0,0.0,0.0,0.0,0.0,0.0,0.0,0.0,0.0,0.0,0.0,0.0,0.0,-2.5955,-2.5991,-2.6138,-2.5656,0.0,0.0,0.0,0.0,0.0,0.0,0.0,-2.5832,-2.6093,-2.6487,-2.6971,-2.726,-2.7658,-2.8183,-2.8473,-2.86,-2.86,-2.86,-2.8437,-2.8183,-2.8491,-2.86,-2.8654,-2.9156,-2.9373,-2.9463,-3.0233,-3.0541,-3.0564,0.0,0.0,0.0,0.0,0.0,0.0,-2.8541,-2.8089,-2.7571,-2.6687,-2.6187,-2.6065,-2.6732,0.0,0.0,-2.9265,-2.9541,-2.9765,-3.2093,0.0,0.0,0.0,0.0,0.0,0.0,0.0,0.0,0.0,0.0,0.0,0.0,0.0,0.0,0.0,0.0,0.0,0.0,0.0,0.0,0.0,0.0,0.0,-3.4776,-3.5498,-3.5955,-3.5922,-3.5484,-3.5201,-3.5092,-3.5507,-3.5795,-3.5936,-3.6359,-3.6482,-3.6301,-3.6301,-3.6301,-3.6318,-3.6594,-3.6715,-3.6749,-3.7008,-3.6956,-3.6818,-3.787,-3.8427,-3.8715,-3.9733,-4.0463,-4.0912,0.0,0.0,0.0,0.0,0.0,0.0,0.0,0.0,0.0,-2.5022,0.0,0.0,0.0,0.0,-2.6959,-2.7012,-2.6512,-2.6187,-2.6135,-2.6122,0.0,0.0,0.0,0.0,-2.6667,-2.6886,-2.726,-2.7803,-2.7803,-2.8075,-2.86,-2.86,-2.86,-2.86,-2.86,-2.86,-2.8618,-2.8838,-2.8938,-2.8993,-2.9782,-3.0103,-3.018,-3.1024,-3.1345,0.0,0.0,0.0,0.0,0.0,0.0,0.0,-2.908,-2.8442,-2.7834,-2.6978,-2.6463,-2.6211,-2.6614,0.0,0.0,0.0,0.0,-2.8731,-3.03,0.0,0.0,0.0,0.0,0.0,0.0,0.0,0.0,0.0,0.0,0.0,0.0,0.0,0.0,0.0,0.0,0.0,0.0,0.0,0.0,0.0,0.0,0.0,-3.3949,-3.4676,-3.5254,-3.548,-3.4594,-3.4277,-3.4633,-3.5066,-3.5335,-3.5459,-3.618,-3.6423,-3.6301,-3.6301,-3.6301,-3.6301,-3.6301,-3.6301,-3.6301,-3.6301,-3.6301,-3.6404,-3.7478,-3.8185,-3.8715,-3.9715,-4.0446,-4.0912,0.0,0.0,0.0,0.0,0.0,0.0,0.0,0.0,-2.5351,-2.6138,0.0,0.0,0.0,0.0,0.0,-2.6164,-2.6223,-2.6276,-2.6276,-2.6276,-2.6276,-2.6276,-2.7025,-2.7441,-2.7441,-2.8201,-2.86,-2.86,-2.86,-2.86,-2.86,-2.86,-2.86,-2.86,-2.8618,-2.8636,-2.8677,-2.9341,-2.9611,-2.9683,-3.0442,-3.0747,-3.0837,-3.1699,0.0,0.0,-3.2824,-3.2637,0.0,-3.2137,0.0,0.0,-2.9868,-2.8425,-2.708,-2.7176,-2.6298,-2.5365,0.0,0.0,0.0,0.0,0.0,0.0,0.0,0.0,0.0,0.0,0.0,0.0,0.0,0.0,0.0,0.0,0.0,0.0,0.0,0.0,0.0,0.0,0.0,0.0,0.0,0.0,0.0,0.0,0.0,-3.3967,-3.2301,-3.3647,-3.4451,-3.4434,-3.3844,-3.3808,-3.4434,-3.4451,-3.4739,-3.5344,-3.6104,-3.6388,-3.6266,-3.6284,-3.6301,-3.6301,-3.6301,-3.6301,-3.6301,-3.6301,-3.6301,-3.6456,-3.7939,-3.8543,-3.8789,-4.029,-4.086,-4.0912,0.0,0.0,0.0,0.0,0.0,0.0,-2.5506,-2.6146,-2.6626,0.0,0.0,0.0,-2.7905,-2.788,-2.7898,-2.7905,-2.7918,-2.793,-2.793,-2.793,-2.793,-2.793,-2.8147,-2.8274,-2.8274,-2.8491,-2.86,-2.86,-2.86,-2.86,-2.86,-2.86,-2.86,-2.8636,-2.921,-2.9463,-2.9481,-2.9659,-2.9737,-2.9863,-3.1223,-3.1783,-3.1859,0.0,0.0,0.0,0.0,-3.3398,-3.2952,0.0,-3.2257,-3.1303,0.0,-2.8991,-2.8364,-2.7576,-2.712,-2.6844,-2.6743,0.0,0.0,0.0,0.0,0.0,0.0,0.0,0.0,0.0,0.0,0.0,0.0,0.0,0.0,0.0,0.0,0.0,0.0,0.0,0.0,0.0,0.0,0.0,0.0,0.0,0.0,0.0,-3.3933,-3.4021,-3.2441,-3.3354,-3.36,-3.2861,-3.3354,-3.3389,-3.2825,-3.3311,-3.3619,-3.375,-3.4967,-3.5549,-3.5525,-3.6059,-3.6301,-3.6301,-3.6301,-3.6301,-3.6301,-3.6301,-3.6301,-3.6335,-3.6766,-3.7611,-3.8646,-3.9083,-3.9945,-4.0912,0.0,0.0,0.0,0.0,0.0,-2.5153,-2.6344,-2.6921,-2.736,0.0,0.0,0.0,-2.8587,-2.86,-2.86,-2.86,-2.86,-2.86,-2.86,-2.86,-2.86,-2.86,-2.8907,-2.8938,-2.8618,-2.8925,-2.8938,-2.86,-2.86,-2.8763,-2.9101,-2.9101,-2.9256,-2.9592,-3.0057,-3.0216,-3.0147,-3.049,-3.0616,-3.0742,-3.1963,0.0,0.0,-3.3299,-3.3741,0.0,0.0,0.0,-3.4042,-3.3617,-3.2878,0.0,0.0,0.0,0.0,-2.8224,-2.7799,-2.7496,-2.7294,-2.6921,0.0,0.0,0.0,0.0,-2.73,-2.7368,0.0,0.0,0.0,0.0,0.0,0.0,0.0,0.0,0.0,0.0,0.0,0.0,0.0,0.0,0.0,0.0,0.0,0.0,0.0,-3.1475,-3.2564,-3.2985,-3.2423,-3.2476,-3.2459,-3.2284,-3.2844,-3.2844,-3.2214,-3.2875,-3.3166,-3.3126,-3.4533,-3.5025,-3.4766,-3.5818,-3.6128,-3.5852,-3.6163,-3.6301,-3.6301,-3.6301,-3.6301,-3.6335,-3.6663,-3.7335,-3.8237,-3.8819,-3.9629,-4.0463,0.0,0.0,-2.3867,-2.4788,-2.5138,-2.5778,-2.7296,-2.7532,-2.7785,0.0,-2.869,-2.8726,-2.8726,-2.8817,-2.8835,-2.8744,-2.8817,-2.8871,-2.8871,-2.8871,-2.8871,-2.8871,-2.9554,-2.9603,-2.8889,-2.9481,-2.9481,-2.8871,-2.8781,-2.9137,-2.9929,-2.9934,-3.0274,-3.0892,-3.0972,-3.0905,-3.0811,-3.1568,-3.1962,-3.2105,-3.2693,-3.334,0.0,0.0,-3.4514,-3.5099,-3.4356,-3.4586,-3.5063,-3.4261,-3.3414,0.0,0.0,0.0,0.0,0.0,-2.845,0.0,-2.7831,-2.7749,-2.7446,0.0,0.0,0.0,-2.6433,-2.6797,-2.7315,0.0,0.0,0.0,0.0,0.0,0.0,0.0,0.0,0.0,0.0,0.0,0.0,0.0,0.0,0.0,0.0,-2.9414,-2.9983,-2.9983,-3.065,-3.1423,-3.2213,-3.1428,-3.1393,-3.2353,-3.2388,-3.2319,-3.2161,-3.277,-3.3027,-3.2968,-3.4325,-3.4645,-3.4165,-3.5542,-3.5852,-3.5352,-3.6008,-3.6301,-3.6301,-3.6301,-3.6301,-3.637,-3.7098,-3.7426,-3.7668,-3.8957,-3.956,-3.9802,0.0,-2.4188,-2.4951,-2.5784,-2.6476,-2.7248,-2.8219,-2.8364,-2.8419,-2.8582,-2.9156,-2.9567,-2.9567,-3.0133,-3.026,-2.9608,-3.0152,-3.0532,-3.0532,-3.0532,-3.0532,-3.0532,-3.069,-3.069,-3.0532,-3.0056,-3.0038,-3.0532,-2.9893,-2.9984,-3.0749,-3.0713,-3.0762,-3.0914,-3.1415,-3.1658,-3.1778,-3.2364,0.0,-3.358,-3.3708,0.0,-3.4031,-3.4516,-3.4906,-3.5224,-3.5382,-3.5331,-3.5064,-3.4161,-3.372,-3.3298,0.0,0.0,0.0,-2.9904,0.0,0.0,0.0,0.0,0.0,0.0,0.0,0.0,-2.7259,-2.7301,-2.7376,0.0,0.0,0.0,0.0,0.0,0.0,0.0,0.0,0.0,0.0,0.0,0.0,0.0,0.0,0.0,0.0,-2.8605,-2.9141,-2.9141,-2.9878,-3.065,-3.1388,-3.1248,-3.1478,-3.2232,-3.2354,-3.2249,-3.1966,-3.2194,-3.2227,-3.2061,-3.2921,-3.3611,-3.413,-3.5007,-3.5663,-3.6094,-3.6232,-3.6301,-3.6301,-3.6301,-3.6301,-3.6318,-3.6473,-3.6943,-3.753,-3.7823,-3.8663,-3.9715,-2.4252,-2.47,-2.5373,-2.659,-2.7133,-2.7803,-2.9011,-2.9192,-2.9337,-2.9753,-3.0152,-3.04,-3.04,-3.036,-3.036,-3.04,-3.036,-3.0541,-3.0966,-3.0975,-3.0975,-3.0998,-3.1355,-3.1165,-3.0369,-3.0731,-3.0735,-3.0297,-3.0297,-3.0712,-3.1506,-3.1463,-3.1603,-3.1906,-3.221,-3.2311,-3.227,-3.2548,-3.3066,-3.3756,-3.3826,0.0,-3.5031,-3.5258,-3.5647,-3.6073,-3.5868,-3.5678,-3.5419,-3.4976,-3.4798,0.0,0.0,-3.2652,-3.2161,0.0,-3.0848,-3.0413,0.0,0.0,0.0,-2.8862,0.0,0.0,0.0,-2.7465,-2.7452,0.0,0.0,0.0,0.0,0.0,0.0,0.0,0.0,0.0,0.0,0.0,0.0,0.0,0.0,0.0,0.0,-2.8012,-2.8473,-2.8877,-2.8835,-2.95,-3.1107,-3.076,-3.1025,-3.2162,-3.2336,-3.2267,-3.2002,-3.2073,-3.2019,-3.1856,-3.256,-3.2921,-3.299,-3.4507,-3.5197,-3.5232,-3.5973,-3.6301,-3.6301,-3.6301,-3.6301,-3.6301,-3.6301,-3.6542,-3.6939,-3.7357,-3.7978,-3.8698,-2.4893,-2.5117,-2.5642,-2.6934,-2.755,-2.8304,-2.9603,-2.9929,-3.0314,-3.107,-3.1305,-3.1396,-3.1396,-3.1064,-3.1119,-3.1826,-3.1231,-3.1127,-3.183,-3.1679,-3.1534,-3.146,-3.2018,-3.1737,-3.045,-3.1506,-3.1513,-3.0308,-3.0783,-3.1401,-3.2188,-3.2176,-3.2404,-3.2902,-3.2996,-3.2937,-3.2753,-3.286,0.0,-3.3987,0.0,-3.4851,-3.5959,-3.6006,-3.6426,-3.6919,-3.6268,-3.602,-3.6003,-3.5845,-3.5704,-3.5476,-3.4881,-3.4144,0.0,0.0,0.0,0.0,0.0,0.0,0.0,0.0,0.0,-2.8872,0.0,0.0,0.0,0.0,0.0,0.0,0.0,0.0,0.0,0.0,0.0,0.0,0.0,0.0,0.0,0.0,0.0,0.0,0.0,-2.7872,-2.814,-2.8631,-2.7951,-2.853,-3.0861,-3.0256,-3.0539,-3.2127,-3.2301,-3.2267,-3.2037,-3.2055,-3.1984,-3.1893,-3.2424,-3.2455,-3.2076,-3.3921,-3.4594,-3.4389,-3.5559,-3.6163,-3.6301,-3.6301,-3.6301,-3.6301,-3.6301,-3.6301,-3.6387,-3.7047,-3.7374,-3.7668,-2.5001,-2.557,-2.612,-2.6312,-2.8105,-2.9585,-2.9766,-3.0418,-3.1088,-3.1725,-3.243,-3.2862,-3.2862,-3.4096,-3.4972,-3.5078,-3.4927,-3.4878,-3.4984,-3.4382,-3.371,-3.3072,-3.3186,-3.3161,-3.298,-3.2401,-3.2372,-3.288,-3.2083,-3.21,-3.287,-3.2761,-3.275,-3.2825,-3.3368,-3.3634,-3.3687,-3.4216,-3.4936,0.0,-3.5603,-3.5671,0.0,-3.6603,-3.6919,-3.6989,-3.6902,-3.6867,-3.6742,0.0,-3.5372,-3.4811,0.0,-3.4162,-3.3476,-3.3406,0.0,0.0,0.0,0.0,0.0,0.0,-3.0441,0.0,0.0,0.0,0.0,0.0,0.0,0.0,0.0,0.0,0.0,0.0,0.0,0.0,0.0,0.0,0.0,0.0,0.0,0.0,0.0,0.0,-2.8509,-2.7877,-2.7682,-2.8367,-3.0125,-3.0025,-3.0573,-3.2056,-3.2179,-3.2108,-3.1837,-3.1893,-3.1875,-3.1818,-3.1886,-3.2214,-3.2783,-3.3041,-3.3852,-3.5076,-3.5249,-3.5697,-3.6301,-3.6301,-3.6301,-3.6301,-3.6301,-3.6301,-3.6318,-3.6404,-3.6887,-3.753,-2.638,-2.6663,-2.7019,-2.7415,-2.8304,-2.9264,-3.0086,-3.129,-3.2194,-3.244,-3.278,-3.314,-3.3588,-3.3804,-3.4354,-3.545,0.0,-3.4841,0.0,0.0,-3.4748,-3.4569,-3.4456,-3.3992,-3.3198,-3.3152,-3.2842,-3.2257,-3.2268,-3.2433,-3.2753,-3.2722,-3.2657,-3.266,-3.3388,0.0,-3.3671,0.0,-3.5145,0.0,0.0,0.0,0.0,-3.7514,-3.7637,-3.7637,-3.7637,-3.7356,-3.6954,0.0,-3.6285,0.0,0.0,0.0,0.0,0.0,0.0,0.0,0.0,0.0,0.0,0.0,0.0,0.0,-3.0301,0.0,-2.9427,0.0,0.0,0.0,0.0,0.0,0.0,0.0,0.0,0.0,0.0,0.0,0.0,0.0,0.0,0.0,0.0,0.0,0.0,0.0,0.0,-2.8268,-2.9903,-2.9891,-3.0505,-3.1932,-3.2126,-3.2073,-3.18,-3.1875,-3.1875,-3.18,-3.18,-3.1955,-3.2283,-3.2697,-3.3507,-3.4596,-3.5007,-3.5611,-3.6301,-3.6301,-3.6301,-3.6301,-3.6301,-3.6301,-3.6301,-3.6301,-3.6508,-3.687,-2.7594,-2.7601,-2.7689,-2.795,-2.8336,-2.9132,-3.0585,-3.1929,-3.2804,-3.282,-3.3177,-3.3552,-3.3907,-3.4108,-3.4764,-3.6165,-3.5527,-3.5403,0.0,0.0,-3.5385,-3.5393,-3.5223,-3.4654,-3.3641,-3.4013,-3.3558,-3.216,-3.266,-3.2802,-3.2573,-3.2539,-3.2523,-3.2526,-3.353,-3.3917,-3.388,0.0,-3.5759,-3.6476,-3.7058,-3.7883,-3.8725,-3.8515,-3.8444,-3.8444,-3.8444,-3.8076,-3.7604,-3.7393,-3.7183,0.0,-3.7007,0.0,0.0,0.0,0.0,0.0,-3.4178,0.0,0.0,0.0,0.0,0.0,0.0,0.0,0.0,0.0,0.0,0.0,0.0,0.0,0.0,0.0,0.0,0.0,0.0,0.0,0.0,0.0,0.0,0.0,0.0,0.0,0.0,-2.7719,-2.7569,-2.8117,-2.9522,-2.9719,-3.035,-3.1548,-3.1969,-3.2055,-3.18,-3.1856,-3.1856,-3.18,-3.18,-3.18,-3.1817,-3.2352,-3.3145,-3.413,-3.4683,-3.5421,-3.6301,-3.6301,-3.6301,-3.6301,-3.6301,-3.6301,-3.6301,-3.6301,-3.6301,-3.6387,-2.8151,-2.812,-2.7829,-2.7081,-2.8237,-2.9781,-3.1344,-3.2092,-3.254,-3.2606,0.0,0.0,0.0,0.0,0.0,0.0,0.0,-3.8048,-3.8201,0.0,-3.5775,0.0,0.0,-3.517,0.0,-3.5065,-3.4658,-3.3822,-3.3722,-3.3265,-3.2489,-3.244,-3.2423,-3.2458,-3.4004,-3.4671,-3.4776,-3.6287,-3.7338,-3.8041,-3.8058,-3.9006,-4.0344,0.0,-3.9249,-3.9249,-3.9249,0.0,0.0,-3.8339,-3.7584,0.0,0.0,0.0,0.0,0.0,0.0,0.0,0.0,0.0,0.0,-3.3441,0.0,0.0,0.0,0.0,-3.1159,0.0,0.0,0.0,0.0,0.0,0.0,-2.6685,0.0,0.0,0.0,0.0,0.0,0.0,0.0,0.0,0.0,0.0,0.0,-2.7754,-2.7569,-2.789,-2.8786,-2.9457,-3.0124,-3.082,-3.1655,-3.2018,-3.18,-3.18,-3.18,-3.18,-3.18,-3.18,-3.18,-3.1817,-3.2645,-3.4113,-3.413,-3.4956,-3.6301,-3.6301,-3.6301,-3.6301,-3.6301,-3.6301,-3.6301,-3.6301,-3.6301,-3.6301,-2.8876,-2.8715,-2.8423,-2.7748,-2.8464,-2.9591,0.0,-3.2318,0.0,0.0,-3.5414,0.0,0.0,-3.8443,-3.9056,0.0,0.0,-3.8842,-3.9024,-3.7895,0.0,0.0,0.0,-3.6276,0.0,-3.5782,-3.5074,-3.4228,-3.3738,-3.3352,-3.309,-3.2616,-3.2406,-3.2476,-3.4003,-3.4706,0.0,0.0,0.0,0.0,0.0,-4.001,-4.052,0.0,0.0,-4.0077,-4.0077,-3.9743,0.0,-3.9006,-3.8743,-3.8515,-3.8515,-3.797,-3.7319,-3.7319,-3.6987,0.0,0.0,0.0,-3.5567,-3.4547,0.0,0.0,0.0,0.0,0.0,0.0,0.0,0.0,0.0,0.0,-2.902,-2.8215,0.0,0.0,0.0,0.0,0.0,0.0,0.0,0.0,0.0,0.0,0.0,-2.7719,-2.7569,-2.8068,0.0,-2.9669,-3.0299,-3.1423,-3.188,-3.2001,-3.18,-3.18,-3.18,-3.18,-3.18,-3.18,-3.1817,-3.2317,-3.3093,-3.413,-3.4631,-3.5387,-3.6301,-3.6301,-3.6301,-3.6301,-3.6301,-3.6301,-3.6301,-3.6301,-3.6301,-3.6301,-2.9543,-2.9345,-2.9037,-2.834,-2.9215,0.0,0.0,0.0,0.0,0.0,-3.6864,0.0,-3.9512,0.0,-3.994,0.0,-3.9674,-3.9395,-3.9563,-3.8694,0.0,-3.9087,-3.8115,0.0,0.0,0.0,0.0,0.0,-3.445,-3.3964,-3.3439,-3.2985,-3.2651,-3.2476,-3.4003,-3.4706,-3.4811,-3.6638,-3.783,0.0,0.0,-4.0906,0.0,0.0,-4.113,-4.0537,0.0,-4.0551,-4.0095,-3.9831,-3.9726,-3.9691,-3.9371,-3.8933,-3.8532,-3.8532,-3.7988,-3.7268,-3.6777,-3.6601,0.0,-3.5337,-3.4881,0.0,-3.4039,0.0,0.0,0.0,0.0,0.0,0.0,0.0,0.0,-2.9421,-2.9287,0.0,0.0,0.0,0.0,0.0,0.0,0.0,0.0,0.0,-2.7701,-2.7701,-2.7569,-2.8053,0.0,0.0,-3.0282,-3.137,-3.1862,-3.214,-3.2179,-3.1921,-3.1921,-3.2179,-3.2179,-3.2041,-3.1834,-3.2852,-3.3593,-3.4148,-3.4869,-3.5611,-3.6301,-3.6301,-3.6301,-3.6301,-3.6301,-3.6301,-3.6301,-3.6301,-3.6301,-3.6335,-3.0143,-3.0094,-2.9752,0.0,-3.0439,0.0,0.0,0.0,-3.5846,0.0,-3.8283,-3.9299,-3.9216,-4.04,-4.0909,-4.01,-3.9871,-3.9836,-3.9967,-3.9274,0.0,0.0,-3.896,-3.8595,-3.7916,0.0,0.0,0.0,0.0,-3.4968,-3.3476,-3.3459,-3.3073,-3.2476,-3.4003,0.0,-3.4864,-3.7128,-3.8602,-3.9477,-4.1007,-4.1587,-4.1552,-4.1587,-4.113,-4.0608,-4.1341,-4.1604,-4.1499,-4.0801,-4.0555,-4.0432,-3.9656,-3.9371,-3.9375,-3.9375,-3.8796,-3.8164,-3.8111,-3.702,-3.5897,-3.5862,0.0,0.0,0.0,0.0,-3.3547,0.0,0.0,0.0,0.0,0.0,0.0,-3.0176,-3.0124,0.0,0.0,0.0,0.0,0.0,0.0,0.0,0.0,-2.7701,-2.7701,-2.7701,-2.7585,-2.7826,0.0,0.0,-3.0091,-3.0731,-3.1653,-3.2382,-3.2904,-3.2231,-3.2265,-3.2955,-3.2955,-3.2593,-3.1955,-3.3475,-3.4165,-3.4199,-3.4921,-3.5645,-3.6301,-3.6301,-3.6301,-3.6301,-3.6301,-3.6301,-3.6301,-3.6301,-3.6335,-3.6473,-3.0914,-3.1286,-3.155,0.0,-3.1323,-3.1725,0.0,0.0,0.0,0.0,-4.1161,-4.2631,-4.3151,-4.3101,-4.273,-4.1975,-4.1342,0.0,0.0,0.0,0.0,-4.0577,-3.9604,-3.919,-3.9486,-3.8534,0.0,-3.6446,0.0,-3.4349,-3.3403,-3.2932,-3.2581,-3.2476,-3.4003,-3.4706,-3.4864,-3.7128,-3.8918,-4.0274,-4.1218,-4.1271,0.0,0.0,-4.113,-4.0608,-4.1341,-4.1604,-4.1569,-4.1376,-4.1323,-4.1271,-4.1078,-4.0621,-4.0204,-4.0204,-3.9621,-3.8845,-3.8269,-3.7812,-3.7391,-3.6829,-3.611,-3.5511,0.0,0.0,0.0,0.0,0.0,0.0,0.0,0.0,0.0,0.0,0.0,0.0,0.0,0.0,0.0,0.0,0.0,0.0,0.0,-2.7701,-2.7701,-2.7701,-2.7615,0.0,0.0,0.0,0.0,-3.1546,-3.2398,-3.2863,-3.2904,-3.33,-3.3613,-3.3783,-3.3783,-3.368,-3.3544,-3.449,-3.4921,-3.4956,-3.5697,-3.6128,-3.6301,-3.6301,-3.6301,-3.6301,-3.6301,-3.6301,-3.6301,-3.6301,-3.668,-3.7236,-3.2055,-3.2792,0.0,-3.3282,0.0,0.0,-3.5095,-3.6459,0.0,-4.0415,-4.1869,0.0,-4.3628,-4.3417,-4.3028,-4.2538,-4.1789,0.0,-4.1318,0.0,0.0,-4.1192,-4.0441,-4.004,-4.0117,-3.939,0.0,-3.7271,0.0,0.0,-3.3947,-3.3213,-3.288,-3.2915,-3.4144,-3.4881,-3.5337,-3.7654,-3.9357,-4.0573,-4.1306,0.0,0.0,-4.1446,-4.1341,-4.1025,-4.1446,-4.1604,-4.1604,-4.1604,-4.1604,-4.1604,-4.1604,-4.1323,-4.0972,-4.0972,-4.0385,-3.9641,-3.9186,-3.88,-3.8432,-3.8032,-3.7351,-3.6792,-3.6792,-3.5969,-3.5179,0.0,0.0,0.0,0.0,0.0,0.0,0.0,0.0,0.0,0.0,0.0,0.0,0.0,0.0,0.0,0.0,0.0,0.0,0.0,0.0,0.0,0.0,0.0,0.0,-3.186,-3.2674,-3.3208,-3.3421,-3.3869,-3.4268,-3.4596,-3.4596,-3.4424,-3.4148,-3.5197,-3.549,-3.5232,-3.5973,-3.6301,-3.6301,-3.6301,-3.6301,-3.6301,-3.6301,-3.6301,-3.6335,-3.668,-3.7094,-3.7599,-3.3231,-3.4232,0.0,0.0,0.0,0.0,0.0,-3.8241,0.0,-4.0999,0.0,-4.2041,-4.2422,-4.2568,-4.2544,-4.2323,0.0,-4.1255,-4.1255,-4.1255,-4.1255,-4.1255,-4.1255,-4.0941,-4.0319,-4.032,-3.9559,0.0,0.0,-3.6164,-3.453,-3.3827,-3.3494,-3.3547,-3.4355,0.0,0.0,-3.8424,-3.9814,-4.0713,-4.1341,-4.1604,-4.1604,-4.1604,-4.1604,-4.1604,-4.1604,-4.1604,-4.1604,-4.1604,-4.1604,-4.1604,-4.1604,-4.1604,-4.1604,-4.1604,-4.1064,-4.0451,-4.0346,-3.9822,-3.9262,-3.9157,-3.8678,-3.8234,-3.8128,-3.7075,-3.6073,-3.5968,-3.5443,-3.497,0.0,0.0,0.0,0.0,0.0,0.0,0.0,0.0,0.0,0.0,0.0,0.0,0.0,0.0,0.0,0.0,0.0,0.0,0.0,0.0,0.0,-3.1895,-3.276,0.0,-3.4251,0.0,-3.4749,-3.549,-3.5387,-3.5007,-3.4441,-3.5714,-3.5956,-3.537,-3.6025,-3.6301,-3.6301,-3.6301,-3.6301,-3.6301,-3.6301,-3.6301,-3.6404,-3.7323,-3.7629,-3.7796,-3.3459,0.0,0.0,0.0,0.0,-3.8985,-3.9876,-4.0038,-4.0424,-4.1397,-4.2687,-4.3302,-4.28,-4.2752,-4.2489,-4.1801,-4.1608,0.0,0.0,0.0,0.0,-4.152,-4.152,-4.1468,-4.1327,-4.0775,-3.967,0.0,0.0,0.0,-3.3723,-3.3564,-3.3494,-3.3546,-3.4337,0.0,-3.8705,-3.9126,0.0,-4.1411,-4.1552,-4.1604,-4.1604,-4.1604,-4.1604,-4.1604,-4.1604,-4.1604,-4.1604,-4.1604,-4.1604,-4.1604,-4.1604,-4.1604,-4.1604,-4.1604,-4.1477,-4.1249,-4.0617,-4.0354,-4.0091,-3.9421,-3.9178,-3.8915,-3.8251,-3.79,-3.7532,-3.6937,-3.6691,-3.6392,-3.5741,0.0,0.0,0.0,0.0,0.0,0.0,0.0,0.0,0.0,0.0,0.0,0.0,0.0,0.0,0.0,0.0,0.0,0.0,0.0,0.0,0.0,-3.326,0.0,0.0,0.0,-3.6301,-3.7098,-3.6422,-3.6042,-3.5921,-3.618,-3.6232,-3.6111,-3.6232,-3.6301,-3.6301,-3.6301,-3.6301,-3.6301,-3.6301,-3.6301,-3.6473,-3.7887,-3.8276,-3.8237,-3.4687,0.0,0.0,0.0,0.0,0.0,0.0,-4.0836,0.0,-4.1552,-4.1903,-4.199,-4.1639,-4.1955,-4.2026,-4.1639,-4.1604,-4.1604,-4.1604,-4.1604,-4.1604,-4.1604,-4.1604,0.0,-4.1604,-4.1253,-4.0305,-3.8725,0.0,0.0,-3.4688,0.0,-3.4318,-3.4739,0.0,-3.7286,0.0,0.0,0.0,-4.106,-4.1446,-4.1604,-4.1604,-4.1604,-4.1604,-4.1604,-4.1604,-4.1604,-4.1604,-4.1604,-4.1604,-4.1604,-4.1604,-4.1604,-4.1604,-4.1604,-4.156,-4.1423,-4.106,-4.0972,-4.0885,-4.0495,-4.0135,-3.9814,-3.9427,-3.9024,-3.8638,-3.8269,-3.7865,-3.7216,-3.602,-3.5197,0.0,0.0,0.0,0.0,0.0,0.0,0.0,0.0,0.0,0.0,0.0,0.0,0.0,0.0,0.0,0.0,0.0,0.0,0.0,0.0,0.0,0.0,0.0,0.0,0.0,-3.687,-3.649,-3.6301,-3.6301,-3.6301,-3.6301,-3.6301,-3.6301,-3.6301,-3.6335,-3.6749,-3.668,-3.6335,-3.6749,-3.684,-3.6847,-3.7985,-3.8476,-3.8714,0.0,-3.6689,0.0,0.0,-3.9041,0.0,-4.0432,-4.1271,-4.1797,-4.1622,-4.1078,-4.0731,-4.0731,-4.1253,-4.1604,-4.1604,-4.1604,-4.1604,-4.1604,-4.1604,-4.1604,-4.1604,-4.1582,-4.156,-4.1604,-4.156,-4.0915,0.0,0.0,0.0,0.0,0.0,0.0,0.0,0.0,0.0,0.0,0.0,-4.059,-4.0783,-4.1358,-4.1604,-4.1604,-4.1604,-4.1604,-4.1604,-4.1604,-4.1604,-4.1604,-4.1604,-4.1604,-4.1604,-4.1604,-4.1604,-4.1604,-4.1604,-4.1538,-4.1448,-4.1448,-4.1448,-4.1448,-4.1448,-4.1099,-4.0695,-4.0537,-4.0007,-3.9515,-3.9357,-3.8813,-3.7883,-3.6338,-3.5706,0.0,0.0,0.0,0.0,0.0,0.0,0.0,0.0,0.0,0.0,0.0,0.0,0.0,0.0,0.0,-3.0635,-3.1339,-3.1847,0.0,0.0,0.0,-3.4565,-3.5462,0.0,-3.6387,0.0,-3.6387,-3.6301,-3.6301,-3.6301,-3.6301,-3.6301,-3.6473,-3.6646,-3.6818,-3.724,-3.7029,-3.6513,-3.6934,-3.7055,-3.7098,-3.7848,-3.8414,-3.8948,0.0,0.0,0.0,0.0,0.0,0.0,-4.059,-4.1745,-4.2429,-4.171,-4.1552,-4.1499,-4.1499,-4.1569,-4.1604,-4.1604,-4.1604,-4.1604,-4.1604,-4.1604,-4.1604,-4.1604,-4.1493,-4.1471,-4.1604,-4.1493,-4.109,0.0,0.0,0.0,0.0,0.0,0.0,0.0,0.0,0.0,0.0,-4.0432,-4.0906,-4.1499,-4.1569,-4.1604,-4.1604,-4.1604,-4.1604,-4.1604,-4.1604,-4.1604,-4.1604,-4.1604,-4.1604,-4.1604,-4.1604,-4.1604,-4.1604,-4.1604,-4.1582,-4.1582,-4.1582,-4.1582,-4.1582,-4.1582,-4.1529,-4.1323,-4.066,-4.045,-4.0165,-3.9463,-3.9231,-3.8725,-3.7183,-3.7374,-3.7321,0.0,0.0,0.0,0.0,0.0,0.0,0.0,0.0,0.0,0.0,0.0,0.0,0.0,0.0,-3.144,-3.223,-3.2232,-3.2546,-3.335,0.0,-3.4889,-3.6361,-3.6346,-3.6663,-3.7392,-3.6646,-3.6301,-3.6301,-3.6301,-3.6301,-3.6335,-3.706,-3.7771,-3.8318,-3.7477,-3.7102,-3.6937,-3.6118,-3.6175,-3.6829,-3.7574,-3.8125,-3.8665,0.0,0.0,0.0,0.0,0.0,0.0,0.0,-4.1674,-4.1973,-4.1639,-4.1604,-4.1604,-4.1604,-4.1604,-4.1604,-4.1604,-4.1604,-4.1604,-4.1604,-4.1604,-4.1604,-4.1604,-4.1471,-4.1426,-4.1493,-4.1426,-4.1059,0.0,0.0,0.0,0.0,0.0,0.0,0.0,0.0,-3.9905,-4.0537,-4.0955,-4.1279,-4.1493,-4.1493,-4.1493,-4.1493,-4.1493,-4.1538,-4.1604,-4.1604,-4.1604,-4.1604,-4.1604,-4.1604,-4.1604,-4.1604,-4.1604,-4.1604,-4.1604,-4.1604,-4.1604,-4.1604,-4.1604,-4.1604,-4.1604,-4.1604,-4.1516,-4.1218,-4.1148,-4.106,-4.0762,-4.0323,-3.9533,-3.7953,-3.79,-3.776,0.0,0.0,0.0,0.0,0.0,0.0,0.0,0.0,0.0,0.0,0.0,0.0,0.0,0.0,0.0,-3.2249,-3.2615,0.0,-3.3864,0.0,-3.531,-3.6364,-3.6322,-3.6456,-3.6766,-3.6939,-3.6766,-3.6318,-3.6801,-3.7008,-3.7042,-3.7818,-3.8252,-3.8368,-3.8396,-3.8052,-3.7515,-3.7557,-3.7651,-3.7808,-3.811,-3.8547,-3.9042,-3.9621,0.0,-3.9901,0.0,-4.0836,-4.099,-4.1516,-4.1604,-4.1604,-4.1604,-4.1604,-4.1604,-4.1604,-4.1604,-4.1604,-4.1604,-4.1604,-4.1604,-4.1604,-4.1604,-4.1604,-4.1604,-4.1471,0.0,-4.1471,-4.1426,-4.1163,-4.0683,-3.9982,0.0,0.0,0.0,0.0,0.0,-4.0256,-4.0604,-4.0806,-4.131,-4.1493,-4.1403,-4.1403,-4.1426,-4.1471,-4.1471,-4.1515,-4.1604,-4.1604,-4.1604,-4.1604,-4.1604,-4.1604,-4.1604,-4.1604,-4.1604,-4.1604,-4.1604,-4.1604,-4.1604,-4.1604,-4.1604,-4.1604,-4.1604,-4.1604,-4.1604,-4.1604,-4.1604,-4.1604,-4.1604,-4.1183,-4.0414,-3.9059,-3.8813,-3.848,-3.7479,0.0,0.0,0.0,0.0,0.0,0.0,-3.4249,-3.3441,-3.3494,0.0,0.0,0.0,0.0,0.0,0.0,0.0,0.0,0.0,0.0,0.0,0.0,-3.6546,-3.6525,-3.6301,-3.7133,-3.7202,-3.668,-3.7391,-3.7811,-3.8035,-3.85,-3.8721,-3.8778,-3.9013,-3.8681,-3.8065,-3.8277,-3.838,-3.8403,-3.8403,-3.8783,-3.9299,-4.0344,-4.0485,-4.0731,-4.1464,-4.1587,-4.1587,-4.1604,-4.1604,-4.1604,-4.1604,-4.1604,-4.1604,-4.1604,-4.1604,-4.1604,-4.1604,-4.1604,-4.1604,-4.1604,-4.1604,-4.1604,0.0,0.0,-4.1471,-4.1604,-4.1471,-4.1471,-4.1587,0.0,0.0,-3.9182,0.0,-3.8888,-4.0485,-4.0502,-4.0819,-4.1386,-4.1403,-4.1403,-4.1403,-4.1403,-4.1493,-4.1604,-4.1604,-4.1604,-4.1604,-4.1604,-4.1604,-4.1604,-4.1604,-4.1604,-4.1604,-4.1604,-4.1604,-4.1604,-4.1604,-4.1604,-4.1604,-4.1604,-4.1604,-4.1604,-4.1604,-4.1604,-4.1604,-4.1604,-4.1604,-4.1604,-4.1604,-4.1604,-4.1358,-4.0608,-4.0467,-3.9958,-3.8357,0.0,0.0,0.0,0.0,0.0,0.0,-3.5337,-3.5162,-3.3652,0.0,0.0,0.0,0.0,0.0,0.0,0.0,0.0,-3.5466,-3.5364,0.0,-3.6485,-3.7141,-3.7098,-3.6301,-3.7133,-3.7495,-3.7491,-3.7986,-3.8589,-3.9249,-3.9001,-3.9343,-3.9986,-3.9017,-3.8589,-3.848,-3.7502,-3.7566,-3.8212,-3.8212,-3.8659,-3.9299,-4.12,-4.1253,-4.1323,-4.1569,-4.1604,-4.1604,-4.1604,-4.1604,-4.1604,-4.1604,-4.1604,-4.1604,-4.1604,-4.1604,-4.1604,0.0,-4.1604,-4.1604,0.0,-4.1604,-4.1604,-4.1604,-4.1471,-4.1426,-4.1471,-4.1426,-4.1426,-4.1471,0.0,0.0,0.0,-3.9828,-4.0249,-4.1253,-4.1147,-4.1221,-4.1403,-4.1295,-4.1255,-4.1255,-4.1255,-4.134,-4.1471,-4.1471,-4.1515,-4.1604,-4.1604,-4.1604,-4.1604,-4.1604,-4.1604,-4.1604,-4.1604,-4.1604,-4.1604,-4.1604,-4.1604,-4.1604,-4.1604,-4.1604,-4.1604,-4.1604,-4.1604,-4.1604,-4.1604,-4.1604,-4.1604,-4.1604,-4.1604,-4.1376,-4.0643,-4.0924,-4.0551,-3.8444,-3.8567,0.0,0.0,0.0,0.0,0.0,-3.5987,-3.5599,0.0,-3.4846,0.0,0.0,0.0,0.0,0.0,0.0,0.0,0.0,-3.5766,0.0,-3.7176,-3.7396,-3.7374,-3.7129,-3.841,-3.89,-3.8739,-3.868,-3.8798,-3.9035,-3.9528,-3.975,-3.9816,-3.9478,-3.9239,-3.9039,-3.8728,-3.8804,-3.9099,-3.9099,-3.9285,-3.9573,-4.1604,-4.1604,-4.1604,-4.1604,-4.1604,-4.1604,-4.1604,-4.1604,-4.1604,-4.1604,-4.1604,-4.1604,-4.1604,-4.1604,0.0,-4.1604,-4.1604,-4.1604,-4.1604,-4.1604,-4.1604,-4.1604,-4.1515,-4.1471,-4.1471,0.0,0.0,-4.1471,-4.1086,-4.0902,-4.0902,-4.0902,-4.1126,-4.1515,-4.1448,-4.1363,-4.1318,-4.1232,-4.1232,-4.1295,-4.1295,-4.1363,-4.1471,-4.1471,-4.1538,-4.1604,-4.1604,-4.1604,-4.1604,-4.1604,-4.1604,-4.1604,-4.1604,-4.1604,-4.1604,-4.1604,-4.1604,-4.1604,-4.1604,-4.1604,-4.1604,-4.1604,-4.1604,-4.1604,-4.1604,-4.1604,-4.1604,-4.1604,-4.1604,-4.1464,-4.099,-4.1288,-4.1025,-3.9269,-3.941,-3.9305,-3.8041,0.0,0.0,0.0,0.0,0.0,0.0,-3.6075,0.0,0.0,0.0,0.0,0.0,0.0,0.0,-3.6129,-3.6809,0.0,-3.7909,-3.818,-3.8203,-3.7944,-3.9038,-3.9401,-3.9139,-3.9175,-3.9211,-3.9227,-3.9614,-3.9703,-3.9547,-3.9547,-3.9484,-3.9395,-3.9395,-3.9458,-3.9563,-3.9563,-3.9642,-3.9703,-4.1604,-4.1604,0.0,0.0,-4.1604,0.0,-4.1604,-4.1604,-4.1604,-4.1604,-4.1604,-4.1604,-4.1604,-4.1604,-4.1587,-4.1534,0.0,0.0,0.0,-4.1604,-4.1604,-4.1604,-4.1604,-4.1604,-4.1604,-4.1604,-4.1604,-4.1604,-4.1604,-4.1604,-4.1582,-4.1582,-4.1515,-4.1403,-4.1403,-4.1318,-4.1209,-4.1209,-4.1295,-4.1403,-4.1403,-4.1493,-4.1604,-4.1604,-4.1604,-4.1604,-4.1604,-4.1604,-4.1604,-4.1604,-4.1604,-4.1604,-4.1604,-4.1604,-4.1604,-4.1604,-4.1604,-4.1604,-4.1604,-4.1604,-4.1604,-4.1604,-4.1604,-4.1604,-4.1604,-4.1604,-4.1604,-4.1604,-4.1604,-4.1604,-4.1604,-4.1604,-4.1358,-4.0625,-4.0502,-4.0221,-3.9406,0.0,0.0,0.0,0.0,0.0,0.0,-3.7777,-3.8178,0.0,0.0,0.0,0.0,0.0,-3.7827,-3.7581,-3.8254,-3.8612,-3.8663,-3.9353,-3.937,-3.8727,-3.907,-3.9132,-3.8973,-3.9445,-3.9677,-3.9651,-3.9432,-3.9299,-3.9299,-3.9325,-3.9405,-3.9501,-3.9528,-3.959,-3.9703,-3.9703,-3.9729,-3.9729,0.0,0.0,-4.1604,-4.1604,-4.1604,-4.1604,-4.1604,-4.1604,-4.1604,-4.1604,-4.1604,-4.1604,-4.1604,-4.1604,-4.1376,-4.0818,-4.1271,-4.1604,-4.1604,-4.1604,-4.1604,-4.1604,-4.1604,-4.1604,-4.1604,-4.1604,-4.1604,-4.1604,-4.1604,-4.156,-4.1448,-4.1448,-4.1363,-4.1255,-4.1255,-4.1232,-4.1209,-4.1209,-4.1295,-4.1403,-4.1403,-4.1493,-4.1604,-4.1604,-4.1604,-4.1604,-4.1604,-4.1604,-4.1604,-4.1604,-4.1604,-4.1604,-4.1604,-4.1604,-4.1604,-4.1604,-4.1604,-4.1604,-4.1604,-4.1604,-4.1604,-4.1604,-4.1604,-4.1604,-4.1604,-4.1604,-4.1604,-4.1604,-4.1604,-4.1604,-4.1604,-4.1604,-4.1358,-4.0625,-4.0502,-4.0221,-3.9406,-3.9126,0.0,0.0,-3.8918,-3.8954,-3.8778,-3.8918,-3.8965,0.0,0.0,0.0,0.0,-3.9089,-3.9096,-3.8375,-3.8491,-3.887,-3.9422,-3.9612,-3.9812,-4.0035,-3.9123,-3.8992,-3.9512,-3.9428,-3.9388,-3.9405,-3.9448,-3.9379,-3.9325,-3.952,-3.9563,-3.9528,-3.9599,-3.9729,-3.9833,-3.9833,-3.991,-4.0011,-4.1604,-4.1604,-4.1604,-4.1604,-4.1604,-4.1604,-4.1604,-4.1604,-4.1604,-4.1604,-4.1604,-4.1604,-4.1604,-4.1604,-4.1306,-4.0573,-4.1165,-4.1464,-4.1113,-4.1411,-4.1604,-4.1604,-4.1604,-4.1604,-4.1604,-4.1604,-4.1604,-4.1604,-4.1604,-4.156,-4.1493,-4.1493,-4.1408,-4.1295,-4.1295,-4.1295,-4.1295,-4.1295,-4.1363,-4.1493,-4.1493,-4.1538,-4.1604,-4.1604,-4.1604,-4.1604,-4.1604,-4.1604,-4.1604,-4.1604,-4.1604,-4.1604,-4.1604,-4.1604,-4.1604,-4.1604,-4.1604,-4.1582,-4.1453,-4.1431,-4.1386,-4.1312,-4.129,-4.1295,-4.1386,-4.1431,-4.1453,-4.1582,-4.1604,-4.1604,-4.1604,-4.1604,-4.1464,-4.106,-4.0666,-4.0403,-4.0354,-3.9701,0.0,-3.9796,-3.9849,-3.9849,-3.9849,-3.9849,-3.981,-3.9746,0.0,0.0,-3.9393,-4.0059,-4.0043,-3.9112,-3.9462,-3.9772,-4.0051,-3.9932,-3.9961,-4.0121,-3.9412,-3.9224,-3.9494,-3.9379,-3.9299,-3.9299,-3.9448,-3.9475,-3.9405,-3.9599,-3.9677,-3.9694,-3.9755,-3.9858,-3.9986,-3.9986,-4.0037,-4.0096,-4.1604,-4.1604,-4.1604,-4.1604,-4.1604,-4.1604,-4.1604,-4.1604,-4.1604,-4.1604,-4.1604,-4.1604,-4.1604,-4.1604,-4.1306,-4.0573,-4.106,-4.1165,-4.0537,-4.1183,-4.1552,-4.1446,-4.1552,-4.1552,-4.1446,-4.1552,-4.1604,-4.1604,-4.1604,-4.1582,-4.156,-4.156,-4.1493,-4.1363,-4.1403,-4.1403,-4.1403,-4.1426,-4.1493,-4.1604,-4.1604,-4.1604,-4.1604,-4.1604,-4.1604,-4.1604,-4.1604,-4.1604,-4.1604,-4.1604,-4.1604,-4.1604,-4.1604,-4.1604,-4.1604,-4.1604,-4.1604,-4.156,-4.1323,-4.1232,-4.114,-4.0942,-4.0912,-4.0942,-4.1134,-4.114,-4.1209,-4.1448,-4.1515,-4.1538,-4.1538,-4.1582,-4.1569,-4.1446,-4.0902,-4.0723,-4.1336,0.0,-3.976,-4.0569,-4.0678,-4.0678,-4.0678,-4.0678,-4.0678,-4.0678,-4.053,-4.0438,0.0,-4.0793,-4.0689,-3.9882,-4.0502,-4.0704,-4.0444,-4.0171,-3.9935,-3.9703,-3.9651,-3.952,-3.9325,-3.9325,-3.9352,-3.9379,-3.9484,-3.9554,-3.9537,-3.9703,-3.9807,-3.9901,-3.9926,-3.9986,-4.0096,-4.0096,-4.0096,-4.0096,-4.1604,-4.1604,-4.1604,-4.1604,-4.1604,-4.1604,-4.1604,-4.1604,-4.1604,-4.1604,-4.1604,-4.1604,-4.1604,-4.1604,-4.1306,-4.0573,-4.0608,-4.0625,-4.0502,-4.1183,-4.1323,-4.0713,-4.1271,-4.1306,-4.0678,-4.1271,-4.1604,-4.1604,-4.1604,-4.1538,-4.1426,-4.1426,-4.1363,-4.1232,-4.134,-4.1403,-4.1403,-4.1515,-4.1582,-4.1604,-4.1604,-4.1604,-4.1604,-4.1604,-4.1604,-4.1604,-4.1604,-4.1604,-4.1604,-4.1604,-4.1604,-4.1604,-4.1604,-4.1604,-4.1604,-4.1604,-4.1604,-4.1582,-4.156,-4.1386,-4.114,-4.0942,-4.0912,-4.0912,-4.0942,-4.0942,-4.0965,-4.0989,-4.1134,-4.1255,-4.1255,-4.1453,-4.1394,-4.0783,-4.1095,-4.1231,-4.0748,0.0,-4.1266,-4.1411,-4.1429,-4.1429,-4.1429,-4.1429,-4.1429,-4.1429,-4.1296,-4.1228,-4.1206,-4.103,-4.0795,-4.0549,-4.0556,-4.0419,-4.0146,-3.991,-3.9755,-3.9703,-3.9468,-3.9405,-3.9475,-3.9475,-3.9537,-3.9651,-3.9772,-3.9772,-3.9677,-3.9935,-3.9986,-3.9901,-4.0037,-4.0087,-4.0096,-4.0096,-4.0096,-4.0096,-4.1604,-4.1604,-4.1604,-4.1604,-4.1604,-4.1604,-4.1604,-4.1604,-4.1604,-4.1604,-4.1604,-4.1604,-4.1604,-4.1604,-4.1306,-4.0573,-4.0502,-4.0481,-4.0394,-4.0367,-4.0371,-4.0394,-4.0367,-4.02,-3.9849,-4.0604,-4.1007,-4.1007,-4.1411,-4.156,-4.1515,-4.1515,-4.1475,-4.1431,-4.1493,-4.1515,-4.1515,-4.1582,-4.1604,-4.1604,-4.1604,-4.1604,-4.1604,-4.1604,-4.1604,-4.1604,-4.1604,-4.1604,-4.1604,-4.1604,-4.1604,-4.1604,-4.1604,-4.1604,-4.1604,-4.1604,-4.1498,-4.1363,-4.1244,-4.1018,-4.0782,-4.0517,-4.0485,-4.051,-4.0655,-4.068,-4.0728,-4.0871,-4.0965,-4.1041,-4.1041,-4.1152,-4.1099,-4.0769,-4.0584,0.0,0.0,-4.0692,-4.0864,-4.1333,-4.1498,-4.1542,-4.1408,-4.1386,-4.134,-4.1221,-4.1105,-4.1012,-4.1012,-4.0799,-4.0607,-4.0502,-4.0213,-4.0163,-4.0296,-3.991,-3.9703,-3.9703,-3.9668,-3.9563,-3.9501,-3.9563,-3.9625,-3.9703,-3.9849,-3.9858,-3.9807,-4.0037,-4.0045,-4.0011,-4.0087,-4.0096,-4.0096,-4.0096,-4.0096,-4.0096,-4.1604,-4.1604,-4.1604,-4.1604,-4.1604,-4.1604,-4.1604,-4.1604,-4.1604,-4.1604,-4.1604,-4.1534,-4.1358,-4.1499,-4.1306,-4.0573,-4.0502,-4.0508,-4.0552,-3.9588,-3.9312,-3.9992,-3.9382,-3.9111,-3.9284,-4.0077,-4.0502,-4.0502,-4.1236,-4.1604,-4.1604,-4.1604,-4.1604,-4.1604,-4.1604,-4.1604,-4.1604,-4.1604,-4.1604,-4.1604,-4.1604,-4.1604,-4.1604,-4.1604,-4.1604,-4.1604,-4.1604,-4.1604,-4.1604,-4.1604,-4.1604,-4.1604,-4.1604,-4.1481,-4.1341,-4.1341,-4.1191,-4.1046,-4.0984,-4.0806,-4.059,-4.0271,-4.0196,-4.0221,-4.037,-4.0412,-4.0485,-4.068,-4.0752,-4.0799,-4.0799,-4.0847,-4.0843,-4.0647,0.0,0.0,0.0,-4.0343,-4.0378,-4.1047,-4.1318,-4.1358,-4.114,-4.1117,-4.1065,-4.0894,-4.0817,-4.0745,-4.0793,-4.0648,-4.051,-4.0404,-4.0011,-3.9986,-4.0362,-3.9961,-3.9729,-3.9703,-3.9807,-3.9772,-3.9606,-3.9703,-3.9755,-3.9807,-3.991,-3.9952,-3.9935,-4.0062,-4.0096,-4.0096,-4.0096,-4.0096,-4.0096,-4.0096,-4.0096,-4.0096,-4.1604,-4.1604,-4.1604,-4.1604,-4.1604,-4.1604,-4.1604,-4.1604,-4.1604,-4.1604,-4.1604,-4.1341,-4.066,-4.1183,-4.1306,-4.0573,-4.0502,-4.0736,-4.1263,-3.9343,-3.8488,-3.9153,-3.8558,-3.855,-3.9266,-4.0077,-4.0502,-4.0502,-4.1236,-4.1604,-4.1604,-4.1604,-4.1604,-4.1604,-4.1604,-4.1604,-4.1604,-4.1604,-4.1604,-4.1604,-4.1604,-4.1604,-4.1604,-4.1604,-4.1604,-4.1604,-4.1604,-4.1604,-4.1604,-4.1604,-4.1604,-4.1604,-4.1604,-4.113,-4.0573,-4.0573,-4.0569,-4.0644,-4.1063,-4.1163,-4.1047,-4.059,-4.0485,-4.0412,-4.0171,-4.0121,-4.0138,-4.0146,-4.0362,-4.0534,-4.0534,-4.0728,-4.0647,-3.9916,0.0,0.0,-3.9882,-4.0388,-4.0843,-4.0918,-4.0942,-4.0942,-4.0918,-4.0918,-4.0935,-4.0912,-4.0888,-4.0935,-4.1047,-4.0834,-4.0673,-4.0673,-4.0288,-4.0037,-3.9952,-3.9901,-3.9807,-3.9703,-3.9703,-3.9755,-3.9875,-3.9875,-3.9935,-4.007,-4.0087,-4.0087,-4.0087,-4.0113,-4.0096,-4.0096,-4.0096,-4.0096,-4.0096,-4.0096,-4.0096,-4.0096,-4.1604,-4.1604,-4.1604,-4.1604,-4.1604,-4.1604,-4.1604,-4.1604,-4.1604,-4.1604,-4.1604,-4.1499,-4.12,-4.1007,-4.0818,-4.052,-4.0024,-3.9824,-3.9957,-3.8803,-3.8003,-3.7804,-3.7547,-3.7549,-3.7865,-3.9111,-3.9761,-3.9761,-4.099,-4.1604,-4.1604,-4.1604,-4.1604,-4.1604,-4.1604,-4.1604,-4.1604,-4.1604,-4.1604,-4.1604,-4.1604,-4.1604,-4.1604,-4.1604,-4.1604,-4.1604,-4.1604,-4.1604,-4.1604,-4.1604,-4.1604,-4.1604,-4.1604,-4.1078,-4.0397,-3.9901,-3.9761,-3.9898,-4.0565,-4.0974,-4.0972,-4.0007,-4.0127,-4.0419,-4.0146,-4.0096,-4.0096,-4.0096,-4.0171,-4.0246,-4.0246,-4.0337,-4.0309,-3.9995,0.0,-4.0309,-3.9995,-4.0346,-4.0655,-4.0655,-4.0901,-4.1041,-4.0894,-4.0912,-4.0912,-4.0912,-4.0752,-4.068,-4.0745,-4.0551,-4.0453,-4.0453,-4.0387,-4.0362,-4.0404,-4.023,-4.0062,-3.9944,-4.0037,-4.0011,-3.9901,-3.9986,-4.0062,-4.0096,-4.0096,-4.0096,-4.0096,-4.0096,-4.0096,-4.0096,-4.0096,-4.0096,-4.0096,-4.0096,-4.0096,-4.0096,-4.1604,-4.1604,-4.1604,-4.1604,-4.1604,-4.1604,-4.1604,-4.1604,-4.1604,-4.1604,-4.1604,-4.1516,-4.1271,-4.0818,-4.0397,-4.0151,-3.9621,-3.9263,-3.9161,-3.8509,-3.7777,-3.7042,-3.7007,-3.7007,-3.7007,-3.8251,-3.9059,-3.9284,-4.0604,-4.1376,-4.1604,-4.1604,-4.1604,-4.1604,-4.1604,-4.1604,-4.1604,-4.1604,-4.1604,-4.1604,-4.1604,-4.1604,-4.1604,-4.1604,-4.1604,-4.1604,-4.1604,-4.1604,-4.1604,-4.1604,-4.1446,-4.1288,-4.1534,-4.092,-4.0007,-3.9463,-3.9284,-3.948,-4.0291,-4.0898,-4.1087,-4.0075,-4.0213,-4.0517,-4.0171,-4.0096,-4.0096,-4.0096,-4.0096,-4.0096,-4.0096,-4.0096,-4.0096,-4.0096,-4.0096,-4.0096,-4.0096,-4.0246,-4.037,-4.037,-4.0717,-4.0924,-4.0776,-4.0776,-4.0776,-4.0776,-4.0534,-4.0395,-4.0436,-4.0387,-4.0362,-4.0362,-4.0461,-4.051,-4.051,-4.0379,-4.0238,-4.0096,-4.0188,-4.0138,-3.9977,-4.0062,-4.0096,-4.0096,-4.0096,-4.0096,-4.0096,-4.0096,-4.0096,-4.0096,-4.0096,-4.0096,-4.0096,-4.0096,-4.0096,-4.0096,-4.1604,-4.1604,-4.1604,-4.1604,-4.1604,-4.1604,-4.1604,-4.1604,-4.1604,-4.1604,-4.1604,-4.1323,-4.059,-4.0502,-4.0186,-3.9392,-3.9284,-3.9284,-3.9284,-3.855,-3.776,-3.7042,-3.7007,-3.7007,-3.7007,-3.7725,-3.8477,-3.9284,-4.0095,-4.0889,-4.1604,-4.1604,-4.1604,-4.1604,-4.1604,-4.1604,-4.1604,-4.1604,-4.1604,-4.1604,-4.1604,-4.1604,-4.1604,-4.1604,-4.1604,-4.1604,-4.1604,-4.1604,-4.1604,-4.1604,-4.1095,-4.0625,-4.1358,-4.0533,-3.9284,-3.9284,-3.9284,-3.948,-4.0291,-4.1025,-4.1475,-4.1012,-4.0912,-4.0752,-4.0221,-4.0096,-4.0096,-4.0096,-4.0096,-4.0096,-4.0096,-4.0096,-4.0096,-4.0096,-4.0096,-4.0096,-4.0096,-4.0096,-4.0096,-4.0096,-4.0337,-4.051,-4.051,-4.051,-4.051,-4.0493,-4.0263,-4.0163,-4.0305,-4.0436,-4.051,-4.051,-4.051,-4.0387,-4.0096,-4.0238,-4.0238,-4.0096,-4.0096,-4.0096,-4.0096,-4.0096,-4.0096,-4.0096,-4.0096,-4.0096,-4.0096,-4.0096,-4.0096,-4.0096,-4.0096,-4.0096,-4.0096,-4.0096,-4.0096,-4.0096,-4.1604,-4.1604,-4.1604,-4.1604,-4.1604,-4.1604,-4.1604,-4.1604,-4.1604,-4.1604,-4.1604,-4.1516,-4.1288,-4.0305,-3.9779,-4.0095,-3.9638,-3.9284,-3.9284,-3.8058,-3.7235,-3.7007,-3.7007,-3.7007,-3.7007,-3.7725,-3.8477,-3.9284,-4.0095,-4.0889,-4.1604,-4.1604,-4.1604,-4.1604,-4.1604,-4.1604,-4.1604,-4.1604,-4.1604,-4.1604,-4.1604,-4.1604,-4.1604,-4.1604,-4.1604,-4.1604,-4.1604,-4.1604,-4.1604,-4.1604,-4.1446,-4.1113,-4.027,-3.967,-3.9199,-3.8638,-3.8845,-3.948,-4.0291,-4.066,-4.0705,-4.0193,-4.0474,-4.0752,-4.0221,-4.0263,-4.0337,-4.0121,-4.0246,-4.032,-4.0121,-4.0096,-4.0096,-4.0096,-4.0096,-4.0096,-4.0096,-4.0096,-4.0096,-4.0096,-4.0337,-4.051,-4.051,-4.051,-4.0583,-4.0776,-4.1005,-4.1171,-4.1213,-4.107,-4.0756,-4.0255,-4.0221,-4.0138,-3.9961,-4.0205,-4.018,-3.9961,-4.0062,-4.0096,-4.0113,-4.0011,-4.0011,-4.0096,-3.9986,-4.0011,-4.0096,-4.0096,-4.0096,-4.0096,-4.0096,-4.0096,-4.0096,-4.0096,-4.0096,-4.0096,-4.1604,-4.1604,-4.1604,-4.1604,-4.1604,-4.1604,-4.1604,-4.1604,-4.1604,-4.1604,-4.1604,-4.1604,-4.1604,-4.0516,-3.9972,-4.0467,-3.9761,-3.9284,-3.9284,-3.8128,-3.7426,-3.7426,-3.7165,-3.7007,-3.7007,-3.7426,-3.8058,-3.8831,-3.9305,-4.0095,-4.1148,-4.1148,-4.1323,-4.1604,-4.1604,-4.1604,-4.1604,-4.1604,-4.1604,-4.1604,-4.1604,-4.1604,-4.1604,-4.1604,-4.1604,-4.1604,-4.1604,-4.1411,-4.12,-4.1499,-4.1411,-4.0884,-3.9322,-3.8831,-3.8775,-3.8638,-3.8915,-3.955,-4.0639,-4.0854,-4.0682,-4.0291,-4.0596,-4.0901,-4.0493,-4.0461,-4.0444,-4.0296,-4.0296,-4.0296,-4.0121,-4.0096,-4.0096,-4.0096,-4.0096,-4.0096,-4.0096,-4.0096,-4.0096,-4.0096,-4.0337,-4.051,-4.051,-4.0741,-4.1074,-4.1414,-4.1707,-4.1878,-4.1878,-4.1434,-4.1001,-4.0544,-4.0265,-4.0037,-3.9901,-4.0113,-4.0087,-3.9807,-3.991,-3.9961,-4.0011,-3.9952,-3.9961,-4.0113,-4.0011,-4.0037,-4.0096,-4.0096,-4.0096,-4.0096,-4.0096,-4.0096,-4.0096,-4.0096,-4.0096,-4.0096,-4.1604,-4.1604,-4.1604,-4.1604,-4.1604,-4.1604,-4.1604,-4.1604,-4.1604,-4.1604,-4.1604,-4.1604,-4.1604,-4.0959,-4.0537,-4.059,-3.9796,-3.9266,-3.9196,-3.8462,-3.8006,-3.8006,-3.7356,-3.7007,-3.7007,-3.7007,-3.7356,-3.8111,-3.8111,-3.8883,-4.0397,-4.0467,-4.0871,-4.1499,-4.1569,-4.1604,-4.1604,-4.1604,-4.1604,-4.1604,-4.1582,-4.1542,-4.156,-4.1538,-4.156,-4.1542,-4.1542,-4.1143,-4.0713,-4.1376,-4.1007,-4.0046,-3.8655,-3.8164,-3.8269,-3.9056,-3.9336,-3.9684,-4.1179,-4.1386,-4.1117,-4.0965,-4.1041,-4.1117,-4.0871,-4.0655,-4.0493,-4.0485,-4.0271,-4.0121,-4.0096,-4.0096,-4.0096,-4.0096,-4.0096,-4.0096,-4.0096,-4.0096,-4.0096,-4.0096,-4.0337,-4.0444,-4.0444,-4.1119,-4.1801,-4.2364,-4.2388,-4.2388,-4.2388,-4.1762,-4.1373,-4.1305,-4.0561,-4.0138,-4.0002,-4.0113,-4.0011,-3.9729,-3.9729,-3.9781,-3.9926,-3.9901,-3.9994,-4.0197,-4.0104,-4.0121,-4.0197,-4.013,-4.0096,-4.0096,-4.0096,-4.0096,-4.0096,-4.0096,-4.0096,-4.0096,-4.1604,-4.1604,-4.1604,-4.1604,-4.1604,-4.1604,-4.1604,-4.1604,-4.1604,-4.1604,-4.1604,-4.1604,-4.1604,-4.0959,-4.0731,-4.1306,-4.0112,-3.902,-3.8409,-3.7654,-3.7253,-3.7253,-3.7095,-3.7007,-3.7007,-3.7007,-3.7356,-3.8111,-3.8111,-3.8602,-3.9568,-4.0221,-4.059,-4.0766,-4.1341,-4.1604,-4.1604,-4.1604,-4.1604,-4.1582,-4.1386,-4.1277,-4.1255,-4.1105,-4.1134,-4.1277,-4.1277,-4.1326,-4.1394,-4.1552,-4.027,-3.8673,-3.8954,-3.862,-3.8269,-3.9056,-3.9598,-4.0176,-4.1314,-4.129,-4.0995,-4.1111,-4.1041,-4.0847,-4.037,-4.0395,-4.0444,-4.0221,-4.0313,-4.0345,-4.0121,-4.0096,-4.0096,-4.0096,-4.0096,-4.0096,-4.0096,-4.0096,-4.0096,-4.0096,-4.0146,-4.0188,-4.0188,-4.0866,-4.1814,-4.3081,-4.3139,-4.3139,-4.3139,-4.3003,-4.2675,-4.2066,-4.1356,-4.0915,-4.0768,-4.0794,-4.0482,-3.9849,-3.9849,-3.9935,-4.0062,-3.9833,-4.0204,-4.0933,-4.0239,-4.0323,-4.0916,-4.035,-4.0096,-4.0096,-4.0096,-4.0096,-4.0096,-4.0096,-4.0096,-4.0096,-4.1604,-4.1604,-4.1604,-4.1604,-4.1604,-4.1481,-4.113,-4.1078,-4.1078,-4.1078,-4.1078,-4.1078,-4.1078,-4.0731,-4.0502,-4.0498,-3.9779,-3.895,-3.8164,-3.7742,-3.7376,-3.7025,-3.7007,-3.7007,-3.7007,-3.7007,-3.72,-3.7567,-3.7567,-3.8164,-3.9301,-3.9726,-4.0305,-4.1025,-4.1429,-4.1604,-4.1604,-4.1453,-4.1408,-4.1386,-4.1157,-4.1065,-4.1041,-4.0942,-4.0965,-4.1065,-4.1163,-4.1158,-4.0955,-4.02,-3.9111,-3.8181,-3.8582,-3.8362,-3.8122,-3.887,-3.9574,-4.0296,-4.1176,-4.1226,-4.1041,-4.1065,-4.0877,-4.068,-4.0534,-4.0485,-4.0461,-4.0337,-4.0296,-4.0288,-4.0121,-4.0096,-4.0231,-4.0561,-4.0333,-4.035,-4.106,-4.0857,-4.0747,-4.1128,-4.0832,-4.0747,-4.1128,-4.1813,-4.2743,-4.3893,-4.3978,-4.3978,-4.3978,-4.3623,-4.3206,-4.2844,-4.2117,-4.1702,-4.1632,-4.1632,-4.142,-4.1032,-4.0918,-4.0918,-4.1049,-4.0918,-4.0987,-4.1187,-4.0721,-4.0569,-4.0646,-4.0265,-4.0096,-4.0096,-4.0096,-4.0096,-4.0096,-4.0096,-4.0096,-4.0096,-4.1604,-4.1604,-4.1604,-4.1604,-4.1604,-4.1341,-4.0608,-4.0502,-4.0502,-4.0502,-4.0502,-4.0555,-4.0678,-4.0573,-4.0133,-3.9182,-3.9091,-3.8778,-3.797,-3.7918,-3.7637,-3.7025,-3.7007,-3.7007,-3.7007,-3.7007,-3.7007,-3.7007,-3.7007,-3.7707,-3.9091,-3.9231,-4.0038,-4.1345,-4.1468,-4.1498,-4.1471,-4.1232,-4.114,-4.1117,-4.0918,-4.0823,-4.084,-4.0776,-4.0776,-4.0847,-4.1024,-4.0762,-4.018,-3.901,-3.8453,-3.824,-3.8338,-3.8199,-3.8142,-3.8825,-3.948,-4.0139,-4.0977,-4.1117,-4.1001,-4.0918,-4.0655,-4.0485,-4.0704,-4.0583,-4.0419,-4.0419,-4.0365,-4.0299,-4.0299,-4.04,-4.0688,-4.1288,-4.0865,-4.0908,-4.2117,-4.1762,-4.161,-4.2219,-4.1762,-4.1677,-4.2422,-4.3047,-4.3741,-4.4547,-4.4615,-4.4615,-4.4615,-4.3961,-4.3623,-4.3623,-4.2878,-4.2489,-4.2489,-4.2489,-4.2489,-4.2489,-4.2408,-4.2286,-4.2115,-4.2105,-4.1916,-4.1576,-4.1441,-4.1035,-4.0468,-4.035,-4.0214,-4.0096,-4.0096,-4.0096,-4.0096,-4.0096,-4.0096,-4.0096,-4.1604,-4.1604,-4.1604,-4.1604,-4.1604,-4.1341,-4.0608,-4.0502,-4.0502,-4.0502,-4.0502,-4.0748,-4.1376,-4.0889,-3.9905,-3.8392,-3.8269,-3.7953,-3.72,-3.7148,-3.7112,-3.7007,-3.7007,-3.7007,-3.7007,-3.7007,-3.7007,-3.7007,-3.7007,-3.7446,-3.8286,-3.8968,-3.9655,-4.0336,-4.0958,-4.1157,-4.0989,-4.0942,-4.0942,-4.0918,-4.0655,-4.0558,-4.0534,-4.0313,-4.0345,-4.0558,-4.059,-4.0253,-3.9916,-4.0577,-3.9874,-3.8873,-3.9351,-3.9153,-3.8864,-3.9421,-3.9508,-3.9678,-4.0886,-4.0724,-4.0345,-4.0776,-4.0534,-4.0146,-4.0213,-4.0171,-4.0146,-4.0146,-4.062,-4.1052,-4.1052,-4.1559,-4.2059,-4.2134,-4.2066,-4.2066,-4.2252,-4.2202,-4.2185,-4.2286,-4.2202,-4.2439,-4.32,-4.3325,-4.3741,-4.4547,-4.4615,-4.4615,-4.4615,-4.4513,-4.4445,-4.4445,-4.3673,-4.324,-4.324,-4.324,-4.324,-4.324,-4.3916,-4.3544,-4.226,-4.2142,-4.2473,-4.3054,-4.2439,-4.2083,-4.1948,-4.1305,-4.0679,-4.0096,-4.0096,-4.0096,-4.0096,-4.0096,-4.0096,-4.0096,-4.1604,-4.1604,-4.1604,-4.1604,-4.1604,-4.12,-4.0007,-3.9831,-3.9673,-3.9217,-3.9164,-3.9269,-3.9621,-3.8992,-3.8272,-3.7532,-3.7479,-3.7358,-3.7025,-3.7007,-3.7007,-3.7007,-3.7007,-3.72,-3.7602,-3.7602,-3.783,-3.8286,-3.783,-3.8006,-3.8796,-3.9585,-4.0022,-4.0113,-4.0861,-4.1088,-4.0888,-4.0728,-4.068,-4.0655,-4.037,-4.0288,-4.0246,-4.0163,-4.0171,-4.0245,-3.9958,-3.9774,-3.9692,-3.9686,-3.9247,-3.8718,-3.8974,-3.9061,-3.917,-3.942,-3.972,-4.0089,-4.0655,-4.0686,-4.0583,-4.0655,-4.051,-4.039,-4.0663,-4.0696,-4.0696,-4.0696,-4.0967,-4.1339,-4.1728,-4.2066,-4.2422,-4.2861,-4.2574,-4.2591,-4.3481,-4.32,-4.2912,-4.2912,-4.3301,-4.3538,-4.3392,-4.3809,-4.4215,-4.4581,-4.4615,-4.4615,-4.4615,-4.4615,-4.4615,-4.4615,-4.4248,-4.4062,-4.4062,-4.4062,-4.4062,-4.4062,-4.4418,-4.4242,-4.3572,-4.3517,-4.3466,-4.3375,-4.3064,-4.2675,-4.2236,-4.1508,-4.1018,-4.0663,-4.0265,-4.0096,-4.0096,-4.0096,-4.0096,-4.0096]},{"header":{"parameterUnit":"m.s-1","parameterCategory":1,"la1":30.6,"la2":28.766,"lo1":-90.7593,"lo2":-88.6598,"dy":0.0162,"dx":0.0183,"nx":116,"ny":114,"refTime":"2023-03-04T06:00:00:Z","depth":0,"parameterNumber":3,"parameterNumberName":"V-component_of_WINDS"},"data":[0.0,0.0,0.0,0.0,0.0,0.0,0.0,0.0,0.0,0.0,0.0,0.0,0.0,0.0,0.0,0.0,0.0,0.0,0.0,0.0,0.0,0.0,0.0,0.0,0.0,0.0,0.0,0.0,0.0,0.0,0.0,0.0,0.0,0.0,0.0,0.0,0.0,0.0,0.0,0.0,0.0,0.0,0.0,0.0,0.0,0.0,0.0,0.0,0.0,0.0,0.0,0.0,0.0,0.0,0.0,0.0,0.0,0.0,0.0,0.0,0.0,0.0,0.0,0.0,0.0,0.0,0.0,0.0,0.0,0.0,0.0,0.0,0.0,0.0,0.0,0.0,0.0,0.0,0.0,0.0,0.0,0.0,0.0,0.0,0.0,0.0,0.0,0.0,0.0,0.0,0.0,0.0,0.0,0.0,0.0,0.0,0.0,0.0,0.0,0.0,0.0,0.0,0.0,0.0,0.0,0.0,0.0,0.0,0.0,0.0,0.0,0.0,0.0,0.0,0.0,0.0,0.0,0.0,0.0,0.0,0.0,0.0,0.0,0.0,0.0,0.0,0.0,0.0,0.0,0.0,0.0,0.0,0.0,0.0,0.0,0.0,0.0,0.0,0.0,0.0,0.0,0.0,0.0,0.0,0.0,0.0,0.0,0.0,0.0,0.0,0.0,0.0,0.0,0.0,0.0,0.0,0.0,0.0,0.0,0.0,0.0,0.0,0.0,0.0,0.0,0.0,0.0,0.0,0.0,0.0,0.0,0.0,0.0,0.0,0.0,0.0,0.0,0.0,0.0,0.0,0.0,0.0,0.0,0.0,0.0,0.0,0.0,0.0,0.0,0.0,0.0,0.0,0.0,0.0,0.0,0.0,0.0,0.0,0.0,0.0,0.0,0.0,0.0,0.0,0.0,0.0,0.0,0.0,0.0,0.0,0.0,0.0,0.0,0.0,0.0,0.0,0.0,0.0,0.0,0.0,0.0,0.0,0.0,0.0,0.0,0.0,0.0,0.0,0.0,0.0,0.0,0.0,0.0,0.0,0.0,0.0,0.0,0.0,0.0,0.0,0.0,0.0,0.0,0.0,0.0,0.0,0.0,0.0,0.0,0.0,0.0,0.0,0.0,0.0,0.0,0.0,0.0,0.0,0.0,0.0,0.0,0.0,0.0,0.0,0.0,0.0,0.0,0.0,0.0,0.0,0.0,0.0,0.0,0.0,0.0,0.0,0.0,0.0,0.0,0.0,0.0,0.0,0.0,0.0,0.0,0.0,0.0,0.0,0.0,0.0,0.0,0.0,0.0,0.0,0.0,0.0,0.0,0.0,0.0,0.0,0.0,0.0,0.0,0.0,0.0,0.0,0.0,0.0,0.0,0.0,0.0,0.0,0.0,0.0,0.0,0.0,0.0,0.0,0.0,0.0,0.0,0.0,0.0,0.0,0.0,0.0,0.0,0.0,0.0,0.0,0.0,0.0,0.0,0.0,0.0,0.0,0.0,0.0,0.0,0.0,0.0,0.0,0.0,0.0,0.0,0.0,0.0,0.0,0.0,0.0,0.0,0.0,0.0,0.0,0.0,0.0,0.0,0.0,0.0,0.0,0.0,0.0,0.0,0.0,0.0,0.0,0.0,0.0,0.0,0.0,0.0,0.0,0.0,0.0,0.0,0.0,0.0,0.0,0.0,0.0,0.0,0.0,0.0,0.0,0.0,0.0,0.0,0.0,0.0,0.0,0.0,0.0,0.0,0.0,0.0,0.0,0.0,0.0,0.0,0.0,0.0,0.0,0.0,0.0,0.0,0.0,0.0,0.0,0.0,0.0,0.0,0.0,0.0,0.0,0.0,0.0,0.0,0.0,0.0,0.0,0.0,0.0,0.0,0.0,0.0,0.0,0.0,0.0,0.0,0.0,0.0,0.0,0.0,0.0,0.0,0.0,0.0,0.0,0.0,0.0,0.0,0.0,0.0,0.0,0.0,0.0,0.0,0.0,0.0,0.0,0.0,0.0,0.0,0.0,0.0,0.0,0.0,0.0,0.0,0.0,0.0,0.0,0.0,0.0,0.0,0.0,0.0,0.0,0.0,0.0,0.0,0.0,0.0,0.0,0.0,0.0,0.0,0.0,0.0,0.0,0.0,0.0,0.0,0.0,0.0,0.0,0.0,0.0,0.0,0.0,0.0,0.0,0.0,0.0,0.0,0.0,0.0,0.0,0.0,0.0,0.0,0.0,0.0,0.0,0.0,0.0,0.0,0.0,0.0,0.0,0.0,0.0,0.0,0.0,0.0,0.0,0.0,0.0,0.0,0.0,0.0,0.0,0.0,0.0,0.0,0.0,0.0,0.0,0.0,0.0,0.0,0.0,0.0,0.0,0.0,0.0,0.0,0.0,0.0,0.0,0.0,0.0,0.0,0.0,0.0,0.0,0.0,0.0,0.0,0.0,0.0,0.0,0.0,0.0,0.0,0.0,0.0,0.0,0.0,0.0,0.0,0.0,0.0,0.0,0.0,0.0,0.0,0.0,0.0,0.0,0.0,0.0,0.0,0.0,0.0,0.0,0.0,0.0,0.0,0.0,0.0,0.0,0.0,0.0,0.0,0.0,0.0,0.0,0.0,0.0,0.0,0.0,0.0,0.0,0.0,0.0,0.0,0.0,0.0,0.0,0.0,0.0,0.0,0.0,0.0,0.0,0.0,0.0,0.0,0.0,0.0,0.0,0.0,0.0,0.0,0.0,0.0,0.0,0.0,0.0,0.0,0.0,0.0,0.0,0.0,0.0,0.0,0.0,0.0,0.0,0.0,0.0,0.0,0.0,0.0,0.0,0.0,0.0,0.0,0.0,0.0,0.0,0.0,0.0,0.0,0.0,0.0,0.0,0.0,0.0,0.0,0.0,0.0,0.0,0.0,0.0,0.0,0.0,0.0,0.0,0.0,0.0,0.0,0.0,0.0,0.0,0.0,0.0,0.0,0.0,0.0,0.0,0.0,0.0,0.0,0.0,0.0,0.0,0.0,0.0,0.0,0.0,0.0,0.0,0.0,0.0,0.0,0.0,0.0,0.0,0.0,0.0,0.0,0.0,0.0,0.0,0.0,0.0,0.0,0.0,0.0,0.0,0.0,0.0,0.0,0.0,0.0,0.0,0.0,0.0,0.0,0.0,0.0,0.0,0.0,0.0,0.0,0.0,0.0,0.0,0.0,0.0,0.0,0.0,0.0,0.0,0.0,0.0,0.0,0.0,0.0,0.0,0.0,0.0,0.0,0.0,0.0,0.0,0.0,0.0,0.0,0.0,0.0,0.0,0.0,0.0,0.0,0.0,0.0,0.0,0.0,0.0,0.0,0.0,0.0,0.0,0.0,0.0,0.0,0.0,0.0,0.0,0.0,0.0,0.0,0.0,0.0,0.0,0.0,0.0,0.0,0.0,0.0,0.0,0.0,0.0,0.0,0.0,0.0,0.0,0.0,0.0,0.0,0.0,0.0,0.0,0.0,0.0,0.0,0.0,0.0,0.0,0.0,0.0,0.0,0.0,0.0,0.0,0.0,0.0,0.0,0.0,0.0,0.0,0.0,0.0,0.0,0.0,0.0,0.0,0.0,0.0,0.0,0.0,0.0,0.0,0.0,0.0,0.0,0.0,0.0,0.0,0.0,0.0,0.0,0.0,0.0,0.0,0.0,0.0,0.0,0.0,0.0,0.0,0.0,0.0,0.0,0.0,0.0,0.0,0.0,0.0,0.0,0.0,0.0,0.0,0.0,0.0,0.0,0.0,0.0,0.0,0.0,0.0,0.0,0.0,0.0,0.0,0.0,0.0,0.0,0.0,0.0,0.0,0.0,0.0,0.0,0.0,0.0,0.0,0.0,0.0,0.0,0.0,0.0,0.0,0.0,0.0,0.0,0.0,0.0,0.0,0.0,0.0,0.0,0.0,0.0,0.0,0.0,0.0,0.0,0.0,0.0,0.0,0.0,0.0,0.0,0.0,0.0,0.0,0.0,0.0,0.0,0.0,0.0,0.0,0.0,0.0,0.0,0.0,0.0,0.0,0.0,0.0,0.0,0.0,0.0,0.0,0.0,0.0,0.0,0.0,0.0,0.0,0.0,0.0,0.0,0.0,0.0,0.0,0.0,0.0,0.0,0.0,0.0,0.0,0.0,0.0,0.0,0.0,0.0,0.0,0.0,0.0,0.0,0.0,0.0,0.0,0.0,0.0,0.0,0.0,0.0,0.0,0.0,0.0,0.0,0.0,0.0,0.0,0.0,0.0,0.0,0.0,0.0,0.0,0.0,0.0,0.0,0.0,0.0,0.0,0.0,0.0,0.0,0.0,0.0,0.0,0.0,0.0,0.0,0.0,0.0,0.0,0.0,0.0,0.0,0.0,0.0,0.0,0.0,0.0,0.0,0.0,0.0,0.0,0.0,0.0,0.0,0.0,0.0,0.0,0.0,0.0,0.0,0.0,0.0,0.0,0.0,0.0,0.0,0.0,0.0,0.0,0.0,0.0,0.0,0.0,0.0,0.0,0.0,0.0,0.0,0.0,0.0,0.0,0.0,0.0,0.0,0.0,0.0,0.0,0.0,0.0,0.0,0.0,0.0,0.0,0.0,0.0,0.0,0.0,0.0,0.0,0.0,0.0,0.0,0.0,0.0,0.0,0.0,0.0,0.0,0.0,0.0,0.0,0.0,0.0,0.0,0.0,0.0,0.0,0.0,0.0,0.0,0.0,0.0,0.0,0.0,0.0,0.0,0.0,0.0,0.0,0.0,0.0,0.0,0.0,0.0,0.0,0.0,0.0,0.0,0.0,0.0,0.0,0.0,0.0,0.0,0.0,0.0,0.0,0.0,0.0,0.0,0.0,0.0,0.0,0.0,0.0,0.0,0.0,0.0,0.0,0.0,0.0,0.0,0.0,0.0,0.0,0.0,0.0,0.0,0.0,0.0,0.0,0.0,0.0,0.0,0.0,0.0,0.0,0.0,0.0,0.0,0.0,0.0,0.0,0.0,0.0,0.0,0.0,0.0,0.0,0.0,0.0,0.0,0.0,0.0,0.0,0.0,0.0,0.0,0.0,0.0,0.0,0.0,0.0,0.0,0.0,0.0,0.0,0.0,0.0,0.0,0.0,0.0,0.0,0.0,0.0,0.0,0.0,0.0,0.0,0.0,0.0,0.0,0.0,0.0,0.0,0.0,0.0,0.0,0.0,0.0,0.0,0.0,0.0,0.0,0.0,0.0,0.0,0.0,0.0,0.0,0.0,0.0,0.0,0.0,0.0,0.0,0.0,0.0,0.0,0.0,0.0,0.0,0.0,0.0,0.0,0.0,0.0,0.0,0.0,0.0,0.0,0.0,0.0,0.0,0.0,0.0,0.0,0.0,0.0,0.0,0.0,0.0,0.0,0.0,0.0,0.0,0.0,0.0,0.0,0.0,0.0,0.0,0.0,0.0,0.0,0.0,0.0,0.0,0.0,0.0,0.0,0.0,0.0,0.0,0.0,0.0,0.0,0.0,0.0,0.0,0.0,0.0,0.0,0.0,0.0,0.0,0.0,0.0,0.0,0.0,0.0,0.0,0.0,0.0,0.0,0.0,0.0,0.0,0.0,0.0,0.0,0.0,0.0,0.0,0.0,0.0,0.0,0.0,0.0,0.0,0.0,0.0,0.0,0.0,0.0,0.0,0.0,0.0,0.0,0.0,0.0,0.0,0.0,0.0,0.0,0.0,0.0,0.0,0.0,0.0,0.0,0.0,0.0,0.0,0.0,0.0,0.0,0.0,0.0,0.0,0.0,0.0,0.0,0.0,0.0,0.0,0.0,0.0,0.0,0.0,0.0,0.0,0.0,0.0,0.0,0.0,0.0,0.0,0.0,0.0,0.0,0.0,0.0,0.0,0.0,0.0,0.0,0.0,0.0,0.0,0.0,0.0,0.0,0.0,0.0,0.0,0.0,0.0,0.0,0.0,0.0,0.0,0.0,0.0,0.0,0.0,0.0,0.0,0.0,0.0,0.0,0.0,0.0,0.0,0.0,0.0,0.0,0.0,0.0,0.0,0.0,0.0,0.0,0.0,0.0,0.0,0.0,0.0,0.0,0.0,0.0,0.0,0.0,0.0,0.0,1.3576,0.0,0.0,0.0,0.0,0.0,0.0,0.0,0.0,0.0,0.0,0.0,0.0,0.0,0.0,0.0,0.0,0.0,0.0,0.0,0.0,0.0,0.0,0.0,0.0,0.0,0.0,0.0,0.0,0.0,0.0,0.0,0.0,0.0,0.0,0.0,0.0,0.0,0.0,0.0,1.5349,1.5934,1.6816,1.7321,1.7501,1.7433,0.0,0.0,0.0,0.0,0.0,0.0,0.0,0.0,0.0,0.0,0.0,0.0,0.0,0.0,0.0,0.0,0.0,0.0,0.0,0.0,0.0,0.0,0.0,0.0,0.0,0.0,0.0,0.0,0.0,0.0,0.0,0.0,0.0,0.0,0.0,0.0,0.0,0.0,0.0,0.0,0.0,0.0,0.0,0.0,0.0,0.0,0.0,0.0,0.0,0.0,0.0,0.0,0.0,0.0,0.0,0.0,0.0,0.0,0.0,0.0,0.0,0.0,0.0,0.0,0.0,0.0,0.0,0.0,0.0,0.0,0.0,1.5199,0.0,0.0,0.0,0.0,0.0,0.0,0.0,0.0,0.0,0.0,0.0,0.0,0.0,0.0,0.0,0.0,0.0,0.0,0.0,0.0,0.0,0.0,0.0,0.0,1.4369,1.4309,1.4337,1.433,0.0,0.0,0.0,0.0,0.0,0.0,0.0,1.512,1.5587,1.5427,1.6087,1.6782,1.7543,1.7962,1.8277,1.8406,1.7648,0.0,0.0,0.0,0.0,0.0,0.0,0.0,0.0,0.0,0.0,0.0,0.0,0.0,0.0,0.0,0.0,0.0,0.0,0.0,0.0,0.0,0.0,0.0,0.0,0.0,0.0,0.0,0.0,0.0,0.0,0.0,0.0,0.0,0.0,0.0,0.0,0.0,0.0,0.0,0.0,0.0,0.0,0.0,0.0,0.0,0.0,0.0,0.0,0.0,0.0,0.0,0.0,0.0,0.0,0.0,0.0,0.0,0.0,0.0,0.0,0.0,0.0,0.0,1.6047,1.6331,1.6867,1.6957,1.6957,1.6856,1.6713,1.6049,1.5131,0.0,0.0,0.0,0.0,0.0,0.0,0.0,0.0,0.0,0.0,0.0,0.0,0.0,0.0,0.0,0.0,0.0,0.0,0.0,0.0,0.0,0.0,1.4014,1.3864,1.3558,1.3697,1.3674,0.0,0.0,0.0,0.0,0.0,0.0,1.4673,1.4678,1.5224,1.6317,1.7718,1.8973,2.0021,1.9973,2.0232,2.0579,1.8665,1.8019,1.8341,0.0,0.0,0.0,0.0,0.0,0.0,0.0,0.0,0.0,0.0,0.0,0.0,0.0,0.0,0.0,0.0,0.0,0.0,0.0,0.0,0.0,0.0,0.0,0.0,0.0,0.0,0.0,0.0,0.0,0.0,0.0,0.0,0.0,0.0,0.0,0.0,0.0,0.0,0.0,0.0,0.0,1.4163,1.4057,0.0,0.0,0.0,0.0,0.0,0.0,0.0,0.0,0.0,0.0,0.0,0.0,0.0,0.0,1.6271,1.6282,1.6957,1.8277,1.8232,1.8651,1.9517,1.9995,1.9913,1.9408,1.9584,0.0,1.5869,1.5916,0.0,0.0,0.0,0.0,0.0,0.0,0.0,0.0,0.0,0.0,0.0,0.0,0.0,0.0,0.0,0.0,0.0,0.0,0.0,0.0,0.0,1.3909,1.4051,1.397,1.4898,1.4998,1.3831,1.4404,0.0,0.0,0.0,1.4068,1.4114,1.5113,1.6428,1.8073,1.9627,2.0726,2.1413,2.2035,2.222,2.1956,2.1327,2.0093,1.8484,1.8316,0.0,0.0,0.0,0.0,0.0,0.0,0.0,0.0,0.0,0.0,0.0,0.0,0.0,0.0,0.0,0.0,0.0,0.0,0.0,0.0,0.0,0.0,0.0,0.0,0.0,0.0,0.0,0.0,0.0,0.0,0.0,0.0,0.0,0.0,0.0,0.0,0.0,0.0,0.0,1.4199,1.421,1.4221,1.428,1.4326,0.0,0.0,0.0,0.0,0.0,0.0,0.0,0.0,0.0,1.6082,1.677,1.7315,1.774,1.8031,1.8592,1.9437,1.9178,1.968,2.0851,2.0774,2.0891,2.1093,2.044,1.9539,1.8493,1.7284,1.6847,1.6883,0.0,0.0,0.0,0.0,1.7048,1.7362,0.0,0.0,0.0,0.0,0.0,0.0,0.0,0.0,0.0,0.0,0.0,0.0,1.3838,1.4483,1.5043,1.5356,1.6458,1.6512,1.5069,1.5364,0.0,0.0,1.4115,1.4198,1.3937,1.6004,1.791,1.9556,2.1348,2.2402,2.2828,2.4081,2.4321,2.3724,2.4165,2.2589,1.963,1.9716,1.8874,1.7475,0.0,0.0,0.0,0.0,0.0,0.0,0.0,0.0,0.0,0.0,0.0,0.0,0.0,0.0,0.0,0.0,0.0,0.0,0.0,0.0,0.0,0.0,0.0,0.0,0.0,0.0,0.0,0.0,0.0,0.0,0.0,0.0,0.0,0.0,0.0,0.0,0.0,1.4331,1.441,1.4395,1.4517,1.4538,0.0,0.0,0.0,0.0,0.0,0.0,1.5654,1.588,1.642,1.7412,1.8054,1.857,1.8936,1.9232,1.9665,2.0259,2.027,2.093,2.2173,2.1977,2.2243,2.2858,2.1729,2.1382,2.1394,1.888,1.8005,1.8236,1.7751,1.7654,1.7857,1.8202,1.8557,1.8923,0.0,0.0,0.0,0.0,0.0,0.0,0.0,0.0,0.0,0.0,0.0,1.3907,1.4991,1.6162,1.7177,1.7943,1.7852,1.7553,1.7086,1.5312,1.4317,1.4344,1.4029,1.4151,1.4829,1.7369,1.9214,2.0254,2.2692,2.4135,2.4687,2.609,2.663,2.6412,2.6573,2.5253,2.2841,2.116,2.0332,1.9975,1.827,0.0,0.0,0.0,0.0,0.0,0.0,0.0,0.0,0.0,0.0,0.0,0.0,0.0,0.0,0.0,0.0,0.0,0.0,0.0,0.0,0.0,0.0,0.0,0.0,0.0,0.0,0.0,0.0,0.0,0.0,0.0,0.0,0.0,0.0,0.0,0.0,0.0,0.0,1.4451,1.4788,0.0,0.0,0.0,0.0,1.5072,1.5473,1.6201,1.7241,1.6759,1.7372,1.9388,1.8226,1.8194,1.9551,1.9191,1.9661,2.0943,2.2084,2.311,2.4005,2.472,2.5085,2.512,2.4523,2.4296,2.4012,2.0473,1.9136,1.932,1.9153,1.9008,1.8975,1.9507,1.9712,1.9796,0.0,0.0,0.0,0.0,0.0,0.0,0.0,0.0,1.3878,1.359,1.4315,1.5155,1.5886,1.7424,1.8666,1.9295,1.9643,1.9182,1.7731,1.6825,1.6009,1.5281,1.4888,1.5631,1.763,1.8885,2.0648,2.3002,2.4696,2.5968,2.6835,2.7834,2.8437,2.862,2.8175,2.7301,2.6038,2.3903,2.1839,1.9887,1.903,1.7814,0.0,0.0,0.0,0.0,0.0,0.0,0.0,0.0,0.0,0.0,0.0,0.0,0.0,0.0,0.0,0.0,0.0,0.0,0.0,0.0,0.0,0.0,0.0,0.0,0.0,0.0,0.0,0.0,0.0,0.0,0.0,0.0,0.0,0.0,0.0,0.0,0.0,1.6197,1.642,0.0,1.6289,1.6758,1.6939,1.6551,1.6582,1.6973,1.7828,1.7477,1.7999,1.9565,2.036,2.1061,2.1642,2.1775,2.2094,2.268,2.2322,2.2644,2.3541,2.3457,2.3738,2.422,2.3198,2.2907,2.3018,2.1104,2.1074,2.2163,2.1404,2.1524,2.2072,2.1927,2.2084,2.2349,0.0,0.0,0.0,0.0,0.0,0.0,0.0,0.0,1.3758,1.3615,1.4961,1.6178,1.6833,1.8839,2.0415,2.1124,2.1017,2.0347,1.9094,1.7647,1.6493,1.5718,1.5524,1.6719,1.9475,2.0354,2.211,2.4791,2.6238,2.7237,2.7913,2.8701,2.9352,2.9852,2.916,2.883,2.8619,2.6661,2.4021,2.1043,2.0283,1.9315,1.8266,0.0,0.0,0.0,0.0,0.0,0.0,0.0,0.0,0.0,0.0,0.0,0.0,0.0,0.0,0.0,0.0,0.0,0.0,0.0,0.0,0.0,0.0,0.0,0.0,0.0,0.0,0.0,0.0,0.0,0.0,0.0,0.0,0.0,0.0,0.0,1.6689,1.7453,1.7802,1.7962,1.7798,1.8027,1.8018,1.7629,1.7784,1.8135,1.8621,1.8721,1.9256,2.0303,2.1182,2.1829,2.2159,2.2275,2.2433,2.2569,2.2176,2.2334,2.2937,2.3015,2.328,2.3638,2.2945,2.2796,2.2991,2.2206,2.2889,2.4284,2.2593,2.2362,2.2977,2.2803,2.324,2.3878,0.0,0.0,0.0,0.0,0.0,0.0,0.0,1.4089,1.3771,1.3657,1.5383,1.6949,1.7852,2.0397,2.2418,2.3382,2.1877,2.0932,2.1102,1.7578,1.5548,1.5737,1.592,1.7338,2.0263,2.1777,2.3516,2.548,2.7111,2.7913,2.7954,2.8742,2.9444,2.9992,2.9609,2.9869,3.0521,2.9293,2.685,2.3717,2.2079,2.1638,2.1672,0.0,0.0,0.0,0.0,0.0,0.0,0.0,0.0,0.0,0.0,0.0,0.0,0.0,0.0,0.0,0.0,0.0,0.0,0.0,0.0,0.0,0.0,0.0,0.0,0.0,0.0,0.0,0.0,0.0,0.0,0.0,0.0,0.0,1.567,1.7064,1.8075,1.813,1.8908,1.9278,1.882,1.8501,1.8303,1.826,1.9086,1.9643,1.9749,2.0407,2.1104,2.1749,2.0546,2.0223,2.0934,2.0547,2.0479,2.0702,2.1845,2.2397,2.2466,2.3688,2.3984,2.3597,2.404,2.4252,2.4218,2.3765,2.4363,2.5332,2.2568,2.1531,2.1607,2.2124,2.3081,2.4238,0.0,0.0,0.0,0.0,0.0,0.0,0.0,1.3892,1.3918,1.4276,1.5981,1.7615,1.8783,2.1116,2.2683,2.2892,2.1069,1.9742,1.9399,1.6392,1.5309,1.6792,1.7637,1.9562,2.2742,2.3458,2.4901,2.7201,2.7584,2.7971,2.8407,2.9084,2.9849,3.0646,3.0452,3.0541,3.0821,3.0067,2.8866,2.7333,2.4827,2.3114,2.1814,0.0,0.0,0.0,0.0,0.0,0.0,0.0,0.0,0.0,0.0,0.0,0.0,0.0,0.0,0.0,0.0,0.0,0.0,0.0,0.0,0.0,0.0,0.0,0.0,0.0,0.0,0.0,0.0,0.0,0.0,0.0,0.0,1.7658,1.7687,1.8395,1.9412,2.0936,2.0501,2.0142,2.0397,2.0923,2.0834,1.9879,2.0989,2.1422,2.0683,2.0683,2.0781,2.0847,2.1451,2.1747,2.1759,2.1712,2.1913,2.241,2.2148,2.2215,2.2542,2.2895,2.3005,2.2891,2.3026,2.3078,2.3067,2.2943,2.3109,2.3501,2.3847,2.4476,2.5076,2.4826,2.4698,2.4716,0.0,0.0,0.0,0.0,0.0,0.0,0.0,1.3898,1.3954,1.4603,1.6513,1.8166,1.9102,2.1128,2.2207,2.1653,1.9978,1.8625,1.7788,1.6023,1.5614,1.6958,1.864,2.0775,2.3444,2.4549,2.604,2.7931,2.8039,2.8447,2.9097,2.9438,3.0233,3.1281,3.1089,3.1153,3.1339,3.0833,3.0292,2.9665,2.7686,2.6181,2.4827,2.2832,2.203,2.1732,1.9794,1.949,1.9713,1.798,0.0,0.0,0.0,0.0,0.0,0.0,0.0,0.0,0.0,0.0,0.0,0.0,0.0,0.0,0.0,0.0,0.0,0.0,0.0,0.0,0.0,0.0,0.0,0.0,1.8523,1.9683,1.9783,1.9874,2.0511,2.2115,2.1449,2.1082,2.1596,2.1586,2.1312,2.0723,2.163,2.1839,2.1017,2.1515,2.1646,2.1231,2.1974,2.2352,2.2259,2.2329,2.2581,2.3137,2.2671,2.2574,2.288,2.3063,2.3053,0.0,2.3074,2.3155,2.3145,2.2951,2.3053,0.0,0.0,0.0,0.0,0.0,2.4745,2.4353,0.0,0.0,0.0,0.0,0.0,0.0,0.0,1.3973,1.3873,1.4669,1.6804,1.8403,1.8803,2.0505,2.117,1.9978,1.8641,1.7357,1.6166,1.5982,1.6227,1.6844,1.9133,2.1312,2.3248,2.5209,2.6807,2.8006,2.8511,2.9116,2.98,2.9951,3.0649,3.1806,3.1631,3.1689,3.184,3.1471,3.1161,3.091,3.019,2.9655,2.8987,2.6167,2.5195,2.5078,2.2688,2.1258,2.0346,1.9417,0.0,0.0,0.0,0.0,0.0,0.0,0.0,0.0,0.0,0.0,0.0,0.0,0.0,0.0,0.0,0.0,0.0,0.0,0.0,0.0,0.0,0.0,0.0,0.0,2.0249,2.1614,2.2025,2.149,2.1428,2.2422,2.2069,2.1938,2.244,2.1355,2.0768,2.1104,2.1675,2.1755,2.1081,0.0,0.0,0.0,0.0,2.2337,2.2482,2.2482,2.2757,2.3267,2.3267,2.3287,2.335,2.3764,2.3732,2.336,2.3774,2.395,2.3919,2.3515,2.3774,2.4339,2.2986,2.2478,2.26,2.3805,2.3938,2.3736,0.0,0.0,0.0,0.0,0.0,0.0,0.0,1.3608,1.3856,1.4537,1.6277,1.7385,1.7256,1.8977,1.9657,1.8516,1.679,1.5338,1.4296,1.5036,1.6442,1.8538,1.9705,2.162,2.4419,2.5678,2.6862,2.8006,2.9146,2.9723,2.9728,3.0761,3.1461,3.182,3.199,3.1974,3.1813,3.1458,3.1099,3.0761,3.0568,3.0019,2.9118,2.7447,2.6248,2.5292,2.4347,2.4023,2.3781,2.1729,2.1332,2.1234,1.88,1.7517,0.0,0.0,0.0,0.0,0.0,0.0,0.0,0.0,0.0,0.0,0.0,0.0,0.0,0.0,0.0,0.0,0.0,0.0,0.0,2.0667,2.2154,2.3639,2.484,2.3318,2.2591,2.3843,2.2675,2.2119,2.2955,2.2483,2.1859,2.1222,2.2922,2.342,2.2195,2.2794,0.0,2.1892,2.2256,2.2468,2.2492,2.2482,2.291,2.3743,0.0,0.0,2.4239,2.4332,2.4321,2.4239,2.4332,2.4373,2.4363,2.427,2.4257,2.4229,2.4088,2.4069,2.4079,2.4332,2.4396,2.4334,0.0,0.0,0.0,0.0,0.0,0.0,0.0,1.3556,1.3672,1.4396,1.5617,1.6377,1.6296,1.7231,1.7336,1.605,1.4773,1.4178,1.4518,1.6097,1.7662,1.9172,2.0948,2.2402,2.3508,2.528,2.6526,2.7144,2.8583,2.9695,3.0466,3.1088,3.1661,3.2121,3.2236,3.1959,3.1384,3.1235,3.0986,3.066,3.0228,2.9834,2.9483,2.9233,2.8247,2.6907,2.6243,2.5352,2.426,2.2661,2.2021,2.159,2.0095,1.8978,1.8009,0.0,0.0,0.0,0.0,0.0,0.0,0.0,0.0,0.0,0.0,0.0,0.0,0.0,0.0,1.7924,0.0,0.0,2.174,2.2349,2.3737,2.4708,2.4724,2.4006,2.3651,2.4286,2.2404,2.159,2.2907,2.2463,2.2094,2.2132,2.3065,2.3261,2.2451,2.275,2.2741,2.2322,2.2746,2.2982,2.2976,2.3229,2.3645,2.4209,2.4209,2.4322,2.4497,2.4497,2.4497,2.4497,2.4497,2.4497,2.4497,2.4497,2.4454,2.4368,2.4454,2.4368,2.4196,2.4282,2.4325,2.4368,0.0,0.0,0.0,0.0,0.0,0.0,0.0,1.3378,1.3358,1.4024,1.4841,1.5357,1.5289,1.5515,1.507,1.3674,1.3361,1.385,1.5259,1.7521,1.9078,1.9659,2.2116,2.3191,2.2556,2.4696,2.5916,2.6086,2.7714,2.9187,3.0515,3.0945,3.1472,3.2114,3.22,3.1813,3.1011,3.0986,3.0849,3.0584,2.9741,2.9523,2.973,3.0177,2.9505,2.8226,2.7548,2.5866,2.3827,2.3114,2.2136,2.1229,2.107,2.039,1.938,1.7832,1.7531,0.0,0.0,0.0,0.0,0.0,0.0,0.0,0.0,0.0,1.6905,1.7926,1.8726,1.9447,2.0154,2.1841,2.3244,2.3595,2.4755,2.5198,2.4078,2.4137,2.4317,2.4287,2.2269,2.1479,2.3112,2.2426,2.2272,2.303,2.283,2.2606,2.2416,2.2618,2.275,2.2838,2.3198,2.346,2.3634,2.398,2.4239,2.4497,2.4411,2.4368,2.4368,2.4282,2.4239,2.4239,2.4239,2.4239,2.4239,2.4325,2.4368,2.4368,2.4454,2.4282,2.397,2.4196,2.4249,2.4292,0.0,0.0,0.0,0.0,0.0,0.0,0.0,0.0,1.2903,1.3052,1.397,1.4316,1.35,1.3994,1.3842,1.2429,1.3588,1.4635,1.5207,1.7961,1.9914,2.0697,2.2413,2.3356,2.3441,2.4374,2.5016,2.5321,2.7164,2.8075,2.8118,3.0056,3.0987,3.1082,3.1495,3.1495,3.1158,3.0861,3.0609,3.0368,2.969,2.9523,2.9576,2.849,2.7746,2.733,2.7105,2.5784,2.4026,2.3638,2.304,2.2389,2.1737,2.1428,2.0859,1.8438,1.7564,1.689,1.4787,1.4694,1.5244,1.5571,1.6361,1.7542,0.0,0.0,2.0599,2.1607,2.2353,2.273,2.2503,2.3643,2.4564,2.4262,2.4769,2.5046,2.4801,2.4159,2.3809,2.4159,2.3381,2.3224,2.4408,2.3457,2.2843,2.3095,2.282,2.2552,2.2416,2.2441,2.2662,2.3047,2.2925,2.3285,2.412,2.3937,2.4057,2.4497,2.4057,2.3884,2.3884,2.345,2.3276,2.3276,2.3276,2.3276,2.3266,2.3711,2.3884,2.3927,2.4325,2.4454,2.4411,2.4454,2.4454,2.4454,0.0,0.0,0.0,0.0,0.0,0.0,0.0,0.0,0.0,0.0,1.2877,1.2955,1.2391,1.2575,1.2484,1.1804,1.342,1.483,1.5676,1.864,2.0765,2.1551,2.2944,2.3634,2.342,2.4276,2.498,2.5481,2.6829,2.7882,2.8658,2.9548,2.9983,2.9961,3.0063,2.9922,2.9614,2.9484,2.9419,2.938,2.8633,2.8203,2.7855,2.641,2.5231,2.4419,2.4877,2.3837,0.0,2.2069,2.1856,2.1631,2.1598,2.1396,2.0751,1.8561,1.7828,1.7464,1.6308,1.5974,1.6212,0.0,1.8097,1.8945,2.0543,2.1027,2.1444,2.251,2.3319,2.3935,2.415,2.445,2.4619,0.0,2.4295,2.4124,2.3726,2.3402,2.3138,2.2949,2.2796,2.2934,2.3597,2.2952,2.2615,2.2964,2.2843,2.2631,2.237,2.1994,2.2097,2.2652,2.275,2.3057,2.3537,2.3711,2.3754,2.3667,2.3493,2.3396,2.3406,2.3188,2.3091,2.3091,2.3091,2.3091,2.3135,2.3309,2.3537,2.3841,2.4013,2.4282,2.4497,2.4497,2.4497,2.4497,0.0,0.0,0.0,0.0,0.0,0.0,0.0,0.0,0.0,0.0,1.2073,1.2046,1.1697,1.1588,1.1522,1.1437,1.3139,1.4686,1.575,1.8906,2.1063,2.1822,2.3274,2.3861,2.3383,2.4082,2.4679,2.5113,2.5949,2.6907,2.8038,2.855,2.881,2.8876,2.9045,2.8951,2.8661,2.8621,2.8621,2.8621,2.7629,2.6989,2.6459,2.4476,2.2984,2.1993,2.2478,2.1531,2.0085,1.9953,1.991,1.9986,2.0445,2.0445,1.9942,1.8042,1.721,1.6933,1.706,1.7049,1.7379,1.8912,1.9885,2.072,2.1784,2.2273,2.282,2.3695,2.4385,2.4946,2.5338,2.4924,2.4454,2.4319,2.3761,2.313,2.2519,2.2675,2.2604,2.1813,2.1926,2.2108,2.2217,2.2315,2.2521,2.297,2.2914,2.2694,2.2372,2.1896,2.1963,2.2564,2.2662,2.2838,2.3091,2.345,2.345,2.3091,2.296,2.2916,2.2916,2.2784,2.2696,2.2696,2.2696,2.2696,2.274,2.2828,2.3101,2.345,2.3711,2.4013,2.4325,2.4454,2.4497,2.4497,0.0,0.0,0.0,0.0,0.0,0.0,0.0,0.0,0.0,0.0,0.0,0.0,0.0,1.1256,1.1212,1.1217,1.2811,1.4192,1.5061,1.8322,2.0504,2.1219,2.3126,2.3982,2.3593,2.3824,2.3824,2.3652,2.4146,2.454,2.4876,2.6632,2.7581,2.7879,2.8937,2.9289,2.9081,2.8858,2.8673,2.8374,2.7009,2.6432,2.6078,2.2869,2.1421,2.0962,2.0402,1.9299,1.8021,1.7569,1.7415,1.7503,1.7966,1.8403,1.8439,1.6761,1.5252,0.0,0.0,0.0,1.8537,1.9767,2.1644,2.3331,2.39,2.4919,2.5828,2.6058,2.6339,2.6377,2.5961,2.5137,2.4341,2.3806,2.3231,2.2519,2.1548,2.2224,2.2384,2.1183,2.1077,2.0971,0.0,2.1857,2.2931,2.328,2.298,2.2677,2.241,2.2397,2.2564,2.3047,2.2662,2.2618,2.3091,2.3091,2.3091,2.3091,2.2652,2.2441,2.2397,2.1954,2.1741,2.1741,2.1741,2.1741,2.1785,2.222,2.2432,2.252,2.344,2.3797,2.3884,2.4325,2.4497,2.4497,0.0,0.0,0.0,0.0,0.0,0.0,0.0,0.0,0.0,0.0,0.0,0.0,0.0,0.0,0.0,0.0,1.2257,1.3312,1.3754,1.6732,1.866,1.908,2.1107,2.2205,2.216,2.2566,2.3097,2.3787,2.3509,2.3977,2.5177,2.5317,2.5721,2.6289,2.664,2.6956,2.7162,2.691,2.6851,2.6764,2.5165,2.4344,2.3813,2.1241,1.9577,1.8508,0.0,1.7153,1.6631,1.6398,1.6291,1.6378,1.6874,1.689,0.0,1.5734,0.0,0.0,0.0,0.0,2.0555,2.2694,2.3655,2.4359,2.5282,2.5681,2.5808,2.5604,2.5073,2.4512,2.4061,2.2756,2.1807,2.1838,2.144,2.1116,2.1067,2.159,2.1763,2.1044,2.1138,0.0,0.0,0.0,0.0,2.187,2.2112,2.2087,2.1871,2.1797,2.1963,2.2407,2.2274,2.2353,2.2618,2.2662,2.2476,2.2176,2.1998,2.1954,2.1909,2.1776,2.1696,2.1696,2.1696,2.1696,2.1687,2.1865,2.2132,2.2432,2.274,2.3047,2.3353,2.3527,2.358,2.3667,0.0,0.0,0.0,0.0,0.0,0.0,0.0,0.0,0.0,0.0,0.0,0.0,0.0,0.0,0.0,0.0,0.0,1.2502,1.2789,1.5063,1.6726,1.742,1.8959,2.0074,2.0643,2.098,2.1563,2.2412,2.1913,2.2383,2.3675,2.3105,2.326,2.3963,2.405,2.4222,2.4505,2.4307,2.4222,2.4126,2.2814,2.204,2.1419,1.9412,1.8083,0.0,1.607,1.5633,1.5559,1.5411,1.5337,1.5342,1.5662,1.5622,0.0,0.0,0.0,0.0,0.0,2.0961,2.227,2.4426,2.5007,2.5275,2.5931,2.599,2.5764,2.5314,2.4399,2.3504,2.2789,2.1318,2.014,1.9993,1.9605,1.9461,1.9984,2.0321,2.0515,2.0483,2.0754,2.0917,0.0,0.0,0.0,2.1417,2.1822,2.1989,2.1807,2.1707,2.1859,2.2311,2.2221,2.2212,2.2346,2.2346,2.2138,2.1696,2.1696,2.1696,2.1696,2.1696,2.1696,2.1696,2.1696,2.1696,2.1696,2.1696,2.1865,2.2176,2.2353,2.2564,2.2872,2.3057,2.3091,2.3232,0.0,0.0,0.0,0.0,0.0,0.0,0.0,0.0,0.0,0.0,0.0,0.0,0.0,0.0,0.0,0.0,0.0,0.0,1.2203,1.3434,1.4817,1.6264,1.6852,1.7771,1.91,1.9133,1.9279,1.9595,1.9429,1.9739,2.0472,2.0124,2.0358,2.1089,2.1303,2.137,2.1391,2.1308,2.1117,2.0737,2.0049,1.9586,1.9102,1.7424,1.6894,1.6796,1.5328,1.4776,1.4776,1.4661,0.0,0.0,0.0,0.0,0.0,0.0,0.0,1.8536,2.1023,2.2534,2.3676,2.4938,2.5722,2.6146,2.5904,2.583,2.5644,2.5131,2.4174,2.3096,0.0,0.0,1.9342,1.8462,1.7885,1.7857,1.8562,1.8732,1.8973,0.0,0.0,0.0,0.0,0.0,0.0,2.1887,0.0,2.2208,2.2063,2.2108,2.2294,2.2666,2.2456,2.23,2.2282,2.2254,2.2062,2.1696,2.1696,2.1696,2.1696,2.1696,2.1696,2.1696,2.1696,2.1696,2.1696,2.1696,2.1696,2.1731,2.2176,2.2353,2.2441,2.2872,2.3047,2.3091,0.0,0.0,0.0,0.0,0.0,0.0,0.0,0.0,0.0,0.0,0.0,0.0,0.0,0.0,0.0,0.0,0.0,0.0,1.1187,1.2746,1.3702,1.375,1.4822,1.5754,1.6439,1.6814,1.7403,1.8211,1.7767,1.8051,1.8955,1.8471,1.8699,1.9554,1.9607,1.9796,2.0082,1.9919,1.9716,1.9458,1.8332,1.7854,1.7599,1.6003,1.549,1.5527,1.4893,1.473,1.4776,0.0,0.0,0.0,0.0,1.6269,1.7396,0.0,0.0,2.1001,2.2691,2.3924,2.4872,2.5535,2.585,2.5891,2.5478,2.4803,2.3922,2.2746,2.1069,1.9601,0.0,0.0,0.0,1.829,1.8593,0.0,1.9752,2.0292,0.0,2.0612,0.0,2.1872,2.1686,2.1696,0.0,0.0,2.2409,2.2144,2.1733,2.2345,2.2685,2.2636,2.2692,2.2602,2.2282,2.1989,2.1797,2.1696,2.1696,2.1696,2.1696,2.1696,2.1696,2.1696,2.1696,2.1696,2.1696,2.1696,2.1696,2.1687,2.182,2.1865,2.1909,2.1998,2.2043,2.2132,0.0,0.0,0.0,0.0,0.0,0.0,0.0,0.0,0.0,0.0,0.0,0.0,0.0,0.0,0.0,0.0,0.0,0.0,0.0,1.1965,1.268,1.2708,1.3387,1.4066,1.4736,1.5016,1.538,1.5857,1.5531,1.5759,1.6498,1.5929,1.6198,1.7156,1.7128,1.7245,1.7441,1.7325,1.7186,0.0,0.0,1.5743,1.5529,1.4778,1.4551,1.459,1.439,1.4562,1.4885,0.0,0.0,1.6304,1.6885,1.7915,1.9137,2.0314,0.0,2.2794,2.4028,2.4912,2.5557,2.583,2.5742,2.5404,2.4694,2.3798,2.2641,2.1178,1.9567,0.0,1.7282,1.697,0.0,0.0,0.0,0.0,1.9436,2.0,2.048,0.0,2.1852,0.0,2.2366,2.2272,2.2377,0.0,2.2288,2.1995,2.2026,2.2485,2.2788,2.2865,2.3065,2.305,2.2812,2.2236,2.1952,2.1952,2.1769,2.1696,2.1696,2.1696,2.1696,2.1696,0.0,2.1696,2.1696,2.1696,2.1696,2.1696,2.1696,2.1696,2.1696,2.1696,2.1696,2.1776,0.0,0.0,0.0,0.0,0.0,0.0,0.0,0.0,0.0,0.0,0.0,0.0,0.0,0.0,0.0,0.0,0.0,0.0,0.0,0.0,1.196,1.2549,1.241,1.2741,1.3622,1.3656,1.3594,1.3461,1.3437,1.3634,1.401,1.3487,1.3748,1.464,1.4592,1.4541,1.4486,1.4513,1.437,1.4129,1.4013,1.3826,1.3563,0.0,1.3897,1.3931,1.3954,1.4339,1.4998,1.6249,1.6825,1.7269,1.8575,1.9736,2.0849,2.2215,2.323,2.4115,2.5022,2.5579,2.5895,2.5895,2.5491,2.4825,2.3853,2.2768,2.1534,1.987,0.0,1.7632,1.6449,1.6539,1.6647,1.6128,0.0,1.7374,1.8647,1.9149,1.9887,2.1159,2.2023,2.2518,2.2709,2.2625,2.2673,2.2804,2.2207,2.2051,2.2666,2.2777,2.2976,2.3338,2.3429,2.3471,2.3416,2.2657,2.2254,2.2199,2.1861,2.1696,2.1696,2.1696,2.1696,2.1696,0.0,0.0,2.1696,2.1696,2.1696,2.1696,2.1696,2.1696,2.1696,2.1696,2.1696,2.1785,0.0,0.0,0.0,0.0,0.0,0.0,0.0,0.0,0.0,0.0,0.9986,0.9703,0.0,0.0,0.0,0.0,0.0,0.0,0.0,0.0,0.0,1.2421,1.2141,1.224,1.2807,1.2912,1.3058,1.324,1.345,1.3539,1.3515,1.3525,1.3631,1.381,1.3795,1.3679,1.3471,1.357,1.3501,1.3318,1.3355,1.3312,1.3266,1.3314,0.0,0.0,1.3763,1.4041,1.4653,1.6829,1.8172,1.9133,2.0183,2.1691,2.3204,2.3919,2.4497,2.5043,2.5622,2.5841,2.5895,2.5895,2.5251,2.4344,2.3351,2.1743,0.0,0.0,1.6965,1.6116,1.5124,1.5393,1.6123,1.7206,1.7744,1.8492,1.9831,2.0944,2.1582,0.0,0.0,0.0,0.0,0.0,0.0,0.0,0.0,2.2988,2.3109,2.3611,2.3978,2.4002,2.3672,2.3343,2.3014,2.2529,2.2117,2.1797,2.1723,2.1696,2.1696,2.1696,2.1696,2.1696,2.1696,0.0,2.1696,2.1696,2.1696,2.1696,2.1696,2.1696,2.1696,2.1696,2.1696,2.1687,0.0,0.0,0.0,0.0,0.0,0.0,0.0,1.0221,1.0321,1.0656,1.0608,1.0433,1.0156,0.9902,0.9753,0.0,0.0,0.0,0.0,0.0,0.0,0.0,0.0,0.0,1.2916,1.3033,0.0,0.0,0.0,0.0,0.0,0.0,0.0,0.0,0.0,1.3491,1.329,1.329,1.3214,1.3109,1.3055,1.3045,0.0,0.0,0.0,0.0,0.0,1.3741,1.4359,1.6151,1.7691,1.9198,2.1317,2.2856,2.3991,2.4668,2.504,2.5314,2.5764,2.5895,2.5895,2.5895,2.4989,2.3777,2.2542,0.0,0.0,0.0,1.6242,1.5911,1.485,1.546,0.0,1.7287,1.7774,1.8464,1.9661,2.0851,0.0,2.1791,0.0,0.0,0.0,0.0,0.0,0.0,0.0,2.3721,2.3721,2.4051,2.4202,2.4202,2.3749,2.3499,2.3574,2.2749,2.2291,2.2318,2.1897,2.1696,2.1696,2.1696,2.1696,2.1696,2.1696,0.0,2.1696,2.1696,2.1696,2.1696,2.1696,2.1696,2.1696,2.1696,2.1824,2.197,0.0,0.0,0.0,0.0,0.0,0.0,0.0,1.0586,1.0691,1.1064,1.1211,1.1135,1.0834,1.024,0.9902,0.0,0.0,0.0,0.0,0.0,0.0,0.0,0.0,0.0,0.0,0.0,0.0,0.0,0.0,0.0,0.0,0.0,0.0,0.0,0.0,0.0,0.0,1.3242,1.3142,0.0,0.0,0.0,0.0,0.0,0.0,0.0,0.0,0.0,1.4013,1.5302,1.6669,1.8323,2.1092,2.2834,2.3952,2.4566,2.4964,2.5355,2.5764,2.5937,2.5937,2.5895,2.4767,2.3268,2.1898,2.0281,0.0,1.59,1.5871,1.5963,1.4824,1.5627,1.6558,0.0,1.738,1.8013,1.9245,2.0439,2.1399,0.0,0.0,0.0,0.0,0.0,0.0,0.0,0.0,0.0,2.4202,2.4202,2.4202,2.4202,2.3749,2.3703,2.4073,2.2978,2.2538,2.2767,2.2126,2.1769,2.1696,2.1696,2.1696,2.1696,2.1696,0.0,0.0,2.1696,2.1696,2.1696,2.1696,2.1696,2.1696,2.1696,2.1943,2.2236,0.0,0.0,0.0,0.0,0.0,0.0,0.0,1.0503,1.0751,1.1681,1.1422,1.1286,1.1713,1.0976,1.0444,0.0,0.0,0.0,0.0,0.0,0.0,0.0,0.0,0.0,0.0,0.0,0.0,0.0,0.0,0.0,0.0,0.0,0.0,0.0,0.0,0.0,0.0,0.0,0.0,0.0,0.0,0.0,0.0,0.0,0.0,0.0,0.0,0.0,0.0,0.0,0.0,1.6563,1.8075,2.078,2.3349,2.3213,0.0,0.0,2.5806,2.6021,2.6115,2.5948,2.4594,2.3025,2.1857,0.0,1.7471,1.5743,1.5534,1.5401,1.4498,1.5035,1.5852,1.6539,1.6842,1.7556,1.9242,2.0571,2.159,2.2126,0.0,0.0,0.0,0.0,0.0,0.0,0.0,0.0,2.4202,2.4202,2.4202,2.4202,2.3749,2.3508,2.3544,2.3087,2.2675,2.2336,2.2263,2.2034,2.1696,2.1696,2.1696,2.1696,2.1696,0.0,0.0,2.1696,2.1696,2.1696,2.1696,2.1696,2.1696,2.1696,2.1943,2.2272,0.0,0.0,0.0,0.0,0.0,0.0,1.0851,1.0977,1.1281,1.2049,1.2116,1.2068,1.2143,1.1373,1.0931,1.1063,0.0,0.0,0.0,0.0,0.0,0.0,0.0,0.0,0.0,0.0,0.0,0.0,0.0,0.0,0.0,0.0,0.0,0.0,0.0,0.0,0.0,0.0,0.0,0.0,0.0,0.0,0.0,0.0,0.0,0.0,0.0,0.0,0.0,0.0,0.0,0.0,1.5073,1.7027,0.0,0.0,2.2354,2.3579,2.4587,2.5416,2.5913,2.5576,2.3801,2.1878,2.0831,0.0,1.6476,1.5378,1.5401,1.544,1.495,1.5308,1.5843,1.6351,1.6404,0.0,1.8408,1.9383,2.0388,0.0,0.0,0.0,0.0,0.0,0.0,0.0,0.0,0.0,2.4202,2.4202,2.4202,2.4202,2.3749,2.3657,2.3904,2.3224,2.2821,2.2657,2.24,2.2071,2.1696,2.1696,2.1696,2.1696,2.1696,0.0,0.0,2.2044,2.2199,2.24,2.2144,2.2199,2.2391,2.2135,2.2455,2.2977,0.0,0.0,0.0,0.0,0.0,1.0465,1.1325,1.1503,1.1748,1.2337,1.2578,1.2603,1.2382,1.1926,1.1681,1.1785,1.1718,0.0,0.0,0.0,0.0,0.0,0.0,0.0,0.0,0.0,1.3597,1.3597,0.0,0.0,0.0,0.0,0.0,0.0,0.0,0.0,0.0,0.0,0.0,0.0,0.0,0.0,0.0,0.0,0.0,0.0,0.0,0.0,0.0,0.0,0.0,0.0,1.3217,1.4286,1.6141,1.8417,2.0376,2.2058,2.3198,2.4562,2.5557,2.5095,2.314,2.1037,0.0,0.0,1.5883,1.5136,1.5264,1.5411,1.5231,1.554,1.591,1.6254,1.6333,1.6693,1.7784,1.8642,1.9617,0.0,0.0,0.0,0.0,0.0,0.0,0.0,0.0,0.0,0.0,2.4202,2.4202,2.4202,2.3749,2.3739,2.4202,2.3354,2.2904,2.2904,2.2474,2.2071,2.1696,2.1696,2.1696,2.1696,0.0,0.0,0.0,2.2419,2.2638,2.2876,2.2584,2.2648,2.2876,2.2574,2.2904,2.3453,0.0,0.0,0.0,0.0,0.0,0.0,1.1956,1.1985,1.2087,1.2628,1.27,1.2652,1.2505,1.2725,1.2822,1.2691,1.1414,0.0,0.0,0.0,0.0,0.0,0.0,0.0,0.0,0.0,1.3597,1.3597,1.3597,1.3597,0.0,0.0,0.0,0.0,0.0,0.0,0.0,0.0,0.0,0.0,0.0,0.0,0.0,0.0,0.0,0.0,0.0,0.0,0.0,0.0,0.0,0.0,0.0,1.3184,1.3831,1.5324,1.8533,2.165,2.179,2.3431,2.5016,2.4605,2.2856,2.0841,0.0,0.0,1.5792,1.5136,1.51,1.5206,1.5215,1.554,1.5925,1.6321,1.6664,1.7119,1.773,1.8843,0.0,0.0,0.0,0.0,0.0,0.0,0.0,0.0,0.0,0.0,0.0,2.4202,2.4202,2.4202,2.3749,2.3739,2.4202,2.3354,2.2904,2.2904,2.2474,2.2071,2.1696,2.1696,2.1696,0.0,0.0,0.0,0.0,2.273,2.2904,2.2904,2.2904,2.2904,2.2904,2.2904,2.3151,2.3499,0.0,0.0,0.0,0.0,0.0,0.0,0.0,1.2055,1.2186,1.2643,1.27,1.2652,1.2505,1.233,1.2344,1.2681,1.2382,0.0,0.0,0.0,0.0,0.0,0.0,0.0,0.0,0.0,1.3563,1.3467,1.329,1.3098,1.2924,1.3025,1.3001,0.0,0.0,0.0,0.0,0.0,0.0,0.0,0.0,0.0,0.0,0.0,0.0,0.0,0.0,0.0,0.0,0.0,0.0,0.0,0.0,0.0,0.0,1.2822,1.5321,0.0,1.8492,1.9946,2.1295,2.1114,2.0041,1.8714,1.7553,1.6081,1.4856,1.4471,1.4625,1.4923,1.5172,1.554,1.5875,1.6156,1.6351,1.6695,0.0,0.0,0.0,0.0,0.0,0.0,0.0,0.0,0.0,0.0,0.0,0.0,0.0,2.4202,2.4202,2.4202,2.3749,2.3739,2.4202,2.3354,2.2904,2.2904,2.2474,2.2071,2.1696,2.1696,0.0,0.0,0.0,0.0,0.0,2.3142,2.3519,2.3749,2.3416,2.3529,2.3739,2.3416,2.3611,2.396,0.0,0.0,0.0,0.0,0.0,0.0,0.0,1.239,1.2487,1.2745,1.2783,1.2725,1.2603,1.2397,1.2397,1.2681,1.2832,0.0,0.0,0.0,0.0,0.0,0.0,0.0,1.3386,1.3515,1.3467,1.316,1.2967,1.2749,1.2608,1.2647,1.2696,1.2754,1.3021,0.0,0.0,0.0,0.0,0.0,0.0,0.0,1.2101,0.0,0.0,0.0,0.0,0.0,0.0,0.0,0.0,0.0,0.0,0.0,0.0,0.0,1.314,0.0,1.6014,1.7586,1.8971,1.8928,1.8268,0.0,0.0,1.5291,1.4648,1.4195,1.4512,1.4949,1.5172,1.554,1.5875,1.6155,1.6437,1.6772,0.0,0.0,0.0,0.0,0.0,0.0,0.0,0.0,0.0,0.0,0.0,0.0,0.0,2.3874,2.3923,2.3923,2.3627,2.3618,2.3923,2.3125,2.2675,2.2666,2.2254,2.1925,2.1696,2.1696,0.0,0.0,0.0,0.0,0.0,2.3334,2.3785,2.4174,2.3868,2.3932,2.4165,2.3868,2.3932,2.4202,0.0,0.0,0.0,0.0,0.0,0.0,0.0,1.2905,1.2905,1.2905,1.2905,1.2856,1.2735,1.2832,1.2856,1.2735,0.0,0.0,0.0,0.0,0.0,0.0,0.0,0.0,1.3064,1.3386,1.329,1.2764,1.2672,1.2603,1.2548,1.2311,1.2469,1.2983,1.2783,1.27,1.2676,1.2554,1.2505,1.248,1.2348,1.22,0.0,0.0,0.0,0.0,0.0,0.0,0.0,0.0,0.0,0.0,0.0,0.0,0.0,0.0,0.0,0.0,0.0,0.0,0.0,0.0,0.0,0.0,1.5313,1.5079,0.0,1.4191,1.4658,1.5172,1.5172,1.5514,1.5925,1.633,1.6822,1.7177,0.0,0.0,0.0,0.0,0.0,0.0,0.0,0.0,0.0,0.0,0.0,0.0,0.0,2.3365,2.3453,2.3453,2.3425,2.3425,2.3453,2.2648,2.2254,2.2318,2.1879,2.1696,2.1696,2.1696,0.0,0.0,0.0,0.0,0.0,2.3343,2.3785,2.4202,2.4202,2.4202,2.4202,2.4202,2.4202,2.4202,0.0,0.0,0.0,0.0,0.0,0.0,0.0,0.0,0.0,0.0,1.2905,1.2881,1.2856,1.2881,1.2881,0.0,0.0,0.0,0.0,0.0,0.0,0.0,0.0,0.0,1.3467,1.3266,1.2943,1.2487,1.2704,1.2619,1.2233,1.2756,1.2944,1.2763,1.282,1.2735,1.2529,1.2505,1.2431,1.2348,1.22,1.2126,0.0,0.0,0.0,0.0,1.2603,1.2652,0.0,0.0,0.0,0.0,0.0,0.0,0.0,0.0,1.222,0.0,0.0,0.0,0.0,0.0,0.0,1.5758,0.0,1.4795,1.4467,1.3774,1.4264,1.4812,1.4812,1.5352,1.5917,1.6276,1.656,1.6902,0.0,0.0,0.0,0.0,0.0,0.0,0.0,0.0,0.0,0.0,0.0,0.0,0.0,2.3003,2.305,2.305,2.273,2.2721,2.3041,2.2236,2.198,2.2318,2.1879,2.1696,2.1696,2.1696,0.0,0.0,0.0,0.0,2.3361,2.3453,2.3785,2.4202,2.4202,2.4202,2.4202,2.4202,2.4202,2.4202,0.0,0.0,0.0,0.0,0.0,0.0,0.0,0.0,0.0,0.0,0.0,1.2905,1.2905,1.2905,0.0,0.0,0.0,0.0,0.0,0.0,0.0,0.0,0.0,1.317,1.3094,1.2783,1.2457,1.2064,1.2202,1.2158,1.2005,1.2397,1.26,1.2692,1.2649,1.2529,1.2406,1.2348,1.2298,1.2283,1.215,0.0,0.0,0.0,0.0,0.0,1.27,1.2749,0.0,1.2783,1.2749,1.2652,0.0,0.0,0.0,0.0,1.2309,0.0,0.0,0.0,1.4399,1.5177,1.5505,1.542,1.4696,1.4517,1.4321,1.3631,1.4136,1.4684,1.4684,1.53,1.5917,1.624,1.6564,0.0,0.0,0.0,0.0,0.0,0.0,0.0,0.0,0.0,0.0,0.0,0.0,0.0,0.0,2.2434,2.2527,2.262,2.2227,2.2208,2.2611,2.2007,2.1797,2.2007,2.1797,2.1696,2.1696,2.1696,2.1806,0.0,0.0,0.0,2.295,2.3142,2.3462,2.3895,2.4128,2.4202,2.4202,2.4202,2.4202,2.4202,0.0,0.0,0.0,0.0,0.0,0.0,0.0,0.0,0.0,0.0,0.0,0.0,0.0,0.0,0.0,0.0,0.0,0.0,0.0,0.0,0.0,0.0,1.2817,1.2793,1.2446,1.2264,1.1993,1.1669,1.1743,1.1881,1.2074,1.2023,1.2245,1.2627,1.2348,1.2224,1.2249,1.2175,1.2175,1.2249,1.215,0.0,0.0,0.0,0.0,0.0,0.0,0.0,0.0,1.2725,1.2783,1.2783,1.2431,0.0,0.0,0.0,0.0,0.0,1.4069,1.4686,1.5077,1.5114,1.5263,1.5197,1.445,1.4364,1.4291,1.3718,1.4221,1.4769,1.4769,1.5334,0.0,0.0,0.0,0.0,0.0,0.0,0.0,0.0,0.0,0.0,0.0,0.0,0.0,0.0,0.0,0.0,0.0,2.1787,2.2016,2.219,2.187,2.1807,2.219,2.1861,2.1696,2.1696,2.1696,2.1696,2.1696,2.1696,2.1723,0.0,0.0,0.0,2.24,2.2693,2.3078,2.3526,2.3923,2.4146,2.4192,2.4128,2.411,2.411,0.0,0.0,0.0,0.0,0.0,0.0,0.0,0.0,0.0,0.0,0.0,0.0,0.0,0.0,0.0,0.0,0.0,0.0,0.0,0.0,0.0,1.22,1.2446,1.2461,1.2255,1.2042,1.1843,1.161,1.2545,1.2986,1.2905,1.3236,1.303,1.2348,1.1952,1.1927,1.215,1.2224,1.2224,1.2126,1.2101,0.0,0.0,0.0,0.0,0.0,0.0,0.0,0.0,1.2832,1.2725,1.2554,1.248,0.0,0.0,0.0,0.0,0.0,1.3455,1.4619,1.5899,1.6517,1.5521,1.4526,1.4925,1.4668,1.4257,1.4039,1.4607,1.5129,0.0,1.5497,1.5917,0.0,0.0,0.0,0.0,0.0,0.0,0.0,0.0,0.0,0.0,0.0,0.0,0.0,0.0,0.0,0.0,0.0,2.1572,2.1778,2.1553,2.1553,2.1778,2.1723,2.1696,2.1696,2.1696,2.1696,2.1696,2.1696,2.1879,0.0,0.0,2.2117,2.2785,2.2492,2.2821,2.3499,2.3563,2.3849,2.4156,2.3767,2.359,2.359,0.0,0.0,0.0,0.0,0.0,0.0,0.0,0.0,0.0,0.0,0.0,0.0,0.0,0.0,0.0,0.0,0.0,0.0,0.0,0.0,1.2627,1.2224,1.2332,1.2298,1.2141,1.1769,1.1775,1.2175,1.2286,1.2422,1.2556,1.2552,1.2313,1.1877,1.1977,1.2051,1.2101,1.2249,1.2249,1.22,0.0,0.0,0.0,0.0,0.0,0.0,0.0,0.0,0.0,0.0,1.2603,1.2578,1.2348,0.0,0.0,0.0,0.0,0.0,1.3769,1.4533,1.5423,1.6541,1.6128,1.5333,1.5149,1.4862,1.4585,1.4442,1.4838,1.5274,0.0,0.0,1.6661,1.7424,0.0,0.0,0.0,0.0,0.0,0.0,0.0,0.0,0.0,0.0,0.0,0.0,0.0,0.0,0.0,0.0,2.1437,2.1517,2.1571,2.1607,2.1696,2.1696,2.1696,2.1696,2.1696,2.1696,2.1696,2.1696,2.1787,2.1952,0.0,2.1906,2.2254,2.2272,2.2501,2.2858,2.3087,2.3288,2.3483,2.3251,2.3316,2.3499,0.0,0.0,0.0,0.0,0.0,0.0,0.0,0.0,0.0,0.0,0.0,0.0,0.0,0.0,0.0,0.0,0.0,0.0,0.0,1.2832,1.2652,1.2224,1.22,1.2126,1.1952,1.1707,1.1857,1.2422,1.1997,1.1869,1.2,1.1653,1.1446,1.1427,1.1694,1.1868,1.2002,1.2076,1.2175,1.2308,0.0,0.0,0.0,0.0,0.0,0.0,0.0,0.0,0.0,0.0,0.0,0.0,0.0,0.0,0.0,1.2126,1.2497,1.3061,1.3792,1.426,1.478,1.5798,1.5996,1.5826,1.5368,1.5251,1.5233,1.5231,1.5489,0.0,0.0,1.6533,0.0,0.0,0.0,0.0,0.0,0.0,0.0,0.0,0.0,0.0,0.0,0.0,0.0,0.0,0.0,0.0,0.0,0.0,2.1446,2.1482,2.1562,2.1651,2.1696,2.1696,2.1696,2.1696,2.1696,2.1696,2.1696,2.1696,2.1696,2.1696,2.1696,2.1696,2.1714,2.2016,2.2245,2.2309,2.2638,2.2757,2.2757,2.2757,2.295,2.3224,0.0,0.0,0.0,0.0,0.0,0.0,0.0,0.0,0.0,0.0,0.0,0.0,0.0,0.0,0.0,0.0,0.0,0.0,0.0,1.2652,1.248,1.1952,1.1927,1.1803,1.1553,1.2126,1.2144,1.1588,1.2289,1.2312,1.1718,1.1321,1.1132,1.1099,1.0582,1.0863,1.1728,1.1603,1.1852,1.2283,1.2175,0.0,0.0,0.0,0.0,0.0,0.0,0.0,0.0,0.0,0.0,0.0,0.0,0.0,1.2431,1.2175,1.2218,1.2429,1.2738,1.369,1.4502,1.4183,1.4383,1.4906,1.5889,1.6149,1.6289,1.6684,1.7055,1.7209,0.0,1.6846,0.0,0.0,0.0,0.0,0.0,0.0,0.0,0.0,0.0,0.0,0.0,0.0,0.0,0.0,0.0,0.0,0.0,0.0,0.0,2.1651,2.1526,2.1526,2.1696,2.1696,2.1696,2.1696,2.1696,2.1696,2.1696,2.1696,2.1696,2.1696,2.1696,2.1696,2.1696,2.1723,2.1952,2.2282,2.2309,2.2327,2.2327,2.2327,2.2346,2.2419,0.0,0.0,0.0,0.0,0.0,0.0,0.0,0.0,0.0,0.0,0.0,0.0,0.0,0.0,0.0,0.0,0.0,0.0,0.0,1.2808,1.27,1.2406,1.2249,1.2026,1.1744,1.1921,1.2037,1.2135,1.1776,1.1183,1.0402,1.0394,1.0574,1.0871,1.0964,1.1318,1.1828,1.1952,1.2101,1.2298,1.2348,1.2357,0.0,0.0,0.0,0.0,0.0,0.0,0.0,0.0,1.2308,1.2382,1.2323,1.2323,1.2372,1.2348,1.2431,1.2611,1.2893,1.3792,1.4683,1.4695,1.4933,1.5424,1.6251,1.6571,1.6765,1.7078,1.7514,1.7775,0.0,0.0,0.0,0.0,0.0,0.0,0.0,0.0,0.0,0.0,0.0,0.0,0.0,0.0,0.0,0.0,0.0,0.0,0.0,0.0,0.0,2.1275,2.1338,2.1482,2.1696,2.1696,2.1696,2.1696,2.1696,2.1696,2.1696,2.1696,2.1696,2.1696,2.1696,2.1696,2.1696,2.1696,2.1778,2.1916,2.1916,2.1916,2.1916,2.1916,2.2071,2.23,0.0,0.0,0.0,0.0,0.0,0.0,0.0,0.0,0.0,0.0,0.0,0.0,0.0,0.0,0.0,0.0,0.0,0.0,1.2905,1.2929,1.2856,1.2578,1.2357,1.2101,1.1852,1.1519,1.1515,1.1852,1.0936,1.0178,0.9614,0.9788,1.0079,1.0437,1.0786,1.1192,1.1603,1.1828,1.2051,1.2249,1.2348,1.2372,0.0,0.0,0.0,0.0,0.0,0.0,0.0,0.0,1.2224,1.2357,1.2357,1.2431,1.2505,1.2505,1.2639,1.2857,1.296,1.3854,1.4796,1.4907,1.5309,1.6002,1.7031,1.7234,1.7388,1.8031,1.8184,1.8245,1.8374,0.0,0.0,0.0,0.0,0.0,0.0,0.0,0.0,0.0,0.0,0.0,0.0,0.0,0.0,0.0,0.0,0.0,0.0,0.0,0.0,0.0,2.1293,2.1482,2.1696,2.1696,2.1696,2.1696,2.1696,2.1696,2.1696,2.1696,2.1696,2.1696,2.1696,2.1696,2.1696,2.1696,2.1696,2.1696,2.1696,2.1696,2.1696,2.1696,2.1861,2.2117,0.0,0.0,0.0,0.0,0.0,0.0,0.0,0.0,0.0,0.0,0.0,0.0,0.0,0.0,0.0,0.0,0.0,0.0,1.2905,1.3027,1.2856,1.2323,1.215,1.1977,1.1703,1.0956,1.0531,1.0403,0.9847,0.9588,0.9588,0.9588,0.9673,0.9799,0.9799,1.0205,1.0896,1.1049,1.1477,1.2076,1.2101,1.2101,1.2101,0.0,0.0,0.0,0.0,0.0,0.0,0.0,1.2283,1.2505,1.2505,1.2676,1.2832,1.2578,1.2799,1.3052,1.2776,1.3825,1.4905,1.443,1.5176,1.6485,1.8304,1.8223,1.8243,1.9782,1.929,1.8708,1.9144,1.8862,0.0,0.0,0.0,0.0,0.0,0.0,0.0,0.0,0.0,0.0,0.0,0.0,0.0,0.0,0.0,0.0,0.0,0.0,0.0,0.0,2.1392,2.1472,2.1696,2.1687,2.1687,2.1696,2.1696,2.1696,2.1696,2.1696,2.1696,2.1696,2.1696,2.1696,2.1696,2.1696,2.1696,2.1696,2.1696,2.1696,2.1696,2.1696,2.1696,2.1751,0.0,0.0,0.0,0.0,0.0,0.0,0.0,0.0,0.0,0.0,0.0,0.0,0.0,0.0,0.0,0.0,0.0,0.0,1.2627,1.2298,1.2051,1.1877,1.1578,1.1326,1.115,1.0403,0.9966,0.9847,0.9595,0.9465,0.9465,0.9465,0.9629,0.9947,0.9932,1.0293,1.0896,1.0947,1.1124,1.1444,1.191,1.2154,1.2284,0.0,0.0,0.0,0.0,0.0,0.0,0.0,0.0,0.0,1.248,1.2554,1.266,1.2871,1.3205,1.3442,1.3032,1.4223,1.5369,1.4633,1.5765,1.7425,1.8751,1.808,1.7643,1.9252,1.9066,1.8708,1.9144,0.0,0.0,0.0,0.0,0.0,0.0,0.0,0.0,0.0,0.0,0.0,0.0,0.0,0.0,0.0,0.0,0.0,0.0,0.0,0.0,0.0,2.0713,2.0882,2.1687,2.1271,2.1271,2.1696,2.1696,2.1696,2.1696,2.1696,2.1696,2.1696,2.1696,2.1696,2.1696,2.1696,2.1696,2.1696,2.1696,2.1696,2.1696,2.1696,2.1696,2.1705,0.0,0.0,0.0,0.0,0.0,0.0,0.0,0.0,0.0,0.0,1.2431,1.2505,0.0,0.0,0.0,0.0,0.0,0.0,0.0,1.1877,1.1569,1.1293,1.1124,1.0812,1.0395,0.9991,0.9725,0.9588,0.9413,0.9335,0.9387,0.9542,0.9667,0.9766,0.9956,1.0202,1.0472,1.0582,1.0928,1.1456,1.1965,1.2422,1.2832,0.0,0.0,0.0,0.0,0.0,0.0,0.0,0.0,0.0,1.2849,1.2931,1.3087,1.3266,1.3535,1.3727,1.3691,1.4632,1.5534,1.5278,1.6272,1.7621,1.8665,1.8767,0.0,0.0,1.9609,1.929,1.9591,0.0,0.0,0.0,0.0,0.0,0.0,0.0,0.0,0.0,0.0,0.0,0.0,0.0,0.0,0.0,0.0,0.0,0.0,0.0,0.0,0.0,2.0263,2.051,2.1316,2.0983,2.1065,2.1562,2.1651,2.1696,2.1696,2.1696,2.1696,2.1696,2.1696,2.1696,2.1696,2.1696,2.1696,2.1696,2.1696,2.1696,2.1696,2.1696,2.1696,2.1696,0.0,0.0,0.0,0.0,0.0,0.0,0.0,0.0,0.0,0.0,1.2529,1.2578,0.0,0.0,0.0,0.0,0.0,0.0,0.0,1.1628,1.1267,1.06,1.071,1.0429,0.964,0.9744,0.9744,0.9588,0.9335,0.929,0.9394,0.9707,0.9707,0.947,0.9863,0.996,0.9859,1.0051,1.0733,1.1746,1.2079,1.2681,1.3377,1.3633,0.0,0.0,0.0,0.0,0.0,0.0,0.0,0.0,1.3474,1.3583,1.3873,1.375,1.3812,1.4039,1.4571,1.503,1.551,1.6166,1.6855,1.7609,1.8404,2.0051,2.1319,2.0944,0.0,2.0164,0.0,0.0,0.0,0.0,0.0,0.0,0.0,0.0,0.0,0.0,0.0,0.0,0.0,0.0,0.0,0.0,0.0,0.0,0.0,0.0,0.0,0.0,1.9913,2.0219,2.0725,2.0681,2.0888,0.0,2.1588,2.1696,2.1696,2.1696,2.1696,2.1696,2.1696,2.1696,2.1696,2.1696,2.1696,2.1696,2.1696,2.1696,2.1696,2.1696,2.1696,2.1696,0.0,0.0,0.0,0.0,0.0,0.0,0.0,0.0,0.0,0.0,0.0,0.0,0.0,0.0,0.0,0.0,0.0,0.0,0.0,1.1074,1.0522,1.036,1.0154,0.994,0.9762,0.9784,0.9681,0.9439,0.9387,0.9361,0.9387,0.9353,0.9507,0.9778,0.9519,0.9701,1.0163,0.9862,0.9925,1.0334,1.1161,1.1794,1.2271,1.3098,1.3635,0.0,0.0,0.0,0.0,0.0,0.0,0.0,1.3704,1.3679,1.3758,1.383,1.4363,1.4894,1.4854,1.5311,1.5914,1.6467,1.808,1.9639,1.9966,2.081,2.1221,2.0273,2.0342,0.0,0.0,0.0,0.0,0.0,0.0,0.0,0.0,0.0,0.0,0.0,0.0,0.0,0.0,0.0,0.0,0.0,0.0,0.0,0.0,0.0,0.0,1.9759,1.9244,1.9363,2.0319,1.9968,2.0164,0.0,2.1283,2.1571,2.1696,2.1696,2.1696,2.1696,2.1696,2.1696,2.1696,2.1696,2.1696,2.1696,2.1696,2.1696,2.1696,2.1696,2.1696,2.1696,0.0,0.0,0.0,0.0,0.0,0.0,0.0,0.0,0.0,0.0,0.0,0.0,0.0,0.0,0.0,0.0,0.0,0.0,0.0,0.0,1.0162,1.0162,0.987,0.9699,0.9718,0.9699,0.9629,0.9484,0.9439,0.9439,0.9491,0.9597,0.9649,0.9664,0.9516,0.9603,0.9851,0.9537,0.9743,1.036,1.1114,1.1797,1.2352,1.3109,1.3601,1.3881,1.4052,0.0,0.0,0.0,0.0,0.0,0.0,0.0,1.4157,1.41,1.435,1.4745,1.5315,1.5501,1.5851,1.7087,0.0,2.0713,2.0296,2.1043,2.1469,2.0232,0.0,0.0,0.0,0.0,0.0,0.0,0.0,0.0,0.0,0.0,0.0,0.0,0.0,0.0,0.0,0.0,0.0,0.0,0.0,0.0,0.0,1.8576,1.8854,1.9129,1.8896,1.9024,1.9569,1.9368,1.9553,2.0189,2.0629,2.1045,2.1403,2.1595,2.1696,2.1696,2.1696,2.1696,2.1696,2.1696,2.1696,2.1696,2.1696,2.1696,2.1696,2.1696,2.1696,2.1696,0.0,0.0,0.0,0.0,0.0,0.0,0.0,0.0,0.0,0.0,0.0,0.0,0.0,0.0,0.0,0.0,0.0,0.0,0.0,0.0,0.0,0.9947,0.9725,0.9588,0.9562,0.9562,0.9562,0.9562,0.9542,0.9571,0.9702,0.9919,0.9823,0.9506,0.9726,0.9747,0.9604,0.9505,0.9943,1.081,1.1307,1.193,1.2601,1.3005,1.3268,1.345,1.367,1.3821,1.4001,1.438,0.0,0.0,0.0,0.0,1.4615,1.4497,1.4338,1.4493,1.567,1.5689,1.5766,1.7542,1.9531,0.0,1.9987,2.0737,2.1293,2.0136,0.0,0.0,0.0,0.0,0.0,0.0,0.0,0.0,0.0,0.0,0.0,0.0,0.0,0.0,0.0,0.0,0.0,0.0,0.0,0.0,1.8,1.8463,1.8652,1.8411,1.8626,1.8759,1.8791,1.887,1.9103,1.9408,1.9954,2.0492,2.1016,2.1321,2.1522,2.1586,2.1586,2.1586,2.1586,2.1659,2.165,2.1595,2.1668,2.165,2.1595,2.1668,2.1696,2.1696,0.0,0.0,0.0,0.0,0.0,0.0,0.0,0.0,0.0,0.0,1.2258,1.2076,0.0,0.0,0.0,0.0,0.0,0.0,0.0,0.0,0.0,0.9666,0.9614,0.9536,0.9439,0.9439,0.9439,0.9439,0.9819,1.0011,1.0038,0.9844,0.9789,0.9843,1.0158,1.0365,1.0427,1.0427,1.0513,1.0664,1.1026,1.1301,1.1517,1.1767,1.2058,1.2336,1.2605,1.2812,1.3047,1.3502,1.3923,0.0,0.0,0.0,0.0,1.4946,1.5129,1.5282,1.552,1.5776,1.6222,0.0,1.8366,1.9341,0.0,0.0,1.9564,0.0,0.0,0.0,0.0,0.0,0.0,0.0,0.0,0.0,0.0,0.0,0.0,0.0,0.0,0.0,0.0,0.0,0.0,0.0,0.0,0.0,1.8,1.8083,1.8213,1.8402,1.8213,1.8238,1.8472,1.8599,1.8797,1.9075,1.9829,2.0346,2.0594,2.0659,2.0869,2.119,2.119,2.119,2.1218,2.154,2.1476,2.1227,2.1549,2.1511,2.1236,2.1559,2.1696,2.1696,0.0,0.0,0.0,0.0,0.0,0.0,0.0,0.0,0.0,0.0,0.0,1.186,0.0,0.0,0.0,0.0,0.0,0.0,0.0,0.0,0.0,0.9484,0.9562,0.9536,0.9413,0.9484,0.9597,0.9785,0.9923,1.0117,1.0375,1.0365,1.0329,1.0298,1.0358,1.0473,1.0587,1.053,1.053,1.0616,1.0975,1.113,1.1226,1.1497,1.1747,1.1965,1.2182,1.239,1.2597,1.3177,1.339,1.345,1.367,0.0,0.0,0.0,1.411,1.4189,1.4879,1.5551,1.6301,0.0,1.7912,1.855,1.8894,0.0,1.9399,0.0,0.0,0.0,0.0,0.0,0.0,0.0,0.0,0.0,0.0,0.0,0.0,0.0,0.0,0.0,0.0,0.0,0.0,0.0,0.0,1.8,1.8,1.8241,1.8331,1.8201,1.8322,1.8322,1.8201,1.8235,1.8452,1.8845,1.9431,1.9859,2.0149,2.0149,2.036,2.0778,2.0778,2.0778,2.0796,2.0936,2.09,2.0814,2.1227,2.1273,2.1163,2.1531,2.1696,2.1696,0.0,0.0,0.0,0.0,0.0,0.0,0.0,0.0,0.0,0.0,0.0,0.0,0.0,0.0,0.0,0.0,0.0,0.0,0.0,0.0,0.0,0.0,0.9616,0.9686,0.9588,0.9713,0.9953,1.0221,1.0198,1.0392,1.0719,1.0958,1.101,1.0865,1.0748,1.0704,1.0719,1.0719,1.0748,1.0887,1.1129,1.1224,1.1261,1.1654,1.1842,1.1975,1.2318,1.2358,1.2367,0.0,1.2932,0.0,0.0,0.0,0.0,0.0,0.0,1.3385,0.0,0.0,1.5838,1.691,1.7369,1.7752,0.0,0.0,0.0,0.0,0.0,0.0,0.0,0.0,0.0,0.0,0.0,0.0,0.0,0.0,0.0,0.0,0.0,0.0,0.0,0.0,0.0,0.0,0.0,1.7914,1.7726,1.8297,1.8407,1.7894,1.8359,1.8359,1.7894,1.7854,1.8146,1.87,1.8984,1.9371,1.9729,1.9729,1.9893,2.0218,2.0278,2.0365,2.0374,2.0475,2.0457,2.042,2.0915,2.1044,2.1016,2.1495,2.1696,2.1696,0.0,0.0,0.0,0.0,0.0,0.0,0.0,0.0,0.0,0.0,0.0,0.0,1.0417,1.0699,1.0666,1.0099,0.9936,0.0,0.0,0.0,0.0,0.0,0.0,0.0,1.0048,1.027,1.0436,1.0565,1.0902,1.1063,1.1085,1.1415,1.1562,1.1547,1.154,1.1364,1.11,1.1415,1.154,1.1547,1.1562,1.1569,1.1637,1.2089,1.2273,1.2382,1.3078,1.2887,0.0,0.0,0.0,0.0,1.2367,1.2832,1.3365,0.0,0.0,0.0,1.5176,1.4859,0.0,1.5982,1.6386,1.6688,0.0,0.0,0.0,0.0,0.0,0.0,0.0,0.0,0.0,0.0,0.0,0.0,0.0,0.0,0.0,0.0,0.0,0.0,0.0,0.0,0.0,0.0,0.0,1.7684,1.6974,1.7891,1.8148,1.7548,1.8091,1.8139,1.754,1.754,1.7917,1.87,1.8718,1.8958,1.9329,1.9329,1.9347,1.9384,1.9787,1.9921,1.9948,2.0323,2.0301,1.9994,2.0805,2.0879,2.0649,2.1403,2.1696,2.1696,0.0,0.0,0.0,0.0,0.0,0.0,0.0,0.0,0.0,0.0,0.0,0.0,0.0,1.0984,1.0899,1.0594,1.0431,0.0,0.0,0.0,0.0,0.0,0.0,0.0,1.0306,1.0443,1.0668,1.0931,1.1048,1.121,1.1423,1.154,1.1591,1.1591,1.1591,1.1525,1.1423,1.1547,1.1591,1.1613,1.178,1.1867,1.1904,1.2292,1.2417,1.2465,0.0,0.0,0.0,0.0,0.0,0.0,1.2189,1.225,1.2456,1.2872,1.3092,1.3461,1.4742,0.0,0.0,1.5601,1.5748,1.591,1.7064,0.0,0.0,0.0,0.0,0.0,0.0,0.0,0.0,0.0,0.0,0.0,0.0,0.0,0.0,0.0,0.0,0.0,0.0,0.0,0.0,0.0,0.0,0.0,1.6961,1.7747,1.7926,1.7327,1.7644,1.7599,1.7115,1.751,1.7896,1.831,1.8726,1.9042,1.9301,1.9301,1.9301,1.9311,1.9457,1.9522,1.954,1.9677,1.965,1.9577,2.0136,2.0378,2.0585,2.1126,2.1458,2.1696,0.0,0.0,0.0,0.0,0.0,0.0,0.0,0.0,0.0,1.1075,0.0,0.0,0.0,0.0,1.1063,1.0879,1.0711,1.068,1.0859,1.0787,0.0,0.0,0.0,0.0,1.0639,1.0828,1.1048,1.1269,1.1269,1.1379,1.1591,1.1591,1.1591,1.1591,1.1591,1.1591,1.1599,1.1835,1.195,1.1972,1.226,1.2354,1.2424,1.2732,1.2824,0.0,0.0,0.0,0.0,0.0,0.0,0.0,1.2269,1.2073,1.2103,1.3122,1.3194,1.3175,1.4263,0.0,0.0,0.0,0.0,1.5357,1.6111,0.0,0.0,0.0,0.0,0.0,0.0,0.0,0.0,0.0,0.0,0.0,0.0,0.0,0.0,0.0,0.0,0.0,0.0,0.0,0.0,0.0,0.0,0.0,1.665,1.7383,1.7625,1.7209,1.7154,1.709,1.6985,1.7388,1.781,1.8214,1.8734,1.9112,1.9301,1.9301,1.9301,1.9301,1.9301,1.9301,1.9301,1.9301,1.9301,1.9356,1.9875,2.025,2.0585,2.1117,2.1449,2.1696,0.0,0.0,0.0,0.0,0.0,0.0,0.0,0.0,1.0403,1.0594,0.0,0.0,0.0,0.0,0.0,1.0838,1.0695,1.0616,1.0616,1.0616,1.0616,1.0616,1.0953,1.1122,1.1122,1.143,1.1591,1.1591,1.1591,1.1591,1.1591,1.1591,1.1591,1.1591,1.1599,1.1606,1.1659,1.2304,1.2569,1.26,1.2961,1.3091,1.3129,1.3496,0.0,0.0,1.4145,1.3938,0.0,1.3312,0.0,0.0,1.2563,1.236,1.2448,1.4034,1.369,1.3029,0.0,0.0,0.0,0.0,0.0,0.0,0.0,0.0,0.0,0.0,0.0,0.0,0.0,0.0,0.0,0.0,0.0,0.0,0.0,0.0,0.0,0.0,0.0,0.0,0.0,0.0,0.0,0.0,0.0,1.6659,1.6105,1.6776,1.7177,1.7168,1.6644,1.6627,1.7168,1.7177,1.7605,1.835,1.8795,1.9094,1.9283,1.9292,1.9301,1.9301,1.9301,1.9301,1.9301,1.9301,1.9301,1.9384,2.0173,2.0493,2.057,2.1366,2.1668,2.1696,0.0,0.0,0.0,0.0,0.0,0.0,1.109,1.1233,1.1302,0.0,0.0,0.0,1.1381,1.1442,1.1449,1.1381,1.135,1.132,1.132,1.132,1.132,1.132,1.1408,1.1459,1.1459,1.1547,1.1591,1.1591,1.1591,1.1591,1.1591,1.1591,1.1591,1.1606,1.1802,1.1904,1.1911,1.2096,1.2166,1.2217,1.2813,1.3043,1.3115,0.0,0.0,0.0,0.0,1.4392,1.3691,0.0,1.3734,1.353,0.0,1.306,1.3302,1.3937,1.393,1.3826,1.4558,0.0,0.0,0.0,0.0,0.0,0.0,0.0,0.0,0.0,0.0,0.0,0.0,0.0,0.0,0.0,0.0,0.0,0.0,0.0,0.0,0.0,0.0,0.0,0.0,0.0,0.0,0.0,1.655,1.6593,1.591,1.6178,1.6342,1.6384,1.6223,1.6195,1.6411,1.6836,1.7222,1.7522,1.8397,1.8802,1.8889,1.9173,1.9301,1.9301,1.9301,1.9301,1.9301,1.9301,1.9301,1.932,1.9549,1.9998,2.0549,2.0726,2.1183,2.1696,0.0,0.0,0.0,0.0,0.0,1.0872,1.1216,1.1358,1.1473,0.0,0.0,0.0,1.1622,1.1591,1.1591,1.1591,1.1591,1.1591,1.1591,1.1591,1.1591,1.1591,1.1716,1.1692,1.1599,1.1723,1.1692,1.1591,1.1591,1.1657,1.1758,1.1758,1.1895,1.2106,1.2258,1.2439,1.2603,1.2746,1.2799,1.2852,1.3526,0.0,0.0,1.4522,1.4584,0.0,0.0,0.0,1.4626,1.4574,1.451,0.0,0.0,0.0,0.0,1.3995,1.3974,1.401,1.4398,1.4352,0.0,0.0,0.0,0.0,1.4554,1.4552,0.0,0.0,0.0,0.0,0.0,0.0,0.0,0.0,0.0,0.0,0.0,0.0,0.0,0.0,0.0,0.0,0.0,0.0,0.0,1.5352,1.5882,1.6088,1.5814,1.584,1.5919,1.5964,1.5931,1.5975,1.6105,1.666,1.7036,1.7198,1.8217,1.8623,1.8485,1.9045,1.921,1.9063,1.9228,1.9301,1.9301,1.9301,1.9301,1.932,1.9494,1.9852,2.0278,2.064,2.1071,2.1458,0.0,0.0,1.0595,1.0682,1.0509,1.0546,1.1063,1.1158,1.1261,0.0,1.1628,1.1643,1.1643,1.1679,1.1687,1.165,1.1679,1.1701,1.1701,1.1701,1.1701,1.1701,1.1941,1.1923,1.1709,1.1911,1.1911,1.1701,1.1665,1.1772,1.2054,1.2094,1.2347,1.2796,1.2908,1.3118,1.3437,1.3849,1.4022,1.4085,1.4684,1.515,0.0,0.0,1.5683,1.5811,1.5747,1.5762,1.5749,1.5389,1.5272,0.0,0.0,0.0,0.0,0.0,1.4068,0.0,1.3952,1.3986,1.4022,0.0,0.0,0.0,1.3981,1.4211,1.4485,0.0,0.0,0.0,0.0,0.0,0.0,0.0,0.0,0.0,0.0,0.0,0.0,0.0,0.0,0.0,0.0,1.4585,1.4624,1.4624,1.4949,1.5326,1.5711,1.5669,1.5695,1.5823,1.5797,1.5894,1.6167,1.6607,1.6964,1.7162,1.8107,1.8421,1.8118,1.8898,1.9063,1.8797,1.9146,1.9301,1.9301,1.9301,1.9301,1.9338,1.9674,1.9847,1.9976,2.0714,2.1034,2.1163,0.0,1.0298,1.0399,1.0581,1.0798,1.1078,1.1437,1.1496,1.1518,1.1584,1.178,1.1908,1.1908,1.2175,1.2226,1.1963,1.2182,1.2336,1.2336,1.2336,1.2336,1.2336,1.2361,1.2361,1.2336,1.2105,1.2098,1.2336,1.204,1.2076,1.2423,1.2565,1.2703,1.2845,1.3416,1.3642,1.3612,1.4367,0.0,1.4951,1.5096,0.0,1.533,1.5912,1.6,1.5914,1.6782,1.6569,1.5795,1.5703,1.5679,1.5615,0.0,0.0,0.0,1.4828,0.0,0.0,0.0,0.0,0.0,0.0,0.0,0.0,1.4002,1.4174,1.4327,0.0,0.0,0.0,0.0,0.0,0.0,0.0,0.0,0.0,0.0,0.0,0.0,0.0,0.0,0.0,0.0,1.4107,1.4213,1.4213,1.4572,1.4949,1.5309,1.5283,1.5523,1.6026,1.5867,1.6035,1.6508,1.6448,1.6598,1.6958,1.7504,1.7871,1.81,1.8614,1.8962,1.9191,1.9265,1.9301,1.9301,1.9301,1.9301,1.9311,1.9393,1.9591,1.9902,2.0058,2.0558,2.1117,1.0045,1.0137,1.0348,1.0777,1.0997,1.1269,1.1721,1.1794,1.1853,1.2021,1.2182,1.2244,1.2244,1.2343,1.2343,1.2244,1.2343,1.2417,1.2511,1.2593,1.2593,1.2485,1.2748,1.275,1.2424,1.2572,1.2613,1.2549,1.2549,1.2721,1.305,1.3153,1.3374,1.3708,1.4089,1.4344,1.4579,1.5005,1.5419,1.5741,1.5684,0.0,1.6242,1.6723,1.6907,1.6965,1.7349,1.7113,1.6658,1.6636,1.6645,0.0,0.0,1.6014,1.586,0.0,1.5255,1.5122,0.0,0.0,0.0,1.4469,0.0,0.0,0.0,1.407,1.4139,0.0,0.0,0.0,0.0,0.0,0.0,0.0,0.0,0.0,0.0,0.0,0.0,0.0,0.0,0.0,0.0,1.3852,1.3887,1.4084,1.4259,1.4588,1.5172,1.5169,1.5426,1.6079,1.5903,1.6,1.6438,1.6342,1.6447,1.676,1.7267,1.7504,1.7541,1.8348,1.8715,1.8733,1.9127,1.9301,1.9301,1.9301,1.9301,1.9301,1.9301,1.943,1.9641,1.9811,2.014,2.0576,1.0026,1.0148,1.036,1.0916,1.1166,1.1436,1.1923,1.2054,1.2248,1.2672,1.2767,1.2804,1.2804,1.2788,1.281,1.2939,1.2896,1.2893,1.2981,1.3041,1.2981,1.275,1.314,1.3105,1.2535,1.305,1.3134,1.2826,1.3106,1.345,1.3746,1.3824,1.4132,1.4649,1.482,1.514,1.5579,1.5718,0.0,1.6485,0.0,1.6716,1.7296,1.7513,1.7766,1.7957,1.7689,1.7617,1.7608,1.7531,1.7462,1.7351,1.7013,1.6653,0.0,0.0,0.0,0.0,0.0,0.0,0.0,0.0,0.0,1.4316,0.0,0.0,0.0,0.0,0.0,0.0,0.0,0.0,0.0,0.0,0.0,0.0,0.0,0.0,0.0,0.0,0.0,0.0,0.0,1.3783,1.3725,1.3964,1.3974,1.4302,1.5052,1.5085,1.5393,1.6105,1.5973,1.6044,1.6412,1.6377,1.6473,1.6647,1.7149,1.7257,1.7055,1.8036,1.8394,1.8237,1.8907,1.9228,1.9301,1.9301,1.9301,1.9301,1.9301,1.9301,1.9347,1.9646,1.982,1.9976,1.007,1.0331,1.0586,1.0631,1.1355,1.1916,1.1989,1.2251,1.2679,1.3385,1.3724,1.3907,1.3907,1.4298,1.4531,1.453,1.4691,1.4805,1.4805,1.4373,1.4006,1.3657,1.3534,1.344,1.3367,1.3338,1.3409,1.3661,1.3742,1.3999,1.4335,1.4629,1.4796,1.4916,1.5604,1.5863,1.5798,1.6458,1.6898,0.0,1.7269,1.7398,0.0,1.7803,1.7957,1.7991,1.7948,1.7931,1.792,0.0,1.7252,1.6978,0.0,1.6616,1.6328,1.6338,0.0,0.0,0.0,0.0,0.0,0.0,1.4888,0.0,0.0,0.0,0.0,0.0,0.0,0.0,0.0,0.0,0.0,0.0,0.0,0.0,0.0,0.0,0.0,0.0,0.0,0.0,0.0,0.0,1.3905,1.3596,1.3726,1.4104,1.4734,1.4848,1.5326,1.6245,1.6132,1.6316,1.6839,1.6647,1.6682,1.6874,1.6954,1.7128,1.7431,1.7568,1.7999,1.865,1.8742,1.8981,1.9301,1.9301,1.9301,1.9301,1.9301,1.9301,1.9311,1.9356,1.9613,1.9902,1.0725,1.0806,1.1019,1.1391,1.1796,1.2234,1.2848,1.3362,1.3831,1.4147,1.4296,1.4496,1.4691,1.483,1.4937,1.4957,0.0,1.5285,0.0,0.0,1.5109,1.4585,1.4848,1.4692,1.3964,1.4372,1.4494,1.432,1.4536,1.4738,1.4883,1.4999,1.5141,1.5273,1.5836,0.0,1.6196,0.0,1.7094,0.0,0.0,0.0,0.0,1.8297,1.8357,1.8357,1.8357,1.822,1.7974,0.0,1.7697,0.0,0.0,0.0,0.0,0.0,0.0,0.0,0.0,0.0,0.0,0.0,0.0,0.0,1.4819,0.0,1.4472,0.0,0.0,0.0,0.0,0.0,0.0,0.0,0.0,0.0,0.0,0.0,0.0,0.0,0.0,0.0,0.0,0.0,0.0,0.0,0.0,1.4171,1.4787,1.4944,1.546,1.6446,1.6237,1.6342,1.6908,1.6682,1.6682,1.6908,1.6908,1.6991,1.7165,1.7385,1.7816,1.8347,1.8614,1.8935,1.9301,1.9301,1.9301,1.9301,1.9301,1.9301,1.9301,1.9301,1.9412,1.9604,1.1571,1.1503,1.1647,1.2081,1.2321,1.2743,1.3657,1.4383,1.482,1.4784,1.4989,1.5202,1.5319,1.5679,1.5889,1.5866,1.6144,1.6228,0.0,0.0,1.6033,1.5389,1.5774,1.561,1.4715,1.5322,1.5426,1.4911,1.5273,1.5383,1.5275,1.5346,1.5426,1.5601,1.6083,1.6405,1.657,0.0,1.7441,1.784,1.8074,1.8477,1.8888,1.8785,1.8751,1.8751,1.8751,1.8571,1.829,1.8188,1.8085,0.0,1.8,0.0,0.0,0.0,0.0,0.0,1.6716,0.0,0.0,0.0,0.0,0.0,0.0,0.0,0.0,0.0,0.0,0.0,0.0,0.0,0.0,0.0,0.0,0.0,0.0,0.0,0.0,0.0,0.0,0.0,0.0,0.0,0.0,1.3519,1.3821,1.4211,1.4719,1.498,1.5506,1.6423,1.6245,1.6377,1.6908,1.676,1.676,1.6908,1.6908,1.6908,1.6917,1.7202,1.7623,1.81,1.8393,1.8834,1.9301,1.9301,1.9301,1.9301,1.9301,1.9301,1.9301,1.9301,1.9301,1.9347,1.2497,1.252,1.25,1.2306,1.2831,1.3494,1.4161,1.4965,1.539,1.5204,0.0,0.0,0.0,0.0,0.0,0.0,0.0,1.8404,1.8221,0.0,1.6635,0.0,0.0,1.5797,0.0,1.598,1.5886,1.5458,1.586,1.5867,1.5497,1.5691,1.577,1.5831,1.6539,1.6863,1.6915,1.7649,1.8211,1.8554,1.8562,1.9025,1.9623,0.0,1.9196,1.9196,1.9196,0.0,0.0,1.8699,1.8331,0.0,0.0,0.0,0.0,0.0,0.0,0.0,0.0,0.0,0.0,1.6356,0.0,0.0,0.0,0.0,1.5197,0.0,0.0,0.0,0.0,0.0,0.0,1.3232,0.0,0.0,0.0,0.0,0.0,0.0,0.0,0.0,0.0,0.0,0.0,1.3536,1.3821,1.4096,1.4313,1.4807,1.539,1.6001,1.6216,1.6491,1.6908,1.6908,1.6908,1.6908,1.6908,1.6908,1.6908,1.6917,1.7358,1.8091,1.81,1.8586,1.9301,1.9301,1.9301,1.9301,1.9301,1.9301,1.9301,1.9301,1.9301,1.9301,1.3312,1.3428,1.3405,1.2866,1.3273,1.3996,0.0,1.5762,0.0,0.0,1.7609,0.0,0.0,1.9063,1.9101,0.0,0.0,1.9049,1.8718,1.8585,0.0,0.0,0.0,1.7449,0.0,1.7259,1.7107,1.6879,1.6638,1.6448,1.6273,1.5952,1.5805,1.584,1.6584,1.688,0.0,0.0,0.0,0.0,0.0,1.946,1.9708,0.0,0.0,1.9547,1.9547,1.9384,0.0,1.9025,1.8896,1.8785,1.8785,1.8519,1.8252,1.8252,1.804,0.0,0.0,0.0,1.7299,1.685,0.0,0.0,0.0,0.0,0.0,0.0,0.0,0.0,0.0,0.0,1.4193,1.3838,0.0,0.0,0.0,0.0,0.0,0.0,0.0,0.0,0.0,0.0,0.0,1.3519,1.3821,1.4263,0.0,1.5036,1.5563,1.6576,1.6419,1.6482,1.6908,1.6908,1.6908,1.6908,1.6908,1.6908,1.6917,1.7183,1.7596,1.81,1.8365,1.8815,1.9301,1.9301,1.9301,1.9301,1.9301,1.9301,1.9301,1.9301,1.9301,1.9301,1.4052,1.4194,1.4202,1.367,1.4328,0.0,0.0,0.0,0.0,0.0,1.8682,0.0,2.0241,0.0,2.0131,0.0,2.0052,1.9911,1.9618,1.9609,0.0,1.9435,1.9108,0.0,0.0,0.0,0.0,0.0,1.7223,1.6841,1.6536,1.6177,1.5925,1.584,1.6584,1.688,1.6978,1.782,1.8451,0.0,0.0,1.9896,0.0,0.0,2.0061,1.9717,0.0,1.9778,1.9555,1.9427,1.9376,1.9358,1.9256,1.9041,1.8793,1.8793,1.8528,1.8177,1.7937,1.7852,0.0,1.7235,1.7013,0.0,1.6556,0.0,0.0,0.0,0.0,0.0,0.0,0.0,0.0,1.435,1.4403,0.0,0.0,0.0,0.0,0.0,0.0,0.0,0.0,0.0,1.3511,1.3511,1.3821,1.4294,0.0,0.0,1.5596,1.6636,1.6454,1.6553,1.711,1.6972,1.6972,1.711,1.711,1.7037,1.6927,1.7468,1.7862,1.8109,1.854,1.8935,1.9301,1.9301,1.9301,1.9301,1.9301,1.9301,1.9301,1.9301,1.9301,1.932,1.4742,1.4841,1.4915,0.0,1.5846,0.0,0.0,0.0,1.8314,0.0,1.9296,1.9754,2.009,2.0863,2.1239,2.0931,2.1032,2.1014,2.0806,2.0445,0.0,0.0,1.9905,1.9718,1.9371,0.0,0.0,0.0,0.0,1.7102,1.6328,1.6364,1.6175,1.584,1.6584,0.0,1.6957,1.8108,1.8828,1.9307,2.0001,2.0283,2.0266,2.0283,2.0061,1.9751,2.0163,2.0292,2.024,1.9845,1.9725,1.9665,1.9341,1.9256,1.9204,1.9204,1.8922,1.8614,1.8588,1.8106,1.7557,1.754,0.0,0.0,0.0,0.0,1.6362,0.0,0.0,0.0,0.0,0.0,0.0,1.4718,1.4692,0.0,0.0,0.0,0.0,0.0,0.0,0.0,0.0,1.3511,1.3511,1.3511,1.3791,1.4178,0.0,0.0,1.5498,1.6297,1.6346,1.6723,1.7495,1.7138,1.7156,1.7523,1.7523,1.733,1.6991,1.7752,1.8118,1.8136,1.8568,1.8953,1.9301,1.9301,1.9301,1.9301,1.9301,1.9301,1.9301,1.9301,1.932,1.9393,1.5078,1.5471,1.5773,0.0,1.566,1.5861,0.0,0.0,0.0,0.0,2.0747,2.1605,2.2046,2.1843,2.1538,2.1214,2.0951,0.0,0.0,0.0,0.0,2.0731,2.0016,1.9753,2.0119,1.9318,0.0,1.847,0.0,1.7032,1.6609,1.6151,1.5891,1.584,1.6584,1.688,1.6957,1.8108,1.8982,1.9589,2.0103,2.0129,0.0,0.0,2.0061,1.9751,2.0163,2.0292,2.0275,2.018,2.0155,2.0129,2.0035,1.9812,1.9554,1.9554,1.9324,1.8998,1.8665,1.8442,1.8237,1.7963,1.7612,1.7368,0.0,0.0,0.0,0.0,0.0,0.0,0.0,0.0,0.0,0.0,0.0,0.0,0.0,0.0,0.0,0.0,0.0,0.0,0.0,1.3511,1.3511,1.3511,1.3731,0.0,0.0,0.0,0.0,1.651,1.682,1.7153,1.7495,1.7706,1.7825,1.7963,1.7963,1.7908,1.7789,1.8339,1.8568,1.8586,1.8981,1.921,1.9301,1.9301,1.9301,1.9301,1.9301,1.9301,1.9301,1.9301,1.9503,1.9747,1.5634,1.6082,0.0,1.6458,0.0,0.0,1.7593,1.8228,0.0,2.0316,2.0989,0.0,2.223,2.1825,2.1511,2.1441,2.1063,0.0,2.0826,0.0,0.0,2.0988,2.0439,2.0237,2.0386,1.9747,0.0,1.8786,0.0,0.0,1.6787,1.6289,1.6036,1.6054,1.6653,1.7013,1.7235,1.8365,1.9196,1.9734,2.0146,0.0,0.0,2.0215,2.0163,2.0009,2.0215,2.0292,2.0292,2.0292,2.0292,2.0292,2.0292,2.0155,1.9984,1.9984,1.9806,1.9549,1.9324,1.9134,1.8953,1.8704,1.8318,1.7994,1.7994,1.7543,1.7158,0.0,0.0,0.0,0.0,0.0,0.0,0.0,0.0,0.0,0.0,0.0,0.0,0.0,0.0,0.0,0.0,0.0,0.0,0.0,0.0,0.0,0.0,0.0,0.0,1.6585,1.7009,1.7379,1.777,1.8009,1.8173,1.8347,1.8347,1.8255,1.8109,1.8715,1.8871,1.8733,1.9127,1.9301,1.9301,1.9301,1.9301,1.9301,1.9301,1.9301,1.932,1.9503,1.9723,1.9939,1.6208,1.665,0.0,0.0,0.0,0.0,0.0,1.9118,0.0,2.0721,0.0,2.0732,2.1499,2.134,2.1212,2.1391,0.0,2.0907,2.0907,2.0907,2.0907,2.0907,2.0907,2.0748,2.0377,2.0158,1.967,0.0,0.0,1.759,1.6841,1.6544,1.6381,1.6317,1.671,0.0,0.0,1.8793,1.9418,1.9802,2.0163,2.0292,2.0292,2.0292,2.0292,2.0292,2.0292,2.0292,2.0292,2.0292,2.0292,2.0292,2.0292,2.0292,2.0292,2.0292,2.0195,2.0113,2.0061,1.98,1.9522,1.947,1.9074,1.8648,1.8596,1.8083,1.7643,1.7591,1.7287,1.7009,0.0,0.0,0.0,0.0,0.0,0.0,0.0,0.0,0.0,0.0,0.0,0.0,0.0,0.0,0.0,0.0,0.0,0.0,0.0,0.0,0.0,1.6559,1.7054,0.0,1.8164,0.0,1.8476,1.8871,1.8815,1.8614,1.8264,1.899,1.9118,1.8806,1.9155,1.9301,1.9301,1.9301,1.9301,1.9301,1.9301,1.9301,1.9356,1.9793,2.0008,2.015,1.6364,0.0,0.0,0.0,0.0,1.9067,1.9557,1.9582,1.9771,2.0359,2.0878,2.1178,2.1048,2.0967,2.0838,2.0557,2.0462,0.0,0.0,0.0,0.0,2.0419,2.0419,2.0393,2.0324,1.9942,1.9402,0.0,0.0,0.0,1.6402,1.6416,1.6381,1.6407,1.6747,0.0,1.893,1.9136,0.0,2.0198,2.0266,2.0292,2.0292,2.0292,2.0292,2.0292,2.0292,2.0292,2.0292,2.0292,2.0292,2.0292,2.0292,2.0292,2.0292,2.0292,2.0286,2.0174,1.9865,1.9736,1.9608,1.9333,1.9162,1.9033,1.8656,1.8485,1.8305,1.7965,1.7846,1.7701,1.7432,0.0,0.0,0.0,0.0,0.0,0.0,0.0,0.0,0.0,0.0,0.0,0.0,0.0,0.0,0.0,0.0,0.0,0.0,0.0,0.0,0.0,1.7406,0.0,0.0,0.0,1.9301,1.9674,1.9366,1.9164,1.91,1.9237,1.9265,1.9201,1.9265,1.9301,1.9301,1.9301,1.9301,1.9301,1.9301,1.9301,1.9393,2.0145,2.062,2.0977,1.6965,0.0,0.0,0.0,0.0,0.0,0.0,1.9862,0.0,2.0266,2.0437,2.048,2.0309,2.0463,2.0497,2.0309,2.0292,2.0292,2.0292,2.0292,2.0292,2.0292,2.0292,0.0,2.0292,2.0121,1.9658,1.8888,0.0,0.0,1.6918,0.0,1.6785,1.6991,0.0,1.8186,0.0,0.0,0.0,2.0026,2.0215,2.0292,2.0292,2.0292,2.0292,2.0292,2.0292,2.0292,2.0292,2.0292,2.0292,2.0292,2.0292,2.0292,2.0292,2.0292,2.0382,2.0484,2.0248,2.0205,2.0162,2.0025,1.9738,1.9418,1.923,1.9033,1.8845,1.8665,1.8468,1.8151,1.7617,1.7167,0.0,0.0,0.0,0.0,0.0,0.0,0.0,0.0,0.0,0.0,0.0,0.0,0.0,0.0,0.0,0.0,0.0,0.0,0.0,0.0,0.0,0.0,0.0,0.0,0.0,1.9604,1.9402,1.9301,1.9301,1.9301,1.9301,1.9301,1.9301,1.9301,1.932,1.954,1.9503,1.932,1.954,1.9743,2.0058,2.0624,2.1273,2.1847,0.0,1.7894,0.0,0.0,1.9042,0.0,1.9665,2.0129,2.0386,2.03,2.0035,1.9811,1.9811,2.0121,2.0292,2.0292,2.0292,2.0292,2.0292,2.0292,2.0292,2.0292,2.0337,2.0382,2.0292,2.0382,2.0011,0.0,0.0,0.0,0.0,0.0,0.0,0.0,0.0,0.0,0.0,0.0,1.9742,1.9836,2.0172,2.0292,2.0292,2.0292,2.0292,2.0292,2.0292,2.0292,2.0292,2.0292,2.0292,2.0292,2.0292,2.0292,2.0292,2.0292,2.0428,2.0609,2.0609,2.0609,2.0609,2.0609,2.0212,1.9794,1.9717,1.9513,1.9273,1.9196,1.893,1.8477,1.7723,1.7415,0.0,0.0,0.0,0.0,0.0,0.0,0.0,0.0,0.0,0.0,0.0,0.0,0.0,0.0,0.0,1.5025,1.554,1.6009,0.0,0.0,0.0,1.8282,1.8757,0.0,1.9347,0.0,1.9347,1.9301,1.9301,1.9301,1.9301,1.9301,1.9393,1.9485,1.9577,1.9905,1.9845,1.9568,1.9897,2.0329,2.0776,2.1196,2.19,2.2657,0.0,0.0,0.0,0.0,0.0,0.0,1.9742,2.036,2.0694,2.0343,2.0266,2.024,2.024,2.0275,2.0292,2.0292,2.0292,2.0292,2.0292,2.0292,2.0292,2.0292,2.0518,2.0564,2.0292,2.0518,2.0319,0.0,0.0,0.0,0.0,0.0,0.0,0.0,0.0,0.0,0.0,1.9665,1.9896,2.024,2.0275,2.0292,2.0292,2.0292,2.0292,2.0292,2.0292,2.0292,2.0292,2.0292,2.0292,2.0292,2.0292,2.0292,2.0292,2.0292,2.0337,2.0337,2.0337,2.0337,2.0337,2.0337,2.0311,2.0155,1.9776,1.9674,1.959,1.9247,1.9187,1.8888,1.8085,1.8228,1.8203,0.0,0.0,0.0,0.0,0.0,0.0,0.0,0.0,0.0,0.0,0.0,0.0,0.0,0.0,1.5334,1.5763,1.5982,1.6271,1.6628,0.0,1.821,1.8979,1.9173,1.9494,1.9829,1.9485,1.9301,1.9301,1.9301,1.9301,1.932,1.9705,2.0031,2.0374,2.0454,2.0407,2.0422,2.0486,2.078,2.121,2.1639,2.2401,2.3175,0.0,0.0,0.0,0.0,0.0,0.0,0.0,2.0326,2.0472,2.0309,2.0292,2.0292,2.0292,2.0292,2.0292,2.0292,2.0292,2.0292,2.0292,2.0292,2.0292,2.0292,2.0564,2.0654,2.0518,2.0654,2.0471,0.0,0.0,0.0,0.0,0.0,0.0,0.0,0.0,1.9409,1.9717,1.9975,2.0245,2.0518,2.0518,2.0518,2.0518,2.0518,2.0428,2.0292,2.0292,2.0292,2.0292,2.0292,2.0292,2.0292,2.0292,2.0292,2.0292,2.0292,2.0292,2.0292,2.0292,2.0292,2.0292,2.0292,2.0292,2.0249,2.0103,2.0069,2.0026,1.9881,1.9667,1.9281,1.8511,1.8485,1.8417,0.0,0.0,0.0,0.0,0.0,0.0,0.0,0.0,0.0,0.0,0.0,0.0,0.0,0.0,0.0,1.5947,1.6395,0.0,1.7301,0.0,1.8627,1.9183,1.9262,1.9384,1.9549,1.9641,1.9549,1.9311,1.9567,1.9677,1.9696,2.0108,2.05,2.0941,2.1174,2.131,2.1387,2.1629,2.2012,2.2438,2.2617,2.3219,2.3984,1.9324,0.0,1.9461,0.0,1.9862,1.9992,2.0249,2.0292,2.0292,2.0292,2.0292,2.0292,2.0292,2.0292,2.0292,2.0292,2.0292,2.0292,2.0292,2.0292,2.0292,2.0292,2.0564,0.0,2.0564,2.0654,2.0523,2.0173,1.9608,0.0,0.0,0.0,0.0,0.0,1.958,1.9804,2.0013,2.0316,2.0518,2.0699,2.0699,2.0654,2.0564,2.0564,2.0473,2.0292,2.0292,2.0292,2.0292,2.0292,2.0292,2.0292,2.0292,2.0292,2.0292,2.0292,2.0292,2.0292,2.0292,2.0292,2.0292,2.0292,2.0292,2.0292,2.0292,2.0292,2.0292,2.0292,2.0086,1.9657,1.905,1.893,1.8768,1.828,0.0,0.0,0.0,0.0,0.0,0.0,1.6704,1.631,1.6381,0.0,0.0,0.0,0.0,0.0,0.0,0.0,0.0,0.0,0.0,0.0,0.0,1.9381,1.9421,1.9301,1.9692,1.9729,1.9503,2.0038,2.037,2.049,2.0904,2.1353,2.1773,2.2072,2.222,2.231,2.2603,2.3004,2.3418,2.3418,2.3883,2.4497,1.9623,1.9691,1.9811,2.0223,2.0283,2.0283,2.0292,2.0292,2.0292,2.0292,2.0292,2.0292,2.0292,2.0292,2.0292,2.0292,2.0292,2.0292,2.0292,2.0292,2.0292,0.0,0.0,2.0564,2.0292,2.0564,2.0564,2.0283,0.0,0.0,1.9376,0.0,1.9177,1.9691,1.97,2.0074,2.069,2.0699,2.0699,2.0699,2.0699,2.0518,2.0292,2.0292,2.0292,2.0292,2.0292,2.0292,2.0292,2.0292,2.0292,2.0292,2.0292,2.0292,2.0292,2.0292,2.0292,2.0292,2.0292,2.0292,2.0292,2.0292,2.0292,2.0292,2.0292,2.0292,2.0292,2.0292,2.0292,2.0172,1.9751,1.9683,1.9435,1.8708,0.0,0.0,0.0,0.0,0.0,0.0,1.7235,1.715,1.6368,0.0,0.0,0.0,0.0,0.0,0.0,0.0,0.0,1.8071,1.8312,0.0,1.8993,1.9593,1.9674,1.9301,1.9692,1.9884,1.9934,2.0786,2.139,2.1812,2.2291,2.2715,2.3086,2.3155,2.3187,2.3178,2.3207,2.3474,2.3877,2.3877,2.4157,2.4497,2.0095,2.0121,2.0155,2.0275,2.0292,2.0292,2.0292,2.0292,2.0292,2.0292,2.0292,2.0292,2.0292,2.0292,2.0292,0.0,2.0292,2.0292,0.0,2.0292,2.0292,2.0292,2.0564,2.0654,2.0564,2.0654,2.0654,2.0564,0.0,0.0,0.0,1.9479,1.9685,2.0121,2.0292,2.0496,2.0699,2.0871,2.0907,2.0907,2.0907,2.0781,2.0564,2.0564,2.0473,2.0292,2.0292,2.0292,2.0292,2.0292,2.0292,2.0292,2.0292,2.0292,2.0292,2.0292,2.0292,2.0292,2.0292,2.0292,2.0292,2.0292,2.0292,2.0292,2.0292,2.0292,2.0292,2.0292,2.0292,2.018,1.9768,1.9905,1.9778,1.8751,1.8811,0.0,0.0,0.0,0.0,0.0,1.7552,1.7411,0.0,1.6995,0.0,0.0,0.0,0.0,0.0,0.0,0.0,0.0,1.8767,0.0,1.9611,1.9779,1.982,1.9742,2.0369,2.0902,2.1198,2.1828,2.2175,2.231,2.2707,2.3181,2.357,2.3604,2.3811,2.4099,2.4083,2.4071,2.4077,2.4077,2.4074,2.4013,2.0292,2.0292,2.0292,2.0292,2.0292,2.0292,2.0292,2.0292,2.0292,2.0292,2.0292,2.0292,2.0292,2.0292,0.0,2.0292,2.0292,2.0292,2.0292,2.0292,2.0292,2.0292,2.0473,2.0564,2.0564,0.0,0.0,2.0564,2.015,1.9949,1.9949,1.9949,2.0114,2.0473,2.0609,2.0736,2.0826,2.0952,2.0952,2.0871,2.0871,2.0736,2.0564,2.0564,2.0428,2.0292,2.0292,2.0292,2.0292,2.0292,2.0292,2.0292,2.0292,2.0292,2.0292,2.0292,2.0292,2.0292,2.0292,2.0292,2.0292,2.0292,2.0292,2.0292,2.0292,2.0292,2.0292,2.0292,2.0292,2.0223,1.9992,2.0138,2.0009,1.9153,1.9222,1.917,1.8554,0.0,0.0,0.0,0.0,0.0,0.0,1.7595,0.0,0.0,0.0,0.0,0.0,0.0,0.0,1.8958,1.9469,0.0,2.0104,2.0301,2.0259,2.0122,2.0976,2.1616,2.2087,2.2732,2.2982,2.2992,2.3451,2.3797,2.4057,2.4057,2.4196,2.4378,2.4378,2.4239,2.4067,2.4067,2.3937,2.3797,2.0292,2.0292,0.0,0.0,2.0292,0.0,2.0292,2.0292,2.0292,2.0292,2.0292,2.0292,2.0292,2.0292,2.0283,2.0257,0.0,0.0,0.0,2.0292,2.0292,2.0292,2.0292,2.0292,2.0292,2.0292,2.0292,2.0292,2.0292,2.0292,2.0337,2.0337,2.0473,2.0699,2.0699,2.0826,2.0997,2.0997,2.0871,2.0699,2.0699,2.0518,2.0292,2.0292,2.0292,2.0292,2.0292,2.0292,2.0292,2.0292,2.0292,2.0292,2.0292,2.0292,2.0292,2.0292,2.0292,2.0292,2.0292,2.0292,2.0292,2.0292,2.0292,2.0292,2.0292,2.0292,2.0292,2.0292,2.0292,2.0292,2.0292,2.0292,2.0172,1.9759,1.97,1.9563,1.9273,0.0,0.0,0.0,0.0,0.0,0.0,1.8425,1.8672,0.0,0.0,0.0,0.0,0.0,1.9587,1.993,2.0287,2.053,2.0558,2.0924,2.0934,2.0646,2.149,2.214,2.2614,2.3467,2.3841,2.3884,2.4282,2.4497,2.4497,2.4454,2.4325,2.4206,2.4163,2.4024,2.3797,2.3797,2.3754,2.3754,0.0,0.0,2.0292,2.0292,2.0292,2.0292,2.0292,2.0292,2.0292,2.0292,2.0292,2.0292,2.0292,2.0292,2.018,1.9853,2.0129,2.0292,2.0292,2.0292,2.0292,2.0292,2.0292,2.0292,2.0292,2.0292,2.0292,2.0292,2.0292,2.0382,2.0609,2.0609,2.0736,2.0907,2.0907,2.0952,2.0997,2.0997,2.0871,2.0699,2.0699,2.0518,2.0292,2.0292,2.0292,2.0292,2.0292,2.0292,2.0292,2.0292,2.0292,2.0292,2.0292,2.0292,2.0292,2.0292,2.0292,2.0292,2.0292,2.0292,2.0292,2.0292,2.0292,2.0292,2.0292,2.0292,2.0292,2.0292,2.0292,2.0292,2.0292,2.0292,2.0172,1.9759,1.97,1.9563,1.9273,1.9136,0.0,0.0,1.8982,1.8999,1.8913,1.8982,1.911,0.0,0.0,0.0,0.0,2.0294,2.0406,2.0351,2.0466,2.0668,2.0961,2.1062,2.1392,2.1964,2.2588,2.3083,2.3507,2.4102,2.4315,2.4325,2.4292,2.4368,2.4454,2.41,2.4067,2.4163,2.397,2.3754,2.358,2.358,2.345,2.3276,2.0292,2.0292,2.0292,2.0292,2.0292,2.0292,2.0292,2.0292,2.0292,2.0292,2.0292,2.0292,2.0292,2.0292,2.0146,1.9734,2.0078,2.0223,2.0052,2.0198,2.0292,2.0292,2.0292,2.0292,2.0292,2.0292,2.0292,2.0292,2.0292,2.0382,2.0518,2.0518,2.0645,2.0871,2.0871,2.0871,2.0871,2.0871,2.0736,2.0518,2.0518,2.0428,2.0292,2.0292,2.0292,2.0292,2.0292,2.0292,2.0292,2.0292,2.0292,2.0292,2.0292,2.0292,2.0292,2.0292,2.0292,2.0337,2.0555,2.06,2.069,2.088,2.0925,2.0871,2.069,2.06,2.0555,2.0337,2.0292,2.0292,2.0292,2.0292,2.0223,2.0026,1.9944,1.9815,1.9736,1.9471,0.0,1.941,1.9436,1.9436,1.9436,1.9436,1.947,1.9601,0.0,0.0,2.0343,2.0798,2.0956,2.0796,2.0927,2.1259,2.1689,2.1907,2.2379,2.3047,2.3332,2.3685,2.4143,2.4368,2.4497,2.4497,2.4292,2.4249,2.4325,2.397,2.3841,2.3851,2.3711,2.3537,2.3319,2.3319,2.3232,2.3091,2.0292,2.0292,2.0292,2.0292,2.0292,2.0292,2.0292,2.0292,2.0292,2.0292,2.0292,2.0292,2.0292,2.0292,2.0146,1.9734,2.0026,2.0078,1.9717,2.0086,2.0266,2.0215,2.0266,2.0266,2.0215,2.0266,2.0292,2.0292,2.0292,2.0337,2.0382,2.0382,2.0518,2.0736,2.0699,2.0699,2.0699,2.0654,2.0518,2.0292,2.0292,2.0292,2.0292,2.0292,2.0292,2.0292,2.0292,2.0292,2.0292,2.0292,2.0292,2.0292,2.0292,2.0292,2.0292,2.0292,2.0292,2.0382,2.0772,2.0952,2.1132,2.1597,2.1696,2.1597,2.1186,2.1132,2.0997,2.0609,2.0473,2.0428,2.0428,2.0337,2.0275,2.0215,2.0171,2.0137,2.0217,0.0,1.9661,1.9787,1.9785,1.9785,1.9785,1.9785,1.9785,1.9785,2.0042,2.0272,0.0,2.1123,2.1407,2.1261,2.1592,2.2043,2.2476,2.296,2.3406,2.3797,2.3884,2.41,2.4454,2.4454,2.4411,2.4368,2.4196,2.412,2.411,2.3797,2.3624,2.3503,2.346,2.3319,2.3091,2.3091,2.3091,2.3091,2.0292,2.0292,2.0292,2.0292,2.0292,2.0292,2.0292,2.0292,2.0292,2.0292,2.0292,2.0292,2.0292,2.0292,2.0146,1.9734,1.9751,1.9759,1.97,2.0086,2.0155,1.9802,2.0129,2.0146,1.9785,2.0129,2.0292,2.0292,2.0292,2.0428,2.0654,2.0654,2.0736,2.0952,2.0781,2.0699,2.0699,2.0473,2.0337,2.0292,2.0292,2.0292,2.0292,2.0292,2.0292,2.0292,2.0292,2.0292,2.0292,2.0292,2.0292,2.0292,2.0292,2.0292,2.0292,2.0292,2.0292,2.0337,2.0382,2.069,2.1132,2.1597,2.1696,2.1696,2.1597,2.1597,2.1553,2.1508,2.1186,2.0907,2.0907,2.0555,2.0189,1.9836,2.0043,2.0165,1.9819,0.0,2.0183,2.0198,2.0206,2.0206,2.0206,2.0206,2.0206,2.0206,2.0477,2.0612,2.0657,2.1302,2.1748,2.1959,2.2192,2.252,2.3003,2.345,2.3711,2.3797,2.4186,2.4325,2.4249,2.4249,2.411,2.3884,2.3721,2.3721,2.3841,2.3406,2.3319,2.3503,2.3232,2.3144,2.3091,2.3091,2.3091,2.3091,2.0292,2.0292,2.0292,2.0292,2.0292,2.0292,2.0292,2.0292,2.0292,2.0292,2.0292,2.0292,2.0292,2.0292,2.0146,1.9734,1.97,1.9744,1.992,1.9798,1.9745,1.992,1.9798,1.9607,1.9436,1.9804,2.0001,2.0001,2.0198,2.0382,2.0473,2.0473,2.051,2.06,2.0518,2.0473,2.0473,2.0337,2.0292,2.0292,2.0292,2.0292,2.0292,2.0292,2.0292,2.0292,2.0292,2.0292,2.0292,2.0292,2.0292,2.0292,2.0292,2.0292,2.0292,2.0292,2.0464,2.0736,2.1015,2.141,2.1856,2.2344,2.2441,2.2397,2.2132,2.2087,2.1998,2.1731,2.1553,2.1365,2.1365,2.1195,2.0998,2.0829,2.0846,0.0,0.0,2.0678,2.0597,2.0664,2.0464,2.0374,2.0645,2.069,2.0781,2.106,2.1284,2.1463,2.1463,2.1865,2.222,2.2451,2.2925,2.3013,2.274,2.345,2.3797,2.3797,2.3894,2.4067,2.4206,2.4067,2.3927,2.3797,2.359,2.3537,2.3624,2.3232,2.3178,2.3276,2.3144,2.3091,2.3091,2.3091,2.3091,2.3091,2.0292,2.0292,2.0292,2.0292,2.0292,2.0292,2.0292,2.0292,2.0292,2.0292,2.0292,2.0257,2.0172,2.024,2.0146,1.9734,1.97,1.9866,2.0218,1.9523,1.9333,1.9939,1.9368,1.9076,1.9213,1.9547,1.97,1.97,2.0112,2.0292,2.0292,2.0292,2.0292,2.0292,2.0292,2.0292,2.0292,2.0292,2.0292,2.0292,2.0292,2.0292,2.0292,2.0292,2.0292,2.0292,2.0292,2.0292,2.0292,2.0292,2.0292,2.0292,2.0292,2.0232,2.0163,2.0163,2.0425,2.0801,2.1392,2.1811,2.2211,2.2784,2.2916,2.2872,2.2608,2.2574,2.2441,2.2087,2.1954,2.1865,2.1865,2.1776,2.1659,2.1612,0.0,0.0,0.0,2.1225,2.1075,2.1141,2.0826,2.0789,2.1132,2.1177,2.132,2.1687,2.1874,2.2008,2.1919,2.2185,2.2397,2.2627,2.3276,2.3319,2.2662,2.3363,2.3754,2.3797,2.3624,2.3721,2.4034,2.3797,2.3711,2.3624,2.345,2.3416,2.3406,2.3188,2.3091,2.3091,2.3091,2.3091,2.3091,2.3091,2.3091,2.3091,2.0292,2.0292,2.0292,2.0292,2.0292,2.0292,2.0292,2.0292,2.0292,2.0292,2.0292,2.0163,1.9776,2.0086,2.0146,1.9734,1.97,1.9978,2.0629,1.9402,1.8928,1.9521,1.8962,1.8802,1.9204,1.9547,1.97,1.97,2.0112,2.0292,2.0292,2.0292,2.0292,2.0292,2.0292,2.0292,2.0292,2.0292,2.0292,2.0292,2.0292,2.0292,2.0292,2.0292,2.0292,2.0292,2.0292,2.0292,2.0292,2.0292,2.0292,2.0292,2.0292,2.0061,1.9734,1.9734,1.9787,1.9988,2.081,2.1087,2.1311,2.2211,2.2441,2.2574,2.296,2.3047,2.3057,2.3003,2.2662,2.2353,2.2353,2.1998,2.1612,2.128,0.0,0.0,2.1261,2.1475,2.1659,2.1642,2.1597,2.1597,2.1642,2.1642,2.1651,2.1696,2.1741,2.1651,2.1482,2.1883,2.2141,2.2141,2.2794,2.3232,2.3416,2.3503,2.3624,2.3797,2.3797,2.3711,2.3547,2.3547,2.3406,2.3135,2.3144,2.3144,2.3144,2.3101,2.3091,2.3091,2.3091,2.3091,2.3091,2.3091,2.3091,2.3091,2.0292,2.0292,2.0292,2.0292,2.0292,2.0292,2.0292,2.0292,2.0292,2.0292,2.0292,2.024,2.0095,2.0001,1.9853,1.9708,1.9521,1.9531,1.9922,1.9083,1.8587,1.8592,1.8363,1.8314,1.8468,1.9076,1.9393,1.9393,1.9992,2.0292,2.0292,2.0292,2.0292,2.0292,2.0292,2.0292,2.0292,2.0292,2.0292,2.0292,2.0292,2.0292,2.0292,2.0292,2.0292,2.0292,2.0292,2.0292,2.0292,2.0292,2.0292,2.0292,2.0292,2.0035,1.9648,1.9461,1.9393,1.9513,2.006,2.0597,2.1159,2.1892,2.2242,2.252,2.3003,2.3091,2.3091,2.3091,2.296,2.2828,2.2828,2.2706,2.2517,2.2398,0.0,2.2517,2.2398,2.2249,2.2132,2.2132,2.1633,2.1365,2.1687,2.1696,2.1696,2.1696,2.1954,2.2087,2.2008,2.2362,2.2539,2.2539,2.2618,2.2662,2.2627,2.2935,2.3188,2.3353,2.3232,2.3276,2.3503,2.3319,2.3188,2.3091,2.3091,2.3091,2.3091,2.3091,2.3091,2.3091,2.3091,2.3091,2.3091,2.3091,2.3091,2.3091,2.0292,2.0292,2.0292,2.0292,2.0292,2.0292,2.0292,2.0292,2.0292,2.0292,2.0292,2.0249,2.0129,1.9853,1.9648,1.9529,1.9324,1.9256,1.9418,1.8886,1.8425,1.8017,1.8,1.8,1.8,1.8656,1.905,1.9213,1.9804,2.018,2.0292,2.0292,2.0292,2.0292,2.0292,2.0292,2.0292,2.0292,2.0292,2.0292,2.0292,2.0292,2.0292,2.0292,2.0292,2.0292,2.0292,2.0292,2.0292,2.0292,2.0215,2.0138,2.0257,1.9958,1.9513,1.9247,1.9213,1.9256,1.9597,2.0224,2.0935,2.1646,2.2005,2.2344,2.296,2.3091,2.3091,2.3091,2.3091,2.3091,2.3091,2.3091,2.3091,2.3091,2.3091,2.3091,2.3091,2.2828,2.2608,2.2608,2.1935,2.1588,2.1909,2.1909,2.1909,2.1909,2.2353,2.2564,2.253,2.2618,2.2662,2.2662,2.2485,2.2397,2.2397,2.2671,2.2882,2.3091,2.2969,2.3057,2.3373,2.3188,2.3091,2.3091,2.3091,2.3091,2.3091,2.3091,2.3091,2.3091,2.3091,2.3091,2.3091,2.3091,2.3091,2.3091,2.0292,2.0292,2.0292,2.0292,2.0292,2.0292,2.0292,2.0292,2.0292,2.0292,2.0292,2.0155,1.9742,1.97,1.9546,1.9213,1.9213,1.9213,1.9213,1.8802,1.8417,1.8017,1.8,1.8,1.8,1.84,1.8818,1.9213,1.9555,1.9888,2.0292,2.0292,2.0292,2.0292,2.0292,2.0292,2.0292,2.0292,2.0292,2.0292,2.0292,2.0292,2.0292,2.0292,2.0292,2.0292,2.0292,2.0292,2.0292,2.0292,2.0043,1.9759,2.0172,1.9769,1.9213,1.9213,1.9213,1.9256,1.9597,2.0009,2.051,2.1463,2.1696,2.1954,2.2872,2.3091,2.3091,2.3091,2.3091,2.3091,2.3091,2.3091,2.3091,2.3091,2.3091,2.3091,2.3091,2.3091,2.3091,2.3091,2.2706,2.2397,2.2397,2.2397,2.2397,2.2388,2.2838,2.3013,2.2803,2.253,2.2397,2.2397,2.2397,2.2618,2.3091,2.2882,2.2882,2.3091,2.3091,2.3091,2.3091,2.3091,2.3091,2.3091,2.3091,2.3091,2.3091,2.3091,2.3091,2.3091,2.3091,2.3091,2.3091,2.3091,2.3091,2.3091,2.0292,2.0292,2.0292,2.0292,2.0292,2.0292,2.0292,2.0292,2.0292,2.0292,2.0292,2.0249,2.0138,1.9658,1.9401,1.9555,1.9333,1.9213,1.9213,1.8562,1.8111,1.8,1.8,1.8,1.8,1.84,1.8818,1.9213,1.9555,1.9888,2.0292,2.0292,2.0292,2.0292,2.0292,2.0292,2.0292,2.0292,2.0292,2.0292,2.0292,2.0292,2.0292,2.0292,2.0292,2.0292,2.0292,2.0292,2.0292,2.0292,2.0215,2.0052,1.9641,1.9402,1.9119,1.8845,1.8998,1.9256,1.9597,1.9776,2.0129,2.1091,2.152,2.1954,2.2872,2.2838,2.2706,2.3047,2.2828,2.2696,2.3047,2.3091,2.3091,2.3091,2.3091,2.3091,2.3091,2.3091,2.3091,2.3091,2.2706,2.2397,2.2397,2.2397,2.2264,2.1909,2.2671,2.3057,2.3021,2.3236,2.3235,2.2891,2.2872,2.3057,2.3363,2.2979,2.3023,2.3363,2.3188,2.3091,2.3101,2.3276,2.3276,2.3091,2.3319,2.3276,2.3091,2.3091,2.3091,2.3091,2.3091,2.3091,2.3091,2.3091,2.3091,2.3091,2.0292,2.0292,2.0292,2.0292,2.0292,2.0292,2.0292,2.0292,2.0292,2.0292,2.0292,2.0292,2.0292,1.9761,1.9495,1.9683,1.9393,1.9213,1.9213,1.8596,1.8254,1.8254,1.8076,1.8,1.8,1.8254,1.8562,1.8939,1.917,1.9555,2.0069,2.0069,2.0155,2.0292,2.0292,2.0292,2.0292,2.0292,2.0292,2.0292,2.0292,2.0292,2.0292,2.0292,2.0292,2.0292,2.0292,2.0198,2.0095,2.024,2.0198,1.9941,1.9179,1.8939,1.8964,1.8845,1.9033,1.929,1.9821,2.0092,2.0394,2.1198,2.1415,2.1633,2.2388,2.2485,2.2476,2.274,2.274,2.274,2.3047,2.3091,2.3091,2.3091,2.3091,2.3091,2.3091,2.3091,2.3091,2.3091,2.2706,2.2397,2.2397,2.2583,2.2709,2.2779,2.3298,2.3633,2.3633,2.3741,2.3672,2.3408,2.3188,2.3232,2.3503,2.3101,2.3144,2.3624,2.345,2.3363,2.3276,2.3416,2.3363,2.3101,2.3276,2.3232,2.3091,2.3091,2.3091,2.3091,2.3091,2.3091,2.3091,2.3091,2.3091,2.3091,2.0292,2.0292,2.0292,2.0292,2.0292,2.0292,2.0292,2.0292,2.0292,2.0292,2.0292,2.0292,2.0292,1.9922,1.9717,1.9742,1.941,1.9204,1.917,1.8759,1.8537,1.8537,1.822,1.8,1.8,1.8,1.822,1.8588,1.8588,1.8965,1.9648,1.9683,1.9879,2.024,2.0275,2.0292,2.0292,2.0292,2.0292,2.0292,2.0337,2.0374,2.0382,2.0428,2.0382,2.0374,2.0374,2.0123,1.9802,2.018,2.0001,1.9477,1.8853,1.8614,1.8665,1.9101,1.9239,1.9462,2.014,2.069,2.1177,2.1553,2.1365,2.1177,2.1731,2.2132,2.2388,2.2441,2.2784,2.3047,2.3091,2.3091,2.3091,2.3091,2.3091,2.3091,2.3091,2.3091,2.3091,2.3091,2.2706,2.2476,2.2476,2.291,2.353,2.4397,2.4473,2.4473,2.4473,2.4111,2.3887,2.3848,2.3418,2.3291,2.3563,2.3334,2.3392,2.3754,2.3754,2.3667,2.346,2.3503,2.3382,2.3149,2.3154,2.3164,2.3149,2.311,2.3091,2.3091,2.3091,2.3091,2.3091,2.3091,2.3091,2.3091,2.0292,2.0292,2.0292,2.0292,2.0292,2.0292,2.0292,2.0292,2.0292,2.0292,2.0292,2.0292,2.0292,1.9922,1.9811,2.0146,1.9564,1.9084,1.8733,1.8365,1.8119,1.8119,1.8042,1.8,1.8,1.8,1.822,1.8588,1.8588,1.8828,1.9299,1.9563,1.9742,1.9828,2.0163,2.0292,2.0292,2.0292,2.0292,2.0337,2.069,2.0862,2.0907,2.1284,2.1186,2.0862,2.0862,2.0548,2.0189,2.0266,1.9641,1.8862,1.8999,1.8836,1.8665,1.9101,1.9635,2.014,2.0262,2.0925,2.1454,2.123,2.1365,2.1776,2.2608,2.2564,2.2476,2.2872,2.275,2.2652,2.3047,2.3091,2.3091,2.3091,2.3091,2.3091,2.3091,2.3091,2.3091,2.3091,2.3003,2.2969,2.2969,2.3357,2.402,2.4873,2.4969,2.4969,2.4969,2.4891,2.4639,2.4287,2.3877,2.3742,2.3955,2.391,2.3786,2.359,2.359,2.3406,2.3188,2.358,2.3682,2.3633,2.3467,2.3516,2.3623,2.3237,2.3091,2.3091,2.3091,2.3091,2.3091,2.3091,2.3091,2.3091,2.0292,2.0292,2.0292,2.0292,2.0292,2.0232,2.0061,2.0035,2.0035,2.0035,2.0035,2.0035,2.0035,1.9811,1.97,1.9752,1.9401,1.905,1.8614,1.8408,1.8179,1.8008,1.8,1.8,1.8,1.8,1.8094,1.8323,1.8323,1.8614,1.9222,1.9376,1.9658,2.0009,2.0206,2.0292,2.0292,2.0555,2.0645,2.069,2.1141,2.132,2.1365,2.1597,2.1553,2.132,2.1087,2.0577,1.9975,1.9607,1.9076,1.8622,1.887,1.8918,1.9007,1.9433,1.9947,2.0421,2.0586,2.1006,2.1365,2.132,2.1678,2.2087,2.2353,2.2441,2.2485,2.2706,2.274,2.2794,2.3047,2.3091,2.3169,2.3418,2.3227,2.3237,2.3647,2.353,2.3525,2.3686,2.3574,2.3525,2.3686,2.4141,2.4678,2.5342,2.5391,2.5391,2.5391,2.5185,2.5008,2.4736,2.4316,2.4137,2.4218,2.4218,2.4156,2.3929,2.4163,2.4163,2.3939,2.4163,2.4083,2.3779,2.3688,2.36,2.3467,2.3188,2.3091,2.3091,2.3091,2.3091,2.3091,2.3091,2.3091,2.3091,2.0292,2.0292,2.0292,2.0292,2.0292,2.0163,1.9751,1.97,1.97,1.97,1.97,1.9725,1.9785,1.9734,1.952,1.911,1.9119,1.8913,1.8519,1.8494,1.8357,1.8008,1.8,1.8,1.8,1.8,1.8,1.8,1.8,1.8391,1.9119,1.9187,1.9582,2.0333,2.0393,2.0464,2.0564,2.0952,2.1132,2.1177,2.1642,2.182,2.183,2.1909,2.1909,2.1776,2.1356,2.0713,1.9869,1.9238,1.8911,1.8858,1.901,1.9202,1.9487,1.9996,2.0388,2.0729,2.0935,2.1177,2.1401,2.1642,2.2132,2.2441,2.2043,2.2264,2.252,2.252,2.2896,2.3208,2.3208,2.3266,2.3432,2.3838,2.3594,2.3559,2.4316,2.4111,2.4023,2.4375,2.4111,2.4062,2.4492,2.4853,2.5254,2.5654,2.5693,2.5693,2.5693,2.5381,2.5185,2.5185,2.4756,2.4531,2.4531,2.4531,2.4531,2.4531,2.498,2.5033,2.4746,2.4802,2.4506,2.4004,2.3926,2.3691,2.3305,2.3237,2.3159,2.3091,2.3091,2.3091,2.3091,2.3091,2.3091,2.3091,2.0292,2.0292,2.0292,2.0292,2.0292,2.0163,1.9751,1.97,1.97,1.97,1.97,1.9819,2.018,1.9888,1.9409,1.8725,1.8665,1.8511,1.8094,1.8068,1.8051,1.8,1.8,1.8,1.8,1.8,1.8,1.8,1.8,1.8213,1.8674,1.9059,1.9609,2.0386,2.0757,2.1141,2.1508,2.1597,2.1597,2.1642,2.2132,2.2309,2.2353,2.275,2.2652,2.2309,2.2211,2.1685,2.0945,2.0731,2.0262,1.986,2.0594,2.0382,1.9963,2.0796,2.1339,2.1599,2.1114,2.1882,2.2652,2.1909,2.2353,2.3003,2.2925,2.296,2.3003,2.3003,2.3393,2.3701,2.3701,2.3994,2.4222,2.4326,2.4287,2.4287,2.4394,2.4365,2.4355,2.4414,2.4365,2.4502,2.4941,2.5077,2.5254,2.5654,2.5693,2.5693,2.5693,2.5635,2.5596,2.5596,2.5215,2.5028,2.5028,2.5028,2.5028,2.5028,2.5419,2.5204,2.446,2.47,2.4832,2.492,2.4502,2.4297,2.4219,2.3848,2.3486,2.3091,2.3091,2.3091,2.3091,2.3091,2.3091,2.3091,2.0292,2.0292,2.0292,2.0292,2.0292,2.0095,1.9513,1.9427,1.935,1.9127,1.9102,1.9153,1.9324,1.8965,1.8615,1.8305,1.828,1.817,1.8008,1.8,1.8,1.8,1.8,1.8094,1.834,1.834,1.8451,1.8674,1.8451,1.8537,1.8922,1.9307,1.9791,2.0438,2.082,2.1275,2.1741,2.1998,2.2087,2.2132,2.2608,2.2794,2.2828,2.3013,2.296,2.2711,2.2263,2.1708,2.116,2.088,2.054,2.0371,2.0723,2.0933,2.1102,2.1459,2.1847,2.2108,2.1845,2.2033,2.2264,2.2132,2.2397,2.2851,2.3359,2.3496,2.3496,2.3496,2.3652,2.3867,2.4092,2.4287,2.4492,2.4746,2.458,2.459,2.504,2.4941,2.4775,2.4775,2.5,2.5137,2.5116,2.5293,2.5527,2.5674,2.5693,2.5693,2.5693,2.5693,2.5693,2.5693,2.5547,2.5439,2.5439,2.5439,2.5439,2.5439,2.5644,2.5479,2.5156,2.5251,2.5222,2.5106,2.4863,2.4639,2.4385,2.3965,2.3682,2.3477,2.3188,2.3091,2.3091,2.3091,2.3091,2.3091]}]]